.

MPMG - Transparência

Contracheque - Remuneração de todos os servidores ativos - Pós Resolução CNMP 200/2019

Período: 2022 - Fevereiro

Ordem Matrícula Nome Cargo Efetivo Lotação Rendimentos Descontos Rendimento Líquido Total *14 Data de Referência
Remuneração básica Remuneração eventual ou Temporária Outras Remunerações Temporárias *7 Verbas Indenizatórias *8 Total de Rendimentos Brutos *9 Obrigatórios Legais Outros Descontos Eventuais Total de descontos *13
Remuneração do Cargo Efetivo *1 Outras Verbas Remuneratórias *2 Função de Confiança ou Cargo em Comissão *3 Gratificação Natalina *4 Férias 1/3 Constitucional *5 Abono de Permanência *6 Contribuição Previdenciária *10 Imposto de Renda *11 Retenção por Teto Constitucional *12
1 498900 ABDON MARCIO BARBOSA DA SILVA OFICIAL DO MP ABRE CAMPO - COMARCA; ABRE CAMPO-PJ-01PJ 6.123,79 1.224,76 0,00 0,00 0,00 0,00 0,00 1.717,00 9.065,55 968,98 780,75 0,00 0,00 1.749,73 7.315,82 28/02/2022
2 177800 ADALBERTO MENEZES FARIA SAMORA OFICIAL DO MP BELO HORIZONTE - COMARCA; DIR ESTRUTURA E PROCESSOS ORGANIZACIONAIS 16.750,82 6.700,33 0,00 0,00 0,00 0,00 515,93 7.345,28 31.312,36 3.545,40 4.500,45 0,00 0,00 8.045,85 23.266,51 28/02/2022
3 306400 ADALBERTO MOREIRA GONCALVES ANALISTA DO MP BELO HORIZONTE - COMARCA; BH-24PJ JUIZO REG BARREIRO-SECRETARIA 17.413,92 5.224,18 0,00 0,00 7.546,03 0,00 498,04 7.150,14 37.832,31 3.415,31 6.492,07 0,00 0,00 9.907,38 27.924,93 28/02/2022
4 179300 ADENISE AUXILIADORA SOUZA SAD OFICIAL DO MP BARBACENA - COMARCA; BARBACENA-PJ-06PJ 15.272,02 6.108,81 0,00 0,00 0,00 0,00 548,77 7.703,63 29.633,23 3.214,15 4.022,20 0,00 0,00 7.236,35 22.396,88 28/02/2022
5 272200 ADILSON BATISTA ORNELAS OFICIAL DO MP LAVRAS - COMARCA; LAVRAS-PJ-SECRETARIA 6.123,79 1.837,14 0,00 0,00 0,00 0,00 204,33 3.946,06 12.111,32 1.066,96 974,34 0,00 0,00 2.041,30 10.070,02 28/02/2022
6 380100 ADILSON GONCALVES DE MELO JUNIOR ANALISTA DO MP ARAXÁ - COMARCA; ARAXA-PJ-05PJ 12.204,02 2.440,80 0,00 0,00 0,00 0,00 536,98 7.574,93 22.756,73 2.136,38 2.466,19 0,00 0,00 4.602,57 18.154,16 28/02/2022
7 148800 ADILSON JANUARIO OFICIAL DO MP BELO HORIZONTE - COMARCA; BH-22PJ PES COM DEF E IDOSOS-SECRETARIA 18.820,14 13.174,10 0,00 0,00 0,00 4.912,29 469,25 6.836,08 44.211,86 4.912,29 7.876,92 0,00 0,00 12.789,21 31.422,65 28/02/2022
8 322601 ADMILSON SILVEIRA ANALISTA DO MP SAO JOAO DO PARAISO COMARCA; SAO JOAO DO PARAISO-PJ-UNPJ 10.069,62 1.006,96 0,00 0,00 0,00 0,00 487,37 7.919,06 19.483,01 1.565,47 1.746,20 0,00 0,00 3.311,67 16.171,34 28/02/2022
9 333700 ADRIANA ABRITTA TEIXEIRA OFICIAL DO MP BELO HORIZONTE - COMARCA; DIRET DE PESSOAL DO MINISTERIO PUBLICO - DPMP 10.069,62 3.020,89 0,00 0,00 0,00 0,00 527,98 7.476,82 21.095,31 1.887,70 2.211,41 0,00 0,00 4.099,11 16.996,20 28/02/2022
10 468500 ADRIANA APARECIDA FIRMINO ANALISTA DO MP CARATINGA - COMARCA; CARATINGA-PJ-04PJ 10.069,62 2.013,92 0,00 0,00 0,00 0,00 0,00 1.717,00 13.800,54 1.726,58 1.926,67 0,00 0,00 3.653,25 10.147,29 28/02/2022
11 326100 ADRIANA AUGUSTA AMARAL BELO OFICIAL DO MP BARBACENA - COMARCA; BARBACENA-PJ-08PJ 10.069,62 3.020,89 0,00 0,00 0,00 0,00 527,98 7.476,82 21.095,31 1.887,70 2.107,14 0,00 0,00 3.994,84 17.100,47 28/02/2022
12 605700 ADRIANA COSTA LIRA ASSESSOR/OFICIAL BELO HORIZONTE - COMARCA; COORD ESTADUAL DE DEFESA DA EDUCACAO 0,00 817,05 8.170,49 0,00 0,00 0,00 296,59 4.952,51 14.236,64 872,76 1.362,21 0,00 0,00 2.234,97 12.001,67 28/02/2022
13 541100 ADRIANA CRISTINA DE OLIVEIRA OFICIAL DO MP GUAPÉ - COMARCA; GUAPE-PJ-UNPJ 5.562,64 556,26 0,00 0,00 0,00 0,00 0,00 2.602,30 8.721,20 778,43 547,13 0,00 0,00 1.325,56 7.395,64 28/02/2022
14 254800 ADRIANA DAS GRACAS FERNANDES ANALISTA DO MP UBERABA - COMARCA; UBERABA-PJ-07PJ 18.820,14 13.174,10 0,00 0,00 0,00 0,00 469,25 6.836,08 39.299,57 4.912,29 6.526,04 0,00 0,00 11.438,33 27.861,24 28/02/2022
15 217400 ADRIANA DE CARVALHO CATAO BRAGA ASSESSOR BELO HORIZONTE - COMARCA; DIV FISCAL ADM CONT TERCEIRIZACAO 0,00 3.268,20 8.170,49 0,00 0,00 0,00 0,00 1.717,00 13.155,69 828,38 2.377,93 0,00 0,00 3.206,31 9.949,38 28/02/2022
16 434600 ADRIANA FERREIRA DA SILVA ANALISTA DO MP BELO HORIZONTE - COMARCA; BH-14PJ DEFESA CONSUMIDOR-GAB 112PJ 13.011,52 2.602,30 0,00 0,00 0,00 0,00 0,00 1.717,00 17.330,82 2.291,42 2.794,30 0,00 0,00 5.085,72 12.245,10 28/02/2022
17 499800 ADRIANA FERREIRA TIAGO OFICIAL DO MP SALINAS - COMARCA; SALINAS-PJ-02PJ 7.663,37 1.532,67 0,00 0,00 0,00 0,00 0,00 1.717,00 10.913,04 1.264,58 1.311,79 0,00 0,00 2.576,37 8.336,67 28/02/2022
18 543400 ADRIANA GUIMARAES NUNES DE PAULA ANALISTA DO MP PATROCÍNIO - COMARCA; PATROCINIO-PJ-01PJ 9.444,70 944,47 0,00 0,00 0,00 0,00 0,00 1.717,00 12.106,17 927,17 1.664,59 0,00 0,00 2.591,76 9.514,41 28/02/2022
19 471500 ADRIANA HORTA DE CARVALHO RODRIGUES DE SOUSA ANALISTA DO MP BELO HORIZONTE - COMARCA; GRUPO ESP PROM JUST DEF PROB ADM PAT PUB 10.069,62 2.013,92 0,00 0,00 0,00 0,00 0,00 1.717,00 13.800,54 1.726,58 1.926,67 0,00 0,00 3.653,25 10.147,29 28/02/2022
20 86400 ADRIANA MOREIRA CALDEIRA BRANT OFICIAL DO MP BELO HORIZONTE - COMARCA; BH-21PJ TUTELA FUNDACOES-SECRETARIA 16.750,82 11.725,57 0,00 0,00 0,00 4.349,44 0,00 1.717,00 34.542,83 4.349,44 6.961,65 0,00 0,00 11.311,09 23.231,74 28/02/2022
21 480700 ADRIANA MOREIRA DE AVELLAR CEZILIO OFICIAL DO MP BELO HORIZONTE - COMARCA; BH-12PJ JUIZO CRIMINAL-SECRETARIA 6.123,79 1.224,76 0,00 0,00 0,00 0,00 404,17 6.126,13 13.878,85 968,98 780,75 0,00 0,00 1.749,73 12.129,12 28/02/2022
22 326000 ADRIANA PEREIRA CARNEIRO RESENDE OFICIAL DO MP BELO HORIZONTE - COMARCA; BH-25PJ DEFESA DA EDUCACAO-SECRETARIA 10.069,62 3.020,89 0,00 0,00 0,00 0,00 527,98 7.476,82 21.095,31 1.887,70 2.211,41 0,00 0,00 4.099,11 16.996,20 28/02/2022
23 502200 ADRIANA PETRUCCI DAVINA OFICIAL DO MP PATROCÍNIO - COMARCA; PATROCINIO-PJ-01PJ 7.912,85 1.582,57 0,00 0,00 0,00 0,00 348,17 6.400,47 16.244,06 1.312,48 1.380,95 0,00 0,00 2.693,43 13.550,63 28/02/2022
24 201900 ADRIANA REIS PIMENTA OFICIAL DO MP TEÓFILO OTONI - COMARCA; TEOFILO OTONI-PJ-03PJ 15.272,02 6.108,81 0,00 0,00 0,00 0,00 548,77 7.703,63 29.633,23 3.214,15 4.126,48 0,00 0,00 7.340,63 22.292,60 28/02/2022
25 278700 ADRIANA RODRIGUES PINTO COELHO AMARAL ANALISTA DO MP BELO HORIZONTE - COMARCA; CGMP-ASSESSORIA JURIDICA 18.103,37 5.431,01 0,00 0,00 0,00 0,00 517,76 7.365,25 31.417,39 3.558,71 4.571,81 0,00 0,00 8.130,52 23.286,87 28/02/2022
26 468000 ADRIANA SANTOS DE SANTANA MOREIRA ANALISTA DO MP ARAÇUAÍ - COMARCA; ARACUAI-PJ-02PJ 10.069,62 4.027,85 0,00 0,00 0,00 0,00 516,91 7.355,99 21.970,37 2.048,81 2.339,75 0,00 0,00 4.388,56 17.581,81 28/02/2022
27 194700 ADRIANA TSUKIDE OFICIAL DO MP UBERABA - COMARCA; COORD REG BACIAS PARANAIBA BAIXO RIO GRANDE 15.272,02 6.108,81 0,00 0,00 0,00 0,00 0,00 1.717,00 23.097,83 3.214,15 4.074,34 0,00 0,00 7.288,49 15.809,34 28/02/2022
28 465500 ADRIANO CASSIANO MATOS ANALISTA DO MP ARAXÁ - COMARCA; ARAXA-PJ-02PJ 10.069,62 2.013,92 0,00 0,00 0,00 0,00 0,00 1.717,00 13.800,54 1.726,58 1.978,80 0,00 0,00 3.705,38 10.095,16 28/02/2022
29 500500 ADRIANO DE ALMEIDA SILVA OFICIAL DO MP UBERABA - COMARCA; UBERABA-PJ-12PJ 7.912,85 1.582,57 0,00 0,00 0,00 0,00 522,25 8.299,55 18.317,22 1.312,48 881,00 0,00 0,00 2.193,48 16.123,74 28/02/2022
30 187200 ADRIANO DE FREITAS MARON OFICIAL DO MP PONTE NOVA - COMARCA; PONTE NOVA-PJ-03PJ 13.011,52 11.710,37 0,00 0,00 0,00 3.748,72 543,88 7.650,25 36.664,74 3.748,72 5.929,16 0,00 0,00 9.677,88 26.986,86 28/02/2022
31 477900 ADRIANO FERREIRA DE ALMEIDA OFICIAL DO MP TAIOBEIRAS - COMARCA; TAIOBEIRAS-PJ-UNPJ 7.912,85 1.582,57 0,00 0,00 0,00 0,00 348,17 5.515,17 15.358,76 1.312,48 1.276,67 0,00 0,00 2.589,15 12.769,61 28/02/2022
32 269101 ADRIANO PEREIRA SILVA ANALISTA DO MP UBERABA - COMARCA; UBERABA-PJ-02PJ 10.069,62 2.013,92 0,00 0,00 0,00 0,00 531,68 7.517,10 20.132,32 1.726,58 1.822,39 0,00 0,00 3.548,97 16.583,35 28/02/2022
33 414200 ADRIANO RODRIGUES FERNANDES ANALISTA DO MP CARANDAÍ - COMARCA; CARANDAI-PJ-UNPJ 10.069,62 2.013,92 0,00 0,00 0,00 0,00 0,00 1.717,00 13.800,54 1.726,58 1.874,53 0,00 0,00 3.601,11 10.199,43 28/02/2022
34 536700 ADRIELLE COSTA MARIA MOURAO FIGUEIREDO OFICIAL DO MP SERRO - COMARCA; SERRO-PJ-SECRETARIA 5.562,64 556,26 0,00 0,00 0,00 0,00 0,00 2.602,30 8.721,20 778,43 599,27 0,00 0,00 1.377,70 7.343,50 28/02/2022
35 514300 ADRIENE DAMASCENO BRAGA ANALISTA DO MP ALFENAS - COMARCA; ALFENAS-PJ-03PJ 10.069,62 2.013,92 0,00 0,00 0,00 0,00 531,68 8.402,40 21.017,62 1.726,58 1.978,80 0,00 0,00 3.705,38 17.312,24 28/02/2022
36 254600 ADRIENE DOMINGUES COSTA ANALISTA DO MP BELO HORIZONTE - COMARCA; SUPER DE GESTAO DE PESSOAS-LOTACAO TEMPORARIA 18.820,14 5.646,04 0,00 0,00 0,00 0,00 0,00 0,00 24.466,18 3.707,80 4.839,19 0,00 0,00 8.546,99 15.919,19 28/02/2022
37 252001 ADRIENE GOMES BARRETO ANALISTA DO MP BELO HORIZONTE - COMARCA; BH-19PJ SAUDE-SECRETARIA 047PJ 14.790,66 5.916,26 0,00 0,00 0,00 0,00 531,48 7.514,94 28.753,34 3.106,32 3.970,80 0,00 0,00 7.077,12 21.676,22 28/02/2022
38 714800 ADSON GUSTAVO DE OLIVEIRA ASSESSOR PROCURADOR JUSTICA BELO HORIZONTE - COMARCA; GABINETE DE PROCURADOR DE JUSTIÇA - SALA 803 0,00 0,00 7.187,72 0,00 0,00 0,00 0,00 1.717,00 8.904,72 828,38 1.208,91 0,00 0,00 2.037,29 6.867,43 28/02/2022
39 302500 AGENOR JOSE DA SILVA JUNIOR ANALISTA DO MP JUIZ DE FORA - COMARCA; JUIZ DE FORA-PJ-14PJ 17.413,92 5.224,18 0,00 0,00 0,00 0,00 498,04 7.150,14 30.286,28 3.415,31 4.312,63 0,00 0,00 7.727,94 22.558,34 28/02/2022
40 357500 AILSON WAGNER DE ALENCAR SILVA OFICIAL DO MP BELO HORIZONTE - COMARCA; BH-12PJ JUIZO CRIMINAL-SECRETARIA 11.085,56 4.434,22 0,00 0,00 0,00 0,00 512,15 7.304,12 23.336,05 2.276,38 2.616,16 0,00 0,00 4.892,54 18.443,51 28/02/2022
41 366400 AILTON ALEXSSANDRO ALVES OFICIAL DO MP PARÁ DE MINAS - COMARCA; PARA DE MINAS-PJ-05PJ 9.752,14 3.900,86 0,00 0,00 0,00 0,00 0,00 1.717,00 15.370,00 1.977,69 2.341,35 0,00 0,00 4.319,04 11.050,96 28/02/2022
42 318900 AILTON DE CASTRO RIBEIRO JUNIOR OFICIAL DO MP ITAJUBA - COMARCA; ITAJUBA-PJ-01PJ 10.069,62 3.020,89 0,00 0,00 0,00 0,00 527,98 8.362,12 21.980,61 1.887,70 2.002,87 0,00 0,00 3.890,57 18.090,04 28/02/2022
43 464400 ALAN MONTEIRO GASPAR ANALISTA DO MP SETE LAGOAS - COMARCA; SETE LAGOAS-PJ-08PJ 10.069,62 2.013,92 0,00 0,00 0,00 0,00 531,68 7.517,10 20.132,32 1.726,58 1.978,80 0,00 0,00 3.705,38 16.426,94 28/02/2022
44 492000 ALANA DE CASTRO FREITAS OFICIAL DO MP LAVRAS - COMARCA; LAVRAS-PJ-03PJ 6.123,79 1.224,76 0,00 0,00 0,00 0,00 0,00 1.717,00 9.065,55 968,98 885,02 0,00 0,00 1.854,00 7.211,55 28/02/2022
45 306700 ALANA MARCIA DE OLIVEIRA OFICIAL DO MP BELO HORIZONTE - COMARCA; DIRETORIA DE ADMINISTRACAO FINANCEIRA 10.069,62 3.020,89 0,00 0,00 0,00 0,00 527,98 7.476,82 21.095,31 1.887,70 2.211,41 0,00 0,00 4.099,11 16.996,20 28/02/2022
46 324500 ALANMAR COUTINHO COSTA OFICIAL DO MP LEOPOLDINA - COMARCA; LEOPOLDINA-PJ-02PJ 10.069,62 3.020,89 0,00 0,00 0,00 0,00 527,98 7.476,82 21.095,31 1.887,70 2.107,14 0,00 0,00 3.994,84 17.100,47 28/02/2022
47 407300 ALBERTO LUIZ SOARES DE OLIVEIRA ANALISTA DO MP BELO HORIZONTE - COMARCA; DIRETORIA DE PROJETOS DE EDIFICACOES 13.011,52 2.602,30 0,00 0,00 0,00 0,00 0,00 1.717,00 17.330,82 2.291,42 2.794,30 0,00 0,00 5.085,72 12.245,10 28/02/2022
48 118200 ALBERTO PEREIRA DA COSTA OFICIAL DO MP DORES DO INDAIÁ - COMARCA; DORES DO INDAIA-PJ-UNPJ 17.413,92 15.672,53 0,00 0,00 0,00 5.087,05 485,27 7.010,83 45.669,60 5.087,05 8.177,28 0,00 0,00 13.264,33 32.405,27 28/02/2022
49 282400 ALCILENE MARISE DE ARAUJO ANALISTA DO MP BELO HORIZONTE - COMARCA; BH-23PJ INF-FISC MED SOC FEC 18.103,37 5.431,01 0,00 0,00 0,00 0,00 0,00 1.717,00 25.251,38 3.558,71 4.519,67 0,00 0,00 8.078,38 17.173,00 28/02/2022
50 112600 ALCIONE DA MOTA JARDIM OFICIAL DO MP BELO HORIZONTE - COMARCA; CAO-CRIANCAS E ADOLESCENTES-SECRETARIA 17.413,92 12.189,74 0,00 0,00 0,00 0,00 0,00 1.717,00 31.320,66 4.529,80 5.973,81 0,00 0,00 10.503,61 20.817,05 28/02/2022
51 396400 ALCIONE DE FREITAS E SILVA ANALISTA DO MP BELO HORIZONTE - COMARCA; ASSESS JUR DO CONS SUPERIOR DO MINISTERIO PUB 14.790,66 5.916,26 0,00 0,00 6.902,31 0,00 531,48 7.514,94 35.655,65 3.106,32 5.868,94 0,00 0,00 8.975,26 26.680,39 28/02/2022
52 657400 ALCIONE MARIA FERREIRA ASSESSOR PROCURADOR JUSTICA BELO HORIZONTE - COMARCA; GABINETE DE PROCURADOR DE JUSTIÇA - SALA 610 0,00 0,00 7.187,72 0,00 0,00 0,00 0,00 2.602,30 9.790,02 828,38 1.208,91 0,00 0,00 2.037,29 7.752,73 28/02/2022
53 161600 ALCIONE NERY SOUZA ASSESSOR BELO HORIZONTE - COMARCA; BH-18PJ DIREITOS HUMANOS-SECRETARIA 0,00 4.085,25 8.170,49 0,00 0,00 0,00 0,00 1.717,00 13.972,74 828,38 2.602,61 0,00 0,00 3.430,99 10.541,75 28/02/2022
54 376000 ALDA GOMES LANA OFICIAL DO MP BELO HORIZONTE - COMARCA; BH-18PJ VIOLENCIA DOMESTICA-SECRETARIA 9.146,93 1.829,39 0,00 0,00 0,00 0,00 482,96 6.985,63 18.444,91 1.549,42 1.670,90 0,00 0,00 3.220,32 15.224,59 28/02/2022
55 148000 ALDA MARTINS SIMOES OFICIAL DO MP BELO HORIZONTE - COMARCA; BH-23PJ CIVEL- FISC ENT AB POL 18.103,37 9.051,69 0,00 0,00 0,00 0,00 497,84 7.148,01 34.800,91 4.138,02 5.460,33 0,00 0,00 9.598,35 25.202,56 28/02/2022
56 318400 ALDO CREPALDI JUNIOR OFICIAL DO MP BELO HORIZONTE - COMARCA; DIVISAO DE MATERIAIS 10.069,62 3.020,89 0,00 0,00 0,00 0,00 527,98 7.476,82 21.095,31 1.887,70 2.159,28 0,00 0,00 4.046,98 17.048,33 28/02/2022
57 604500 ALENIZE APARECIDA RODRIGUES HENRIQUE OFICIAL DO MP RIO NOVO - COMARCA; RIO NOVO-PJ-UNPJ 5.562,64 556,26 0,00 0,00 0,00 0,00 224,36 4.164,56 10.507,82 778,43 599,27 0,00 0,00 1.377,70 9.130,12 28/02/2022
58 197900 ALESSA DE SOUSA E SILVA OFICIAL DO MP OLIVEIRA - COMARCA; OLIVEIRA-PJ-02PJ 16.750,82 6.700,33 0,00 0,00 0,00 0,00 515,93 7.345,28 31.312,36 3.545,40 4.500,45 0,00 0,00 8.045,85 23.266,51 28/02/2022
59 428500 ALESSANDRA ALVES DINIZ OFICIAL DO MP BELO HORIZONTE - COMARCA; CENTRAL DE APOIO TECNICO-SECRETARIA 7.912,85 3.956,43 0,00 0,00 3.956,43 0,00 0,00 1.717,00 17.542,71 1.692,30 3.017,33 0,00 0,00 4.709,63 12.833,08 28/02/2022
60 286801 ALESSANDRA BOTELHO JUNQUEIRA DE MENEZES ANALISTA DO MP PASSOS - COMARCA; PASSOS-PJ-05PJ 14.324,23 5.729,69 0,00 0,00 0,00 0,00 514,72 8.217,40 28.786,04 3.001,84 3.611,41 0,00 0,00 6.613,25 22.172,79 28/02/2022
61 307000 ALESSANDRA CRISTINA SANTOS MENDES ANALISTA DO MP BELO HORIZONTE - COMARCA; BH-18PJ VIOLENCIA DOMESTICA-SECRETARIA 15.272,02 4.581,61 0,00 0,00 6.617,88 0,00 509,58 7.276,02 34.257,11 2.969,79 5.541,47 0,00 0,00 8.511,26 25.745,85 28/02/2022
62 264400 ALESSANDRA DE SOUZA SANTOS ANALISTA DO MP BELO HORIZONTE - COMARCA; SUPERINTENDENCIA DOS ORGAOS COLEGIADOS 18.820,14 7.528,06 0,00 0,00 0,00 0,00 0,00 1.717,00 28.065,20 4.008,93 5.273,94 0,00 0,00 9.282,87 18.782,33 28/02/2022
63 441500 ALESSANDRA DRUMMOND DE FIGUEIREDO ROSSI ANALISTA DO MP BELO HORIZONTE - COMARCA; DIRETORIA DE PROJETOS DE EDIFICACOES 10.069,62 2.013,92 0,00 0,00 0,00 0,00 0,00 1.717,00 13.800,54 1.726,58 1.978,80 0,00 0,00 3.705,38 10.095,16 28/02/2022
64 524000 ALESSANDRA LUCIOLI DE BARROS GUERRA ANALISTA DO MP BELO HORIZONTE - COMARCA; BH-19PJ SAUDE--SECRETARIA 10.069,62 1.006,96 0,00 0,00 0,00 0,00 487,37 7.033,76 18.597,71 1.565,47 1.641,92 0,00 0,00 3.207,39 15.390,32 28/02/2022
65 479900 ALESSANDRA MARA ANDRADE DE FARIA OFICIAL DO MP UBERABA - COMARCA; UBERABA-PJ-09PJ 7.912,85 1.582,57 0,00 0,00 0,00 0,00 348,17 5.515,17 15.358,76 1.312,48 1.380,95 0,00 0,00 2.693,43 12.665,33 28/02/2022
66 226700 ALESSANDRA MARA VASCONCELOS REZENDE OFICIAL DO MP CONSELHEIRO LAFAIETE - COMARCA; CONSELHEIRO LAFAIETE-PJ-07PJ 10.736,08 3.220,82 0,00 0,00 0,00 0,00 511,75 7.299,76 21.768,41 2.026,32 2.411,55 0,00 0,00 4.437,87 17.330,54 28/02/2022
67 112100 ALESSANDRA MARCIA FERREIRA OFICIAL DO MP BELO HORIZONTE - COMARCA; BELO HORIZONTE- SECRETARIA DAS PROMOTORIAS 10.069,62 7.048,73 0,00 0,00 0,00 0,00 125,53 3.086,47 20.330,35 2.532,15 3.141,85 0,00 0,00 5.674,00 14.656,35 28/02/2022
68 196500 ALESSANDRA MARIA RIBEIRO LUCIANO OFICIAL DO MP RIO PARANAÍBA - COMARCA; RIO PARANAIBA-PJ-UNPJ 16.750,82 6.700,33 0,00 0,00 0,00 0,00 0,00 1.717,00 25.168,15 3.545,40 4.500,45 0,00 0,00 8.045,85 17.122,30 28/02/2022
69 651700 ALESSANDRA PROFIRIO SOUZA OFICIAL DO MP NOVA ERA - COMARCA; NOVA ERA-PJ-UNPJ 4.817,57 481,76 0,00 0,00 0,00 0,00 0,00 1.717,00 7.016,33 655,50 366,07 0,00 0,00 1.021,57 5.994,76 28/02/2022
70 384900 ALESSANDRA RODRIGUES ANALISTA DO MP VISCONDE DO RIO BRANCO - COMARCA; VISCONDE DO RIO BRANCO-PJ-03PJ 14.790,66 2.958,13 0,00 0,00 0,00 0,00 520,63 8.281,91 26.551,33 2.633,02 3.183,20 0,00 0,00 5.816,22 20.735,11 28/02/2022
71 390000 ALESSANDRA SPADANO MASSARA VASCONCELOS OFICIAL DO MP BETIM - COMARCA; BETIM-PJ-10PJ 9.146,93 1.829,39 0,00 0,00 0,00 0,00 0,00 1.717,00 12.693,32 1.549,42 1.723,04 0,00 0,00 3.272,46 9.420,86 28/02/2022
72 426500 ALESSANDRO CAMPOS DE PAIVA ANALISTA DO MP BELO HORIZONTE - COMARCA; DIR CRIACAO E MIDIAS 14.324,23 2.864,85 0,00 0,00 0,00 0,00 0,00 1.717,00 18.906,08 2.543,47 3.158,18 0,00 0,00 5.701,65 13.204,43 28/02/2022
73 623400 ALESSANDRO DE OLIVEIRA REZENDE ANALISTA DO MP BELO HORIZONTE - COMARCA; DIRET DE INFORMACAO E CONHECIMENTO-DINC/CEAF 9.146,93 914,69 0,00 0,00 0,00 0,00 0,00 1.717,00 11.778,62 1.403,07 1.511,74 0,00 0,00 2.914,81 8.863,81 28/02/2022
74 420600 ALESSANDRO SILVA OFICIAL DO MP VISCONDE DO RIO BRANCO - COMARCA; VISCONDE DO RIO BRANCO-PJ-02PJ 8.579,10 2.573,73 0,00 0,00 0,00 0,00 490,72 7.070,36 18.713,91 1.577,67 1.226,78 0,00 0,00 2.804,45 15.909,46 28/02/2022
75 375301 ALETHEIA PATRICIA ASSIS MORAIS MOREIRA ANALISTA DO MP ITABIRA - COMARCA; ITABIRA-PJ-02PJ 10.069,62 1.006,96 0,00 0,00 0,00 0,00 487,37 7.919,06 19.483,01 1.565,47 1.694,06 0,00 0,00 3.259,53 16.223,48 28/02/2022
76 382300 ALEX CARVALHO LIMA ANALISTA DO MP UBERLÂNDIA - COMARCA; UBERLANDIA-PJ-14PJ 14.790,66 2.958,13 0,00 0,00 0,00 0,00 520,63 7.396,61 25.666,03 2.633,02 3.287,48 0,00 0,00 5.920,50 19.745,53 28/02/2022
77 195201 ALEX DE CASTRO PEREIRA ANALISTA DO MP UBERABA - COMARCA; UBERABA-PJ-09PJ 18.103,37 7.241,35 0,00 0,00 0,00 0,00 464,65 6.785,94 32.595,31 3.848,37 5.042,14 0,00 0,00 8.890,51 23.704,80 28/02/2022
78 358900 ALEX DE PAULA LANZA ASSESSOR BELO HORIZONTE - COMARCA; DIR CONTEUDO JORNALISTICO 0,00 0,00 10.397,52 0,00 3.465,84 0,00 0,00 2.602,30 16.465,66 828,38 3.044,71 0,00 0,00 3.873,09 12.592,57 28/02/2022
79 178400 ALEX RODRIGO SALDANHA GUIMARAES OFICIAL DO MP BELO HORIZONTE - COMARCA; DIRETORIA DE SISTEMAS DE INFORMACAO 6.123,79 2.449,52 0,00 0,00 2.857,77 0,00 0,00 1.717,00 13.148,08 1.164,94 1.953,83 0,00 0,00 3.118,77 10.029,31 28/02/2022
80 413500 ALEX VILELA OLIVEIRA ANALISTA DO MP GOVERNADOR VALADARES - COMARCA; COORD REG PJ DEF EDU DIR CRIANCA ADOL RIODOCE 14.324,23 2.864,85 0,00 0,00 0,00 0,00 441,19 6.529,94 24.160,21 2.543,47 3.158,18 0,00 0,00 5.701,65 18.458,56 28/02/2022
81 264300 ALEXANDRA FATIMA SARAIVA SOARES ANALISTA DO MP BELO HORIZONTE - COMARCA; CENTRAL DE APOIO TECN-SETOR DE MEIO AMBIENTE 18.820,14 5.646,04 0,00 0,00 8.155,39 0,00 538,26 7.588,88 40.748,71 3.707,80 7.081,93 0,00 0,00 10.789,73 29.958,98 28/02/2022
82 488000 ALEXANDRA LARA PAIS DE CARVALHO ANALISTA DO MP SERRO - COMARCA; SERRO-PJ-UNPJ 10.069,62 2.013,92 0,00 0,00 0,00 0,00 531,68 7.517,10 20.132,32 1.726,58 1.822,39 0,00 0,00 3.548,97 16.583,35 28/02/2022
83 256300 ALEXANDRA SANTOS GOMES OFICIAL DO MP BELO HORIZONTE - COMARCA; DIRETORIA GESTAO COMPRAS LICITACOES 10.069,62 3.020,89 0,00 0,00 0,00 0,00 0,00 1.717,00 14.807,51 1.887,70 2.211,41 0,00 0,00 4.099,11 10.708,40 28/02/2022
84 403300 ALEXANDRE AUGUSTO RODRIGUES ANALISTA DO MP ÁGUAS FORMOSAS - COMARCA; AGUAS FORMOSAS-PJ-UNPJ 10.069,62 2.013,92 0,00 0,00 0,00 0,00 0,00 3.487,60 15.571,14 1.726,58 1.978,80 0,00 0,00 3.705,38 11.865,76 28/02/2022
85 640900 ALEXANDRE BARBOSA MASCARENHAS ANALISTA DO MP BETIM - COMARCA; BETIM-PJ-02PJ 6.961,05 696,11 0,00 0,00 0,00 0,00 0,00 1.717,00 9.374,16 927,17 581,39 0,00 0,00 1.508,56 7.865,60 28/02/2022
86 311700 ALEXANDRE BARCELOS RESENDE OFICIAL DO MP BELO HORIZONTE - COMARCA; BH-19PJ SAUDE-SECRETARIA 047PJ 8.579,10 1.715,82 0,00 0,00 0,00 0,00 0,00 2.602,30 12.897,22 1.440,40 1.565,63 0,00 0,00 3.006,03 9.891,19 28/02/2022
87 285600 ALEXANDRE CAMPOS DE OLIVEIRA OFICIAL DO MP UBERABA - COMARCA; COORD REG BACIAS PARANAIBA BAIXO RIO GRANDE 10.069,62 3.020,89 0,00 0,00 0,00 0,00 527,98 7.476,82 21.095,31 1.887,70 2.055,00 0,00 0,00 3.942,70 17.152,61 28/02/2022
88 509200 ALEXANDRE CAPUANO DE REZENDE ANALISTA DO MP BELO HORIZONTE - COMARCA; BH-07PJ 02 TRIBUNAL DO JURI-GAB 109PJ 10.069,62 2.013,92 0,00 0,00 4.027,85 0,00 0,00 1.717,00 17.828,39 1.726,58 3.034,33 0,00 0,00 4.760,91 13.067,48 28/02/2022
89 229400 ALEXANDRE CARLOS BOTREL DIRETOR/OFICIAL BELO HORIZONTE - COMARCA; SUPERINTENDENCIA DOS ORGAOS COLEGIADOS 0,00 5.224,18 17.413,92 0,00 0,00 0,00 498,04 7.150,14 30.286,28 2.772,65 4.593,64 0,00 0,00 7.366,29 22.919,99 28/02/2022
90 411900 ALEXANDRE CARVALHO SANTOS RIBEIRO ANALISTA DO MP OLIVEIRA - COMARCA; OLIVEIRA-PJ-02PJ 14.324,23 2.864,85 0,00 0,00 0,00 0,00 504,21 8.102,81 25.796,10 2.543,47 3.158,18 0,00 0,00 5.701,65 20.094,45 28/02/2022
91 641600 ALEXANDRE DA SILVA ASSUNCAO OFICIAL DO MP BELO HORIZONTE - COMARCA; SERVICO MEDICO-DEPTO PERIC MEDICA SAUDE OCUP 4.974,42 497,44 0,00 0,00 0,00 0,00 0,00 1.717,00 7.188,86 681,38 448,02 0,00 0,00 1.129,40 6.059,46 28/02/2022
92 201200 ALEXANDRE DE ALENCAR CORDEIRO OFICIAL DO MP ÁGUAS FORMOSAS - COMARCA; AGUAS FORMOSAS-PJ-UNPJ 6.123,79 3.061,90 0,00 0,00 0,00 0,00 0,00 1.717,00 10.902,69 1.262,92 1.309,40 0,00 0,00 2.572,32 8.330,37 28/02/2022
93 288200 ALEXANDRE DE VASCONCELOS COSTA KER ANALISTA DO MP BELO HORIZONTE - COMARCA; BH-03PJ EMPRESARIAL-SECRETARIA 17.413,92 5.224,18 0,00 0,00 7.546,03 0,00 498,04 7.150,14 37.832,31 3.415,31 6.439,93 0,00 0,00 9.855,24 27.977,07 28/02/2022
94 445000 ALEXANDRE DIOGENES OLIVEIRA ANALISTA DO MP SALINAS - COMARCA; SALINAS-PJ-02PJ 10.736,08 2.147,22 0,00 0,00 0,00 0,00 519,63 8.270,95 21.673,88 1.854,54 2.163,55 0,00 0,00 4.018,09 17.655,79 28/02/2022
95 463400 ALEXANDRE LEAL WINKELSTROTER ANALISTA DO MP TEÓFILO OTONI - COMARCA; TEOFILO OTONI-PJ-04PJ 10.069,62 2.013,92 0,00 0,00 0,00 0,00 0,00 1.717,00 13.800,54 1.726,58 1.978,80 0,00 0,00 3.705,38 10.095,16 28/02/2022
96 615700 ALEXANDRE LUIZ DE CASTRO MACIEL ANALISTA DO MP BELO HORIZONTE - COMARCA; BH-08PJ JUIZADO ESPECIAL-SECRETARIA 9.146,93 914,69 0,00 0,00 0,00 0,00 0,00 1.717,00 11.778,62 1.403,07 1.511,74 0,00 0,00 2.914,81 8.863,81 28/02/2022
97 356900 ALEXANDRE MOISES MENDONCA E ARAUJO OFICIAL DO MP UBERABA - COMARCA; UBERABA-PJ-13PJ 7.663,37 2.299,01 0,00 0,00 0,00 0,00 0,00 1.717,00 11.679,38 1.387,19 1.488,82 0,00 0,00 2.876,01 8.803,37 28/02/2022
98 633300 ALEXANDRE NONATO MARTINS OFICIAL DO MP IGARAPÉ - COMARCA; IGARAPE-PJ-02PJ 4.974,42 497,44 0,00 0,00 1.823,95 0,00 0,00 1.717,00 9.012,81 681,38 897,47 0,00 0,00 1.578,85 7.433,96 28/02/2022
99 469900 ALEXANDRE PEREIRA GUEDES ANALISTA DO MP CATAGUASES - COMARCA; CATAGUASES-PJ-03PJ 10.069,62 2.013,92 0,00 0,00 4.027,85 0,00 531,68 7.517,10 24.160,17 1.726,58 3.086,46 0,00 0,00 4.813,04 19.347,13 28/02/2022
100 208700 ALEXANDRE RESENDE FRAGA ANALISTA DO MP BELO HORIZONTE - COMARCA; BH-19PJ SAUDE-SECRETARIA 130PJ 18.820,14 7.528,06 0,00 0,00 0,00 0,00 0,00 1.717,00 28.065,20 4.008,93 5.117,53 0,00 0,00 9.126,46 18.938,74 28/02/2022
101 216401 ALEXANDRE RIBEIRO DE LIMA MAIORINO ANALISTA DO MP UBERABA - COMARCA; UBERABA-PJ-03PJ 17.413,92 6.965,57 0,00 0,00 0,00 0,00 536,35 7.568,08 32.483,92 3.693,93 4.767,03 0,00 0,00 8.460,96 24.022,96 28/02/2022
102 475100 ALEXANDRE TEOTONIO COSTA ANALISTA DO MP ARAGUARI - COMARCA; ARAGUARI-PJ-01PJ 10.069,62 2.013,92 0,00 0,00 0,00 0,00 88,61 2.683,68 14.855,83 1.726,58 1.874,53 0,00 0,00 3.601,11 11.254,72 28/02/2022
103 339000 ALEXANDRE VITOR CARDOSO OFICIAL DO MP BELO HORIZONTE - COMARCA; BH-12PJ JUIZO CRIMINAL-SECRETARIA 6.123,79 1.837,14 0,00 0,00 0,00 0,00 204,33 3.946,06 12.111,32 1.066,96 870,07 0,00 0,00 1.937,03 10.174,29 28/02/2022
104 678900 ALEXIA DUARTE TORRES ASSESSOR PROCURADOR JUSTICA BELO HORIZONTE - COMARCA; GABINETE DE PROCURADOR DE JUSTIÇA - SALA 502 0,00 0,00 7.187,72 0,00 0,00 0,00 0,00 1.717,00 8.904,72 828,38 1.208,91 0,00 0,00 2.037,29 6.867,43 28/02/2022
105 623100 ALEXSANDER BATISTA AGUIAR COORDENADOR/ANALISTA BELO HORIZONTE - COMARCA; DIRETORIA DE SUPORTE E MANUTENCAO 0,00 1.343,52 13.435,16 0,00 0,00 0,00 541,88 8.513,77 23.834,33 1.403,07 2.652,52 0,00 0,00 4.055,59 19.778,74 28/02/2022
106 513300 ALFSON MIRANDA BRAGA ANALISTA DO MP BELO HORIZONTE - COMARCA; BH-12PJ JUIZO CRIMINAL-GAB 087PJ 10.069,62 2.013,92 0,00 0,00 0,00 0,00 354,45 5.583,73 18.021,72 1.726,58 1.978,80 0,00 0,00 3.705,38 14.316,34 28/02/2022
107 618400 ALICE MAGALHAES MACEDO DE CARVALHO ANALISTA DO MP IPATINGA - COMARCA; IPATINGA-PJ-10PJ 9.146,93 914,69 0,00 0,00 0,00 0,00 405,82 7.029,41 17.496,85 1.403,07 1.511,74 0,00 0,00 2.914,81 14.582,04 28/02/2022
108 707000 ALICE MARIA RIBEIRO DINIZ ASSESSOR PROMOTOR JUSTICA BELO HORIZONTE - COMARCA; PROC JUST ATUACAO TRIBUNAIS SUPERIORES-GAB004 0,00 0,00 7.187,72 0,00 0,00 0,00 0,00 1.717,00 8.904,72 828,38 1.208,91 0,00 0,00 2.037,29 6.867,43 28/02/2022
109 471000 ALICE TITONELI MOREIRA ANALISTA DO MP MIRADOURO - COMARCA; MIRADOURO-PJ-UNPJ 10.069,62 2.013,92 0,00 0,00 0,00 0,00 0,00 2.602,30 14.685,84 1.726,58 1.926,67 0,00 0,00 3.653,25 11.032,59 28/02/2022
110 622400 ALINE BALBINO PORTUGAL LOPES ANALISTA DO MP TRÊS PONTAS - COMARCA; TRES PONTAS-PJ-03PJ 9.146,93 914,69 0,00 0,00 0,00 0,00 405,82 7.029,41 17.496,85 1.403,07 1.511,74 0,00 0,00 2.914,81 14.582,04 28/02/2022
111 373000 ALINE BOTELHO RESENDE OFICIAL DO MP JUIZ DE FORA - COMARCA; JUIZ DE FORA-PJ-22PJ 9.444,70 1.888,94 0,00 0,00 0,00 0,00 0,00 1.717,00 13.050,64 1.606,60 1.805,58 0,00 0,00 3.412,18 9.638,46 28/02/2022
112 699800 ALINE CRISTINA DE OLIVEIRA AMARAL BARBOSA ASSESSOR PROCURADOR JUSTICA BELO HORIZONTE - COMARCA; GABINETE DE PROCURADOR DE JUSTIÇA - SALA 904 0,00 0,00 7.187,72 0,00 0,00 0,00 0,00 1.717,00 8.904,72 828,38 1.104,63 0,00 0,00 1.933,01 6.971,71 28/02/2022
113 407700 ALINE CRISTINA RODRIGUES PEREIRA COORDENADOR/ANALISTA BELO HORIZONTE - COMARCA; DIRETORIA DE PROJETOS DE EDIFICACOES 0,00 2.687,03 13.435,16 0,00 0,00 0,00 532,03 7.520,99 24.175,21 1.726,58 3.089,43 0,00 0,00 4.816,01 19.359,20 28/02/2022
114 193100 ALINE CRISTINA SENA OLIVEIRA OFICIAL DO MP UBERLÂNDIA - COMARCA; UBERLANDIA-PJ-03PJ 15.272,02 6.108,81 0,00 0,00 0,00 0,00 548,77 8.588,93 30.518,53 3.214,15 4.074,34 0,00 0,00 7.288,49 23.230,04 28/02/2022
115 554200 ALINE CRISTINA SILVA SOUZA OFICIAL DO MP TIROS - COMARCA; TIROS-PJ-UNPJ 6.123,79 612,38 0,00 0,00 0,00 0,00 0,00 1.717,00 8.453,17 872,76 743,08 0,00 0,00 1.615,84 6.837,33 28/02/2022
116 505500 ALINE DA CUNHA MARREIROS OLIVEIRA ANALISTA DO MP EUGENÓPOLIS - COMARCA; EUGENOPOLIS-PJ-UNPJ 10.069,62 2.013,92 0,00 0,00 0,00 0,00 0,00 3.487,60 15.571,14 1.726,58 1.926,67 0,00 0,00 3.653,25 11.917,89 28/02/2022
117 433500 ALINE DE MELO QUEIROZ ASSESSOR/OFICIAL BELO HORIZONTE - COMARCA; ASSESSORIA TECNICA DO PROCON-MG 0,00 2.079,50 10.397,52 0,00 0,00 0,00 548,99 8.591,27 21.617,28 1.494,03 2.150,96 0,00 0,00 3.644,99 17.972,29 28/02/2022
118 691100 ALINE DE MELO SOUZA ASSESSOR PROCURADOR JUSTICA BELO HORIZONTE - COMARCA; GABINETE DE PROCURADOR DE JUSTIÇA - SALA 401 0,00 0,00 7.187,72 0,00 0,00 0,00 0,00 1.717,00 8.904,72 828,38 1.208,91 0,00 0,00 2.037,29 6.867,43 28/02/2022
119 542700 ALINE DE SOUSA ALBINO ANALISTA DO MP CONTAGEM - COMARCA; CONTAGEM-PJ-09PJ 9.444,70 944,47 0,00 0,00 0,00 0,00 419,03 6.288,23 17.096,43 1.455,48 1.587,40 0,00 0,00 3.042,88 14.053,55 28/02/2022
120 330000 ALINE DIORIO MAYRINK OFICIAL DO MP BELO HORIZONTE - COMARCA; NUCLEO DE ACORDOS DE NAO PERSECUCAO PENAL BH 7.912,85 1.582,57 0,00 0,00 0,00 0,00 348,17 5.515,17 15.358,76 1.312,48 1.380,95 0,00 0,00 2.693,43 12.665,33 28/02/2022
121 499000 ALINE FERREIRA LOPES ANALISTA DO MP TEÓFILO OTONI - COMARCA; TEOFILO OTONI-PJ-09PJ 10.069,62 2.013,92 0,00 0,00 0,00 0,00 531,68 7.517,10 20.132,32 1.726,58 1.978,80 0,00 0,00 3.705,38 16.426,94 28/02/2022
122 405300 ALINE LAIA CARDOZO DIRETOR/ANALISTA BELO HORIZONTE - COMARCA; SUPERINTENDENCIA LOGISTICA SERVICOS 14.790,66 2.958,13 3.482,78 0,00 0,00 0,00 233,55 4.264,79 25.729,91 2.633,02 4.245,24 0,00 0,00 6.878,26 18.851,65 28/02/2022
123 278200 ALINE MARCIA FARIA BARBOSA FERNANDES OFICIAL DO MP BARBACENA - COMARCA; BARBACENA-PJ-SECRETARIA 7.663,37 2.299,01 0,00 0,00 0,00 0,00 365,29 5.701,95 16.029,62 1.387,19 1.332,40 0,00 0,00 2.719,59 13.310,03 28/02/2022
124 389000 ALINE NERI NOBRE ANALISTA DO MP MONTES CLAROS - COMARCA; COORD REG PJ DEF EDUC DIR CRIANCA ADOL NORTE 14.790,66 4.437,20 0,00 0,00 0,00 0,00 493,52 7.100,80 26.822,18 2.869,67 3.629,14 0,00 0,00 6.498,81 20.323,37 28/02/2022
125 294600 ALINE PATRICIA SILVA VIEIRA OFICIAL DO MP UBERLÂNDIA - COMARCA; UBERLANDIA-PJ-03PJ 11.085,56 3.325,67 0,00 0,00 0,00 0,00 1.445,27 1.717,00 17.573,50 2.099,01 2.809,68 0,00 0,00 4.908,69 12.664,81 28/02/2022
126 420000 ALINE RODRIGUES CAMOROPIN ANALISTA DO MP SABARÁ - COMARCA; SABARA-PJ-02PJ 14.324,23 2.864,85 0,00 0,00 0,00 0,00 504,21 7.217,51 24.910,80 2.543,47 3.158,18 0,00 0,00 5.701,65 19.209,15 28/02/2022
127 715800 ALINE SANTOS PEDROSA MAIA BARBOSA ASSESSOR PROCURADOR JUSTICA BELO HORIZONTE - COMARCA; GABINETE DE PROCURADOR DE JUSTIÇA - SALA 1010 0,00 0,00 7.187,72 0,00 0,00 0,00 3.354,27 2.889,45 13.431,44 828,38 2.311,03 0,00 0,00 3.139,41 10.292,03 28/02/2022
128 699600 ALINE SEPULVEDA ROSA PIRES ASSESSOR PROCURADOR JUSTICA BELO HORIZONTE - COMARCA; GABINETE DE PROCURADOR DE JUSTIÇA - SALA 905 0,00 0,00 7.187,72 0,00 0,00 0,00 0,00 1.717,00 8.904,72 828,38 1.208,91 0,00 0,00 2.037,29 6.867,43 28/02/2022
129 408300 ALINE SILVA ARAUJO DE PAULA ANALISTA DO MP SÃO SEBASTIÃO DO PARAÍSO - COMARCA; SAO SEBASTIAO DO PARAISO-PJ-02PJ 14.324,23 2.864,85 0,00 0,00 0,00 0,00 504,21 7.589,88 25.283,17 927,17 3.505,43 0,00 0,00 4.432,60 20.850,57 28/02/2022
130 425400 ALINE TRINDADE DE FREITAS CAMPOS OFICIAL DO MP BELO HORIZONTE - COMARCA; BH-14PJ DEFESA CONSUMIDOR-SECRETARIA 8.858,43 1.771,69 0,00 0,00 0,00 0,00 0,00 1.717,00 12.347,12 1.494,03 1.643,06 0,00 0,00 3.137,09 9.210,03 28/02/2022
131 517200 ALISSOM PEREIRA DA SILVA ANALISTA DO MP BORDA DA MATA - COMARCA; BORDA DA MATA-PJ-UNPJ 10.069,62 2.013,92 0,00 0,00 0,00 0,00 531,68 8.402,40 21.017,62 1.726,58 1.978,80 0,00 0,00 3.705,38 17.312,24 28/02/2022
132 442400 ALISSON LABRE ANALISTA DO MP VARGINHA - COMARCA; VARGINHA-PJ-03PJ 10.069,62 2.013,92 0,00 0,00 0,00 0,00 531,68 7.517,10 20.132,32 927,17 2.198,64 0,00 0,00 3.125,81 17.006,51 28/02/2022
133 643800 ALLAN PAUL FONSECA DE CASTRO OFICIAL DO MP CONTAGEM - COMARCA; CONTAGEM-PJ-SECRETARIA 5.217,34 521,73 0,00 0,00 0,00 0,00 0,00 2.602,30 8.341,37 721,46 510,48 0,00 0,00 1.231,94 7.109,43 28/02/2022
134 612900 ALLAN VINICIUS VIEIRA ARAUJO COORDENADOR/OFICIAL BELO HORIZONTE - COMARCA; DIRETORIA DE GESTAO DOCUMENTAL 0,00 1.343,52 13.435,16 0,00 0,00 0,00 541,88 7.628,47 22.949,03 839,85 2.963,82 0,00 0,00 3.803,67 19.145,36 28/02/2022
135 349000 ALLEC RODRIGUES VIEIRA OFICIAL DO MP BELO HORIZONTE - COMARCA; EXTINTA-COORD EST DEF DIR FAM PES DEFIC IDOSO 10.069,62 3.020,89 0,00 0,00 0,00 0,00 527,98 7.476,82 21.095,31 1.887,70 2.211,41 0,00 0,00 4.099,11 16.996,20 28/02/2022
136 297300 ALLYSON SALIBA MONTEIRO LAIZO ANALISTA DO MP CONSELHEIRO LAFAIETE - COMARCA; CONSELHEIRO LAFAIETE-PJ-03PJ 18.820,14 5.646,04 0,00 0,00 0,00 0,00 538,26 9.359,48 34.363,92 3.707,80 4.839,19 0,00 0,00 8.546,99 25.816,93 28/02/2022
137 303700 ALMIR LOPES LOURES ANALISTA DO MP BELO HORIZONTE - COMARCA; CENTRAL DE APOIO TECN-SETOR DE MEIO AMBIENTE 18.820,14 5.646,04 0,00 0,00 0,00 0,00 0,00 1.717,00 26.183,18 3.707,80 4.839,19 0,00 0,00 8.546,99 17.636,19 28/02/2022
138 696600 ALOIZIO MARTINS JALES JUNIOR ASSESSOR PROMOTOR JUSTICA CAMPESTRE - COMARCA; CAMPESTRE-PJ-SECRETARIA 0,00 0,00 7.187,72 0,00 2.395,91 0,00 131,77 3.154,54 12.869,94 828,38 1.867,78 0,00 0,00 2.696,16 10.173,78 28/02/2022
139 515900 ALTAIR NEVES JUNIOR OFICIAL DO MP BELO HORIZONTE - COMARCA; BH-01PJ FAZENDA PUBLICA-SECRETARIA 7.663,37 1.532,67 0,00 0,00 0,00 0,00 303,47 5.027,57 14.527,08 1.264,58 1.311,79 0,00 0,00 2.576,37 11.950,71 28/02/2022
140 233300 ALVARINDO BATISTA ANALISTA DO MP BELO HORIZONTE - COMARCA; NUCLEO APOIO TECNICO ESP COMUNICACAO 18.820,14 5.646,04 0,00 0,00 0,00 0,00 0,00 2.602,30 27.068,48 3.707,80 4.787,06 0,00 0,00 8.494,86 18.573,62 28/02/2022
141 274100 ALYSSON CARVALHO VIDAL DE LACERDA OFICIAL DO MP MANHUAÇU - COMARCA; MANHUACU-PJ-01PJ 10.069,62 3.020,89 0,00 0,00 0,00 0,00 527,98 7.476,82 21.095,31 1.887,70 2.211,41 0,00 0,00 4.099,11 16.996,20 28/02/2022
142 621000 AMANDA BASTOS ALVES ANALISTA DO MP BELO HORIZONTE - COMARCA; BH-07PJ 02 TRIBUNAL DO JURI-GAB 066PJ 9.146,93 914,69 0,00 0,00 0,00 0,00 0,00 1.717,00 11.778,62 927,17 1.581,27 0,00 0,00 2.508,44 9.270,18 28/02/2022
143 521700 AMANDA CRISTINA AGUIAR MACHADO OFICIAL DO MP CONGONHAS - COMARCA; CONGONHAS-PJ-01PJ 6.123,79 1.224,76 0,00 0,00 0,00 0,00 612,38 2.084,43 10.045,36 1.066,96 974,34 0,00 0,00 2.041,30 8.004,06 28/02/2022
144 713900 AMANDA DE ARAUJO CARVALHO ASSESSOR PROMOTOR JUSTICA ARAÇUAÍ - COMARCA; ARACUAI-PJ-01PJ 0,00 0,00 7.187,72 0,00 0,00 0,00 0,00 1.717,00 8.904,72 828,38 1.208,91 0,00 0,00 2.037,29 6.867,43 28/02/2022
145 613400 AMANDA DE ASSIS IUNES SANTOS ANALISTA DO MP CONGONHAS - COMARCA; CONGONHAS-PJ-01PJ 9.146,93 914,69 0,00 0,00 0,00 0,00 405,82 6.144,11 16.611,55 1.403,07 1.511,74 0,00 0,00 2.914,81 13.696,74 28/02/2022
146 695900 AMANDA DE OLIVEIRA ASSESSOR PROCURADOR JUSTICA BELO HORIZONTE - COMARCA; PROC JUST ATUACAO TRIBUNAIS SUPERIORES-GAB004 0,00 0,00 7.187,72 0,00 0,00 0,00 0,00 1.717,00 8.904,72 828,38 1.208,91 0,00 0,00 2.037,29 6.867,43 28/02/2022
147 520800 AMANDA DE SOUZA MACHADO ANALISTA DO MP BAEPENDI - COMARCA; BAEPENDI-PJ-UNPJ 10.069,62 2.013,92 0,00 0,00 335,65 0,00 1.538,64 8.040,72 21.998,55 1.887,69 2.199,44 0,00 0,00 4.087,13 17.911,42 28/02/2022
148 663900 AMANDA DENISE GONCALVES DA SILVA ASSESSOR BELO HORIZONTE - COMARCA; DIRET DE FORMACAO, APERFEIC. E POS-GRADUACAO 0,00 0,00 3.076,28 0,00 0,00 0,00 0,00 1.717,00 4.793,28 434,57 227,80 0,00 0,00 662,37 4.130,91 28/02/2022
149 677000 AMANDA LETICIA MESSIAS PEGO ASSESSOR PROMOTOR JUSTICA CORAÇÃO DE JESUS - COMARCA; CORACAO DE JESUS-PJ-UNPJ 0,00 0,00 7.187,72 0,00 0,00 0,00 0,00 1.717,00 8.904,72 828,38 1.208,91 0,00 0,00 2.037,29 6.867,43 28/02/2022
150 543100 AMANDA VIEIRA FREITAS BRESSANE ANALISTA DO MP VARGINHA - COMARCA; COORD REG DEF ORDEM ECON TRIB VARGINHA 9.444,70 944,47 0,00 0,00 0,00 0,00 0,00 1.717,00 12.106,17 1.455,48 1.587,40 0,00 0,00 3.042,88 9.063,29 28/02/2022
151 434400 AMARILIS ASSIS SIMAO CURCIO ANALISTA DO MP BELO HORIZONTE - COMARCA; DIRETORIA GESTAO COMPRAS LICITACOES 10.069,62 2.013,92 0,00 0,00 0,00 0,00 0,00 1.717,00 13.800,54 1.726,58 1.978,80 0,00 0,00 3.705,38 10.095,16 28/02/2022
152 652000 AMAURI SILVA ALVES ASSESSOR/OFICIAL BELO HORIZONTE - COMARCA; BH-23PJ INFRACIONAL-SEC EXP 0,00 817,05 8.170,49 0,00 0,00 0,00 296,59 4.952,51 14.236,64 655,50 1.421,95 0,00 0,00 2.077,45 12.159,19 28/02/2022
153 58000 AMELIA GUARIZE DE CASTRO OFICIAL DO MP JUIZ DE FORA - COMARCA; JUIZ DE FORA-PJ-SECRETARIA 6.741,63 6.741,63 0,00 0,00 0,00 1.950,54 543,82 7.649,63 23.627,25 1.950,54 2.838,54 0,00 0,00 4.789,08 18.838,17 28/02/2022
154 324301 AMERICA SUELI FERREIRA DA SILVA ANALISTA DO MP UBERLÂNDIA - COMARCA; UBERLANDIA-PJ-20PJ 10.069,62 2.013,92 0,00 0,00 0,00 0,00 0,00 1.717,00 13.800,54 1.726,58 1.926,67 0,00 0,00 3.653,25 10.147,29 28/02/2022
155 273300 AMUJACY DE BRITO ASSIZ OFICIAL DO MP BELO HORIZONTE - COMARCA; BH-12PJ JUIZO CRIMINAL-SECRETARIA 10.069,62 3.020,89 0,00 0,00 0,00 0,00 0,00 1.717,00 14.807,51 1.887,70 2.002,87 0,00 0,00 3.890,57 10.916,94 28/02/2022
156 482200 ANA ALICE LOPES ACHTSCHIN ANALISTA DO MP BELO HORIZONTE - COMARCA; PROC JUST ATUACAO TRIBUNAIS SUPERIORES-GAB002 11.085,56 2.217,11 0,00 0,00 0,00 0,00 0,00 1.717,00 15.019,67 1.921,64 2.260,42 0,00 0,00 4.182,06 10.837,61 28/02/2022
157 490400 ANA AMELIA PAULINO GARCIA OFICIAL DO MP CONTAGEM - COMARCA; CONTAGEM-PJ-SECRETARIA 7.912,85 1.582,57 0,00 0,00 0,00 0,00 0,00 2.602,30 12.097,72 1.312,48 1.328,81 0,00 0,00 2.641,29 9.456,43 28/02/2022
158 690400 ANA ANGELICA MOREIRA DA CUNHA ASSESSOR PROMOTOR JUSTICA TIMÓTEO - COMARCA; TIMOTEO-PJ-02PJ 0,00 0,00 7.187,72 0,00 0,00 0,00 131,77 3.154,54 10.474,03 828,38 1.208,91 0,00 0,00 2.037,29 8.436,74 28/02/2022
159 714900 ANA BEATRIZ LOBATO ALVES DE CARVALHO ASSESSOR PROCURADOR JUSTICA BELO HORIZONTE - COMARCA; GABINETE DE PROCURADOR DE JUSTIÇA - SALA 303 0,00 0,00 7.187,72 0,00 0,00 0,00 0,00 1.717,00 8.904,72 828,38 1.208,91 0,00 0,00 2.037,29 6.867,43 28/02/2022
160 715000 ANA CARLA RODRIGUES DE SOUZA ASSESSOR PROMOTOR JUSTICA TRÊS CORACOES - COMARCA; TRES CORACOES-PJ-01PJ 0,00 0,00 7.187,72 0,00 0,00 0,00 0,00 1.717,00 8.904,72 828,38 1.208,91 0,00 0,00 2.037,29 6.867,43 28/02/2022
161 279100 ANA CAROLINA ARAUJO PEREIRA ANALISTA DO MP BELO HORIZONTE - COMARCA; DIRETORIA DE PROJETOS DE EDIFICACOES 18.820,14 5.646,04 0,00 0,00 0,00 0,00 0,00 1.717,00 26.183,18 3.707,80 4.787,06 0,00 0,00 8.494,86 17.688,32 28/02/2022
162 653300 ANA CAROLINA CYRNE DINIZ ASSESSOR BELO HORIZONTE - COMARCA; CENTRAL DE APOIO TECNICO-SETOR CONTABIL 0,00 0,00 8.170,49 0,00 0,00 0,00 0,00 1.717,00 9.887,49 828,38 1.479,17 0,00 0,00 2.307,55 7.579,94 28/02/2022
163 359400 ANA CAROLINA DE ABREU FARIA ASSESSOR BELO HORIZONTE - COMARCA; SUPERINTENDÊNCIA DE ENGENHARIA E ARQUITETURA 0,00 0,00 10.397,52 0,00 0,00 0,00 533,74 8.424,91 19.356,17 828,38 2.039,47 0,00 0,00 2.867,85 16.488,32 28/02/2022
164 408500 ANA CAROLINA DE CASTRO CARVALHO ANALISTA DO MP BARBACENA - COMARCA; BARBACENA - SECRETARIA DAS PJS CRIMINAIS 14.324,23 2.864,85 0,00 0,00 0,00 0,00 504,21 7.217,51 24.910,80 2.543,47 3.158,18 0,00 0,00 5.701,65 19.209,15 28/02/2022
165 688000 ANA CAROLINA DE OLIVEIRA PINTO ASSESSOR PROCURADOR JUSTICA BELO HORIZONTE - COMARCA; GABINETE DE PROCURADOR DE JUSTIÇA - SALA 1014 0,00 0,00 7.187,72 0,00 0,00 0,00 0,00 1.717,00 8.904,72 828,38 1.208,91 0,00 0,00 2.037,29 6.867,43 28/02/2022
166 420200 ANA CAROLINA FERNANDES SILVA ANALISTA DO MP BELO HORIZONTE - COMARCA; GABINETE DE PROCURADOR DE JUSTIÇA - SALA 704 13.011,52 2.602,30 0,00 0,00 0,00 0,00 0,00 1.717,00 17.330,82 2.291,42 2.794,30 0,00 0,00 5.085,72 12.245,10 28/02/2022
167 522100 ANA CAROLINA FERNANDINO VIDAL PEREIRA SANTOS OFICIAL DO MP BELO HORIZONTE - COMARCA; SECRETARIA DO PROCON-MG 7.663,37 1.532,67 0,00 0,00 255,45 0,00 766,34 1.717,00 11.934,83 927,17 1.626,27 0,00 0,00 2.553,44 9.381,39 28/02/2022
168 716000 ANA CAROLINA FIGUEIREDO SILVA ASSESSOR PROCURADOR JUSTICA BELO HORIZONTE - COMARCA; PROC JUST ATUACAO TRIBUNAIS SUPERIORES-GAB001 0,00 0,00 7.187,72 0,00 0,00 0,00 1.677,13 2.617,18 11.482,03 828,38 1.774,94 0,00 0,00 2.603,32 8.878,71 28/02/2022
169 502400 ANA CAROLINA GONCALVES FERNANDES ANALISTA DO MP IPATINGA - COMARCA; IPATINGA-PJ-01PJ 10.069,62 2.013,92 0,00 0,00 0,00 0,00 531,68 9.287,70 21.902,92 927,17 2.095,59 0,00 0,00 3.022,76 18.880,16 28/02/2022
170 529900 ANA CAROLINA GONCALVES PECANHA CHEQUER ANALISTA DO MP MANHUAÇU - COMARCA; MANHUACU-PJ-04PJ 9.444,70 944,47 0,00 0,00 0,00 0,00 0,00 3.487,60 13.876,77 1.455,48 1.587,40 0,00 0,00 3.042,88 10.833,89 28/02/2022
171 711300 ANA CAROLINA MOREIRA GOMES ASSESSOR PROMOTOR JUSTICA BELO HORIZONTE - COMARCA; COORD ESTADUAL DAS PJS DE HAB. E URBANISMO 0,00 0,00 7.187,72 0,00 0,00 0,00 0,00 1.717,00 8.904,72 828,38 1.208,91 0,00 0,00 2.037,29 6.867,43 28/02/2022
172 431900 ANA CAROLINA MOTTA GUATIMOSIM ANALISTA DO MP BELO HORIZONTE - COMARCA; ASSESSORIA JURIDICO-ADMINISTRATIVA 13.011,52 2.602,30 0,00 0,00 0,00 0,00 515,26 8.223,28 24.352,36 2.291,42 2.794,30 0,00 0,00 5.085,72 19.266,64 28/02/2022
173 490600 ANA CAROLINA XAVIER GODOY ANALISTA DO MP BELO HORIZONTE - COMARCA; BH-18PJ DIREITOS HUMANOS-SECRETARIA 10.069,62 2.013,92 0,00 0,00 0,00 0,00 531,68 9.287,70 21.902,92 1.726,58 1.874,53 0,00 0,00 3.601,11 18.301,81 28/02/2022
174 600300 ANA CAROLINE PEREIRA DINIZ ANALISTA DO MP BELO HORIZONTE - COMARCA; PROC JUST ESP ACOES COMP ORIG CRIMINAL-SEC 9.444,70 944,47 0,00 0,00 0,00 0,00 419,03 7.173,53 17.981,73 1.455,48 1.587,40 0,00 0,00 3.042,88 14.938,85 28/02/2022
175 615800 ANA CAROLINE PEREIRA OLIVEIRA OFICIAL DO MP ALFENAS - COMARCA; ALFENAS-PJ-06PJ 5.930,75 593,08 0,00 0,00 0,00 0,00 71,76 2.499,86 9.095,45 839,85 693,74 0,00 0,00 1.533,59 7.561,86 28/02/2022
176 324800 ANA CECILIA MENDES DA SILVA OFICIAL DO MP OURO FINO - COMARCA; OURO FINO-PJ-01PJ 10.069,62 3.020,89 0,00 0,00 0,00 0,00 0,00 1.717,00 14.807,51 1.887,70 2.159,28 0,00 0,00 4.046,98 10.760,53 28/02/2022
177 704100 ANA CLARA MARTINS ALBUQUERQUE ASSESSOR BELO HORIZONTE - COMARCA; CAO-CRIANCAS E ADOLESCENTES-ASS TECNICA 0,00 0,00 3.076,28 0,00 0,00 0,00 0,00 1.717,00 4.793,28 434,57 227,80 0,00 0,00 662,37 4.130,91 28/02/2022
178 698700 ANA CLARA SANTOS ALMEIDA ASSESSOR PROMOTOR JUSTICA SABINÓPOLIS - COMARCA; SABINOPOLIS-PJ-UNPJ 0,00 0,00 7.187,72 0,00 0,00 0,00 0,00 1.717,00 8.904,72 828,38 1.208,91 0,00 0,00 2.037,29 6.867,43 28/02/2022
179 441300 ANA CLAUDIA ALKIMIM MIRANDA BOMTEMPO ANALISTA DO MP MONTES CLAROS - COMARCA; MONTES CLAROS-PJ-11PJ 13.011,52 2.602,30 0,00 0,00 0,00 0,00 0,00 1.717,00 17.330,82 2.291,42 2.690,02 0,00 0,00 4.981,44 12.349,38 28/02/2022
180 642500 ANA CLAUDIA DA COSTA NAVES OFICIAL DO MP MONTE CARMELO - COMARCA; MONTE CARMELO-PJ-02PJ 4.817,57 481,76 0,00 0,00 0,00 0,00 0,00 2.602,30 7.901,63 655,50 408,73 0,00 0,00 1.064,23 6.837,40 28/02/2022
181 716800 ANA CLAUDIA DOURADO MENDES ASSESSOR PROMOTOR JUSTICA ARAÇUAÍ - COMARCA; ARACUAI-PJ-02PJ 0,00 0,00 7.187,72 0,00 0,00 0,00 0,00 1.717,00 8.904,72 828,38 1.208,91 0,00 0,00 2.037,29 6.867,43 28/02/2022
182 604900 ANA CLAUDIA OLIVEIRA DE MIRANDA OFICIAL DO MP PONTE NOVA - COMARCA; PONTE NOVA-PJ-04PJ 5.562,64 556,26 0,00 0,00 0,00 0,00 0,00 1.717,00 7.835,90 778,43 547,13 0,00 0,00 1.325,56 6.510,34 28/02/2022
183 379300 ANA CRISTINA ALVES FLAVIO ANALISTA DO MP SÃO GOTARDO - COMARCA; SAO GOTARDO-PJ-01PJ 14.790,66 2.958,13 0,00 0,00 0,00 0,00 520,63 8.281,91 26.551,33 2.633,02 3.235,34 0,00 0,00 5.868,36 20.682,97 28/02/2022
184 461200 ANA CRISTINA ALVES PASCHOAL ANALISTA DO MP BELO HORIZONTE - COMARCA; BH-07PJ 03 TRIBUNAL DO JURI-GAB 064PJ 10.069,62 2.013,92 0,00 0,00 0,00 0,00 443,06 6.550,42 19.077,02 1.726,58 1.926,67 0,00 0,00 3.653,25 15.423,77 28/02/2022
185 514100 ANA CRISTINA ARAUJO ASSUNCAO ANALISTA DO MP BELO HORIZONTE - COMARCA; ASSESS JUR DO CONS SUPERIOR DO MINISTERIO PUB 10.069,62 2.013,92 0,00 0,00 0,00 0,00 531,68 8.402,40 21.017,62 1.726,58 1.926,67 0,00 0,00 3.653,25 17.364,37 28/02/2022
186 113401 ANA CRISTINA BRAGA ALBUQUERQUE ASSESSOR BELO HORIZONTE - COMARCA; DIRETORIA-GERAL 0,00 0,00 17.413,92 0,00 0,00 0,00 0,00 1.198,00 18.611,92 828,38 4.021,11 0,00 0,00 4.849,49 13.762,43 28/02/2022
187 233800 ANA CRISTINA BRAGA SOARES OFICIAL DO MP CONTAGEM - COMARCA; CONTAGEM-PJ-SECRETARIA 11.819,15 3.545,75 0,00 0,00 0,00 0,00 0,00 1.717,00 17.081,90 2.251,60 2.632,52 0,00 0,00 4.884,12 12.197,78 28/02/2022
188 186400 ANA CRISTINA DE AZEVEDO LOPES OFICIAL DO MP UBÁ - COMARCA; UBA-PJ-01PJ 15.272,02 6.108,81 0,00 0,00 0,00 0,00 548,77 7.703,63 29.633,23 3.214,15 4.126,48 0,00 0,00 7.340,63 22.292,60 28/02/2022
189 693000 ANA CRISTINA DE MELO SILVEIRA ASSESSOR PROCURADOR JUSTICA BELO HORIZONTE - COMARCA; COORD DE CONTROLE CONSTITUCIONALIDADE 0,00 0,00 7.187,72 0,00 0,00 0,00 0,00 2.602,30 9.790,02 828,38 1.208,91 0,00 0,00 2.037,29 7.752,73 28/02/2022
190 465100 ANA CRISTINA DE OLIVEIRA GUIMARAES ANALISTA DO MP ITAJUBA - COMARCA; ITAJUBA-PJ-05PJ 10.069,62 2.013,92 0,00 0,00 0,00 0,00 531,68 8.402,40 21.017,62 1.726,58 1.874,53 0,00 0,00 3.601,11 17.416,51 28/02/2022
191 500600 ANA CRISTINA LATADO SUDARIO ANALISTA DO MP UBERLÂNDIA - COMARCA; UBERLANDIA-PJ-09PJ 10.069,62 2.013,92 0,00 0,00 0,00 0,00 0,00 1.717,00 13.800,54 1.726,58 1.978,80 0,00 0,00 3.705,38 10.095,16 28/02/2022
192 331400 ANA CRISTINA RIBEIRO ALVES OFICIAL DO MP BAMBUÍ - COMARCA; BAMBUI-PJ-UNPJ 10.069,62 3.020,89 0,00 0,00 0,00 0,00 527,98 7.476,82 21.095,31 1.887,70 2.159,28 0,00 0,00 4.046,98 17.048,33 28/02/2022
193 249300 ANA ELOINA MARTINS OFICIAL DO MP BETIM - COMARCA; BETIM-PJ-02PJ 13.011,52 5.204,61 0,00 0,00 0,00 0,00 534,34 7.546,16 26.296,63 2.707,79 3.395,43 0,00 0,00 6.103,22 20.193,41 28/02/2022
194 257400 ANA FLAVIA CAMBRAIA ANALISTA DO MP BELO HORIZONTE - COMARCA; BH-19PJ SAUDE-SECRETARIA 150PJ 18.820,14 5.646,04 0,00 0,00 0,00 0,00 538,26 7.588,88 32.593,32 3.707,80 4.787,06 0,00 0,00 8.494,86 24.098,46 28/02/2022
195 248201 ANA FLAVIA DE MORAIS SOUZA ANALISTA DO MP DIVINÓPOLIS - COMARCA; DIVINOPOLIS-PJ-01PJ 11.085,56 3.325,67 0,00 0,00 0,00 0,00 528,41 8.366,79 23.306,43 2.099,01 2.412,23 0,00 0,00 4.511,24 18.795,19 28/02/2022
196 621100 ANA FLAVIA DINIZ TEODORO OFICIAL DO MP SANTA LUZIA - COMARCA; SANTA LUZIA-PJ-06PJ 5.930,75 593,08 0,00 0,00 0,00 0,00 0,00 1.717,00 8.240,83 839,85 693,74 0,00 0,00 1.533,59 6.707,24 28/02/2022
197 238600 ANA FLAVIA FRANCO OFICIAL DO MP BELO HORIZONTE - COMARCA; DIRETORIA DE PESSOAL ADMINISTRATIVO - DPAD 14.324,23 4.297,27 0,00 0,00 0,00 0,00 546,23 7.675,88 26.843,61 2.772,65 3.489,07 0,00 0,00 6.261,72 20.581,89 28/02/2022
198 690000 ANA FLAVIA LURIAN DE PAIVA ASSESSOR PROCURADOR JUSTICA BELO HORIZONTE - COMARCA; GABINETE DE PROCURADOR DE JUSTIÇA - SALA 609 0,00 0,00 7.187,72 0,00 0,00 0,00 0,00 1.717,00 8.904,72 828,38 1.208,91 0,00 0,00 2.037,29 6.867,43 28/02/2022
199 402900 ANA FLAVIA PORTES DE CARVALHO ANALISTA DO MP BELO HORIZONTE - COMARCA; DIRET DE PLANOS PROJETOS E PROGRAMAS INST 14.790,66 2.958,13 0,00 0,00 0,00 0,00 520,63 7.396,61 25.666,03 2.633,02 3.235,34 0,00 0,00 5.868,36 19.797,67 28/02/2022
200 382700 ANA KARENINA SALDANHA GONTIJO ANALISTA DO MP BELO HORIZONTE - COMARCA; ASSESS TECNICO-JUR JUNTO AS PROC. DE JUST 14.324,23 2.864,85 0,00 0,00 5.729,69 0,00 0,00 2.551,01 25.469,78 2.543,47 4.733,85 0,00 0,00 7.277,32 18.192,46 28/02/2022
201 620500 ANA KARINE DE ANDRADE OLIVEIRA ANALISTA DO MP RIBEIRÃO DAS NEVES - COMARCA; RIBEIRAO NEVES-SEC PJ EXECUCAO PENAL 8.436,53 843,65 0,00 0,00 0,00 0,00 306,25 5.057,86 14.644,29 1.278,04 1.331,23 0,00 0,00 2.609,27 12.035,02 28/02/2022
202 462200 ANA LUCIA ANDRADE TOMICH OTTONI ANALISTA DO MP TEÓFILO OTONI - COMARCA; TEOFILO OTONI-PJ-07PJ 10.069,62 2.013,92 0,00 0,00 0,00 0,00 0,00 2.884,41 14.967,95 1.726,58 1.874,53 0,00 0,00 3.601,11 11.366,84 28/02/2022
203 504100 ANA LUCIA CATAO DE CARVALHO OFICIAL DO MP BELO HORIZONTE - COMARCA; DIR RELACOES INSTITUCIONAIS 7.912,85 1.582,57 0,00 0,00 3.165,14 0,00 0,00 1.717,00 14.377,56 1.312,48 2.199,22 0,00 0,00 3.511,70 10.865,86 28/02/2022
204 274700 ANA LUCIA DE ALENCAR BRAGATO OFICIAL DO MP UBERABA - COMARCA; UBERABA-PJ-07PJ 10.069,62 3.020,89 0,00 0,00 0,00 0,00 527,98 7.476,82 21.095,31 1.887,70 2.211,41 0,00 0,00 4.099,11 16.996,20 28/02/2022
205 509400 ANA LUCIA DORNELAS MALLOSTO ANALISTA DO MP JUIZ DE FORA - COMARCA; JUIZ DE FORA-PJ-25PJ 10.069,62 2.013,92 0,00 0,00 4.027,85 0,00 531,68 7.517,10 24.160,17 1.726,58 3.034,33 0,00 0,00 4.760,91 19.399,26 28/02/2022
206 302600 ANA LUCIA LOPES SANTOS OFICIAL DO MP BELO HORIZONTE - COMARCA; DIVISÃO DE FISCALIZAÇÃO DAS RELAÇÕES DE CONSU 10.069,62 3.020,89 0,00 0,00 0,00 0,00 1.445,27 1.717,00 16.252,78 1.887,70 2.556,73 0,00 0,00 4.444,43 11.808,35 28/02/2022
207 716700 ANA LUISA DE LANA COELHO ASSESSOR PROCURADOR JUSTICA BELO HORIZONTE - COMARCA; GABINETE DE PROCURADOR DE JUSTIÇA - SALA 715 0,00 0,00 7.187,72 0,00 0,00 0,00 239,59 2.290,45 9.717,76 828,38 1.289,77 0,00 0,00 2.118,15 7.599,61 28/02/2022
208 702000 ANA LUISA DE OLIVEIRA RIBEIRO ASSESSOR PROCURADOR JUSTICA BELO HORIZONTE - COMARCA; ASSESS TECNICO-JUR JUNTO AS PROC. DE JUST 0,00 0,00 7.187,72 0,00 0,00 0,00 0,00 1.717,00 8.904,72 828,38 1.208,91 0,00 0,00 2.037,29 6.867,43 28/02/2022
209 493400 ANA LUISA NOGUEIRA MOREIRA ANALISTA DO MP BELO HORIZONTE - COMARCA; BH-19PJ SAUDE-SECRETARIA 130PJ 10.069,62 2.013,92 0,00 0,00 0,00 0,00 0,00 1.717,00 13.800,54 1.726,58 1.978,80 0,00 0,00 3.705,38 10.095,16 28/02/2022
210 389300 ANA LUISA REUTER LIMA ASSESSOR/ANALISTA BELO HORIZONTE - COMARCA; DIRETORIA DE SISTEMAS DE INFORMACAO 14.790,66 2.958,13 2.687,03 0,00 6.811,94 0,00 0,00 1.717,00 28.964,76 2.633,02 5.899,69 0,00 0,00 8.532,71 20.432,05 28/02/2022
211 480600 ANA LUIZA FERNANDES FRAGA E GRECO COORDENADOR/OFICIAL BELO HORIZONTE - COMARCA; OUVIDORIA DO MPMG 0,00 2.363,83 11.819,15 0,00 0,00 0,00 520,04 7.390,19 22.093,21 1.264,58 2.683,20 0,00 0,00 3.947,78 18.145,43 28/02/2022
212 517800 ANA LUIZA MAGALHAES CIRINO PIOTO DE MELO OFICIAL DO MP BELO HORIZONTE - COMARCA; SUPER DE GESTAO DE PESSOAS-LOTACAO TEMPORARIA 5.387,19 538,72 0,00 0,00 1.975,30 0,00 0,00 3.487,60 11.388,81 749,48 1.097,36 0,00 0,00 1.846,84 9.541,97 28/02/2022
213 481400 ANA MARCIA CANDIDA FERREIRA OFICIAL DO MP BRUMADINHO - COMARCA; BRUMADINHO-PJ-02PJ 6.123,79 1.224,76 0,00 0,00 0,00 0,00 134,72 3.186,71 10.669,98 968,98 885,02 0,00 0,00 1.854,00 8.815,98 28/02/2022
214 716200 ANA MARIA COUTO GONTIJO ASSESSOR PROCURADOR JUSTICA BELO HORIZONTE - COMARCA; GABINETE DE PROCURADOR DE JUSTIÇA - SALA 1014 0,00 0,00 7.187,72 0,00 0,00 0,00 1.437,54 2.562,73 11.187,99 828,38 1.694,08 0,00 0,00 2.522,46 8.665,53 28/02/2022
215 643100 ANA MARIA LOPES MIRANDA ANALISTA DO MP BELO HORIZONTE - COMARCA; CAO-FUNDACOES 8.170,49 817,05 0,00 0,00 0,00 0,00 0,00 2.602,30 11.589,84 927,17 1.268,85 0,00 0,00 2.196,02 9.393,82 28/02/2022
216 556400 ANA MARIA OLIVEIRA SOUZA OFICIAL DO MP ITAPECERICA - COMARCA; ITAPECERICA-PJ-UNPJ 6.123,79 612,38 0,00 0,00 0,00 0,00 0,00 1.717,00 8.453,17 872,76 743,08 0,00 0,00 1.615,84 6.837,33 28/02/2022
217 409600 ANA OLIVIA FARIA ROSENBURG ANALISTA DO MP BELO HORIZONTE - COMARCA; DIRETORIA DO COLEGIO E DA CAMARA DE PJ 14.324,23 4.297,27 0,00 0,00 0,00 0,00 584,40 3.206,72 22.412,62 2.772,65 3.612,23 0,00 0,00 6.384,88 16.027,74 28/02/2022
218 461500 ANA PAULA ALVES CARVALHO ANALISTA DO MP UBERLÂNDIA - COMARCA; UBERLANDIA-PJ-25PJ 10.069,62 2.013,92 0,00 0,00 0,00 0,00 443,06 6.550,42 19.077,02 1.726,58 1.874,53 0,00 0,00 3.601,11 15.475,91 28/02/2022
219 523200 ANA PAULA ALVES DA SILVA OFICIAL DO MP GOVERNADOR VALADARES - COMARCA; GOVERNADOR VALADARES-PJ-10PJ 7.663,37 1.532,67 0,00 0,00 3.065,35 0,00 1.305,84 11.143,67 24.710,90 927,17 2.294,72 0,00 0,00 3.221,89 21.489,01 28/02/2022
220 381200 ANA PAULA BARROS PEREIRA RIGHI ANALISTA DO MP BELO HORIZONTE - COMARCA; PROC JUST ATUACAO TRIBUNAIS SUPERIORES-GAB003 14.790,66 2.958,13 0,00 0,00 0,00 0,00 0,00 2.602,30 20.351,09 927,17 3.484,55 0,00 0,00 4.411,72 15.939,37 28/02/2022
221 696400 ANA PAULA CARVALHO SILVA ASSESSOR PROMOTOR JUSTICA PERDÕES - COMARCA; PERDOES-PJ-UNPJ 0,00 0,00 7.187,72 0,00 0,00 0,00 0,00 2.602,30 9.790,02 828,38 1.156,77 0,00 0,00 1.985,15 7.804,87 28/02/2022
222 700900 ANA PAULA CRAVO SALOME ASSESSOR BELO HORIZONTE - COMARCA; PROCURADOR-GERAL DE JUSTIÇA 0,00 0,00 3.076,28 0,00 0,00 0,00 0,00 1.717,00 4.793,28 434,57 227,80 0,00 0,00 662,37 4.130,91 28/02/2022
223 227200 ANA PAULA DA SILVA CAMPOLINA ANALISTA DO MP BELO HORIZONTE - COMARCA; DIRETORIA DE ORCAMENTO-DIOR/SPC 18.820,14 9.410,07 0,00 0,00 0,00 0,00 517,55 7.363,04 36.110,80 4.310,05 5.708,68 0,00 0,00 10.018,73 26.092,07 28/02/2022
224 278500 ANA PAULA DIAS CAPANEMA OFICIAL DO MP BELO HORIZONTE - COMARCA; DIRETORIA DE SEGURANCA 10.069,62 3.020,89 0,00 0,00 0,00 0,00 527,98 7.476,82 21.095,31 1.887,70 2.211,41 0,00 0,00 4.099,11 16.996,20 28/02/2022
225 327300 ANA PAULA GARCIA MAXIMO OFICIAL DO MP UNAÍ - COMARCA; UNAI-PJ-01PJ 12.204,02 4.881,61 0,00 0,00 0,00 0,00 501,18 7.184,40 24.771,21 2.526,91 2.977,87 0,00 0,00 5.504,78 19.266,43 28/02/2022
226 270000 ANA PAULA GOULART CRUZ DE MAGALHAES ANALISTA DO MP BELO HORIZONTE - COMARCA; ASSESSORIA ESPECIAL DO PGJ 18.820,14 5.646,04 0,00 0,00 0,00 0,00 538,26 7.588,88 32.593,32 3.707,80 4.839,19 0,00 0,00 8.546,99 24.046,33 28/02/2022
227 262100 ANA PAULA KOMATSUZAKI ABIJAUDI ANALISTA DO MP BELO HORIZONTE - COMARCA; BH-17PJ PATRIMONIO PUBLICO-SECRETARIA 18.820,14 7.528,06 0,00 0,00 0,00 0,00 0,00 1.717,00 28.065,20 4.008,93 5.169,67 0,00 0,00 9.178,60 18.886,60 28/02/2022
228 278900 ANA PAULA MOREIRA GURGEL COORDENADOR/ANALISTA BELO HORIZONTE - COMARCA; ASSESSORIA JURIDICO-ADMINISTRATIVA 18.820,14 7.528,06 3.482,78 0,00 0,00 0,00 942,40 7.683,20 38.456,58 4.008,93 6.231,70 0,00 0,00 10.240,63 28.215,95 28/02/2022
229 425701 ANA PAULA ROCHA ANALISTA DO MP BELO HORIZONTE - COMARCA; ASSESSORIA DE COMUNICACAO INTEGRADA 9.146,93 914,69 0,00 0,00 0,00 0,00 0,00 2.602,30 12.663,92 1.403,07 1.511,74 0,00 0,00 2.914,81 9.749,11 28/02/2022
230 395601 ANA PAULA SALGE OLIVEIRA ANALISTA DO MP UBERABA - COMARCA; UBERABA-PJ-15PJ 10.069,62 3.020,89 0,00 0,00 0,00 0,00 527,98 7.476,82 21.095,31 1.887,70 2.211,41 0,00 0,00 4.099,11 16.996,20 28/02/2022
231 473200 ANA PAULA SCOTTON BRASIL ANALISTA DO MP JUIZ DE FORA - COMARCA; JUIZ DE FORA-PJ-07PJ 10.069,62 2.013,92 0,00 0,00 0,00 0,00 531,68 8.325,46 20.940,68 1.726,58 1.978,80 0,00 0,00 3.705,38 17.235,30 28/02/2022
232 633600 ANA PAULA SILVA FERNANDES OFICIAL DO MP CATAGUASES - COMARCA; CATAGUASES-PJ-04PJ 5.387,19 538,72 0,00 0,00 0,00 0,00 0,00 1.717,00 7.642,91 749,48 554,16 0,00 0,00 1.303,64 6.339,27 28/02/2022
233 470900 ANA PAULA VALADARES ANALISTA DO MP PITANGUI - COMARCA; PITANGUI-PJ-01PJ 10.069,62 2.013,92 0,00 0,00 0,00 0,00 0,00 1.717,00 13.800,54 1.726,58 1.874,53 0,00 0,00 3.601,11 10.199,43 28/02/2022
234 447000 ANA PAULA VALENTIM DE ARAUJO ANALISTA DO MP BELO HORIZONTE - COMARCA; PROC JUST ESP ACOES COMP ORIG CRIMINAL-ASSESS 10.736,08 2.147,22 0,00 0,00 0,00 0,00 0,00 1.717,00 14.600,30 1.854,54 2.163,55 0,00 0,00 4.018,09 10.582,21 28/02/2022
235 604200 ANA PAULA VIANA E SILVA OFICIAL DO MP BELO HORIZONTE - COMARCA; BH-17PJ PATRIMONIO PUBLICO-SECRETARIA 6.123,79 612,38 0,00 0,00 0,00 0,00 0,00 1.717,00 8.453,17 872,76 743,08 0,00 0,00 1.615,84 6.837,33 28/02/2022
236 505400 ANA PAULA VIEIRA SOUTO OFICIAL DO MP ALMENARA - COMARCA; ALMENARA-PJ-01PJ 6.123,79 1.837,14 0,00 0,00 0,00 0,00 0,00 1.717,00 9.677,93 1.066,96 974,34 0,00 0,00 2.041,30 7.636,63 28/02/2022
237 280200 ANA RACHEL BRANDAO LADEIRA ROLAND DIRETOR/ANALISTA BELO HORIZONTE - COMARCA; SUPERINTENDENCIA GESTÃO DE PESSOAS 18.103,37 5.431,01 3.482,78 0,00 0,00 0,00 0,00 1.717,00 28.734,16 3.558,71 5.581,71 0,00 0,00 9.140,42 19.593,74 28/02/2022
238 691000 ANA RACHEL DOS REIS E SENA COSTA ASSESSOR PROMOTOR JUSTICA BELO HORIZONTE - COMARCA; GABINETE DE PROCURADOR DE JUSTIÇA - SALA 601 0,00 0,00 7.187,72 0,00 0,00 0,00 0,00 1.717,00 8.904,72 828,38 1.208,91 0,00 0,00 2.037,29 6.867,43 28/02/2022
239 601200 ANA REGINA RIBEIRO COORDENADOR/ANALISTA BELO HORIZONTE - COMARCA; DIV FISCAL ADM CONT TERCEIRIZACAO 0,00 1.181,92 11.819,15 0,00 0,00 0,00 524,38 7.437,47 20.962,92 927,17 2.382,86 0,00 0,00 3.310,03 17.652,89 28/02/2022
240 384700 ANA RODRIGUES PEREIRA MARRA ANALISTA DO MP COROMANDEL - COMARCA; COROMANDEL-PJ-01PJ 10.069,62 2.013,92 0,00 0,00 0,00 0,00 531,68 8.402,40 21.017,62 1.726,58 1.874,53 0,00 0,00 3.601,11 17.416,51 28/02/2022
241 232700 ANA SILVIA SEMBLANO NAKAMURA ASSESSOR/OFICIAL BELO HORIZONTE - COMARCA; CENT DE APOIO TEC-SETOR DEF,IDOSO E INFANC 0,00 3.119,26 10.397,52 0,00 0,00 0,00 545,18 7.664,38 21.726,34 1.887,70 2.328,64 0,00 0,00 4.216,34 17.510,00 28/02/2022
242 602100 ANACLETO FRANCISCO MARCIER PIMENTA OFICIAL DO MP SÃO JOÃO DEL REI - COMARCA; SAO JOAO DEL REI-PJ-03PJ 5.562,64 556,26 0,00 0,00 2.039,63 0,00 0,00 1.717,00 9.875,53 778,43 899,48 0,00 0,00 1.677,91 8.197,62 28/02/2022
243 310400 ANADEJE DO CARMO DINIZ ARAUJO OFICIAL DO MP BELO HORIZONTE - COMARCA; DIRETORIA DE PESSOAL ADMINISTRATIVO - DPAD 10.069,62 3.020,89 0,00 0,00 0,00 0,00 0,00 1.717,00 14.807,51 1.887,70 2.211,41 0,00 0,00 4.099,11 10.708,40 28/02/2022
244 337000 ANAILDES MARIA MENDES OFICIAL DO MP JANAÚBA - COMARCA; JANAUBA-PJ-02PJ 10.069,62 3.020,89 0,00 0,00 0,00 0,00 527,98 8.362,12 21.980,61 1.887,70 2.211,41 0,00 0,00 4.099,11 17.881,50 28/02/2022
245 192900 ANATALIA CERQUEIRA LIMA PERES OFICIAL DO MP UBERABA - COMARCA; COORD REG SAUDE MACROR SANIT TRIANGULO SUL 11.446,46 4.578,58 0,00 0,00 0,00 0,00 0,00 1.717,00 17.742,04 2.357,22 2.889,29 0,00 0,00 5.246,51 12.495,53 28/02/2022
246 377400 ANDEIRSON DA MATTA BARBOSA ANALISTA DO MP POUSO ALEGRE - COMARCA; POUSO ALEGRE-PJ-01PJ 10.069,62 2.013,92 0,00 0,00 0,00 0,00 531,68 8.402,40 21.017,62 1.726,58 1.978,80 0,00 0,00 3.705,38 17.312,24 28/02/2022
247 317400 ANDERSON DA SILVA BICALHO OFICIAL DO MP CONTAGEM - COMARCA; CONTAGEM-PJ-SECRETARIA 9.444,70 2.833,41 0,00 0,00 0,00 0,00 0,00 1.717,00 13.995,11 1.757,71 1.867,34 0,00 0,00 3.625,05 10.370,06 28/02/2022
248 506900 ANDERSON DE SOUZA DAMIANI ANALISTA DO MP BELO HORIZONTE - COMARCA; DIRETORIA DE PAGAMENTO DE PESSOAL-DPAG 10.069,62 3.020,89 0,00 0,00 0,00 0,00 0,00 1.717,00 14.807,51 1.887,70 2.107,14 0,00 0,00 3.994,84 10.812,67 28/02/2022
249 410000 ANDERSON DE SOUZA NETO ASSESSOR BELO HORIZONTE - COMARCA; DIRETORIA DE ADMINISTRACAO FINANCEIRA 0,00 0,00 5.136,32 0,00 0,00 0,00 0,00 1.717,00 6.853,32 828,38 644,77 0,00 0,00 1.473,15 5.380,17 28/02/2022
250 181900 ANDERSON FLAVIO DE OLIVEIRA OFICIAL DO MP ITAGUARA - COMARCA; ITAGUARA-PJ-SECRETARIA 14.324,23 5.729,69 0,00 0,00 0,00 0,00 0,00 1.717,00 21.770,92 3.001,84 3.819,96 0,00 0,00 6.821,80 14.949,12 28/02/2022
251 333200 ANDERSON JOSE DE FREITAS OFICIAL DO MP IPATINGA - COMARCA; IPATINGA-PJ-04PJ 10.069,62 3.020,89 0,00 0,00 0,00 0,00 1.978,25 8.416,61 23.485,37 1.887,70 2.452,45 0,00 0,00 4.340,15 19.145,22 28/02/2022
252 699400 ANDERSON LUIZ CABRAL ASSESSOR PROMOTOR JUSTICA ALÉM PARAÍBA - COMARCA; ALEM PARAIBA-PJ-03PJ 0,00 0,00 7.187,72 0,00 0,00 0,00 0,00 1.717,00 8.904,72 828,38 1.208,91 0,00 0,00 2.037,29 6.867,43 28/02/2022
253 462100 ANDERSON LUIZ GUIMARAES CARDOSO ANALISTA DO MP BARBACENA - COMARCA; BARBACENA-PJ-02PJ 11.085,56 2.217,11 0,00 0,00 0,00 0,00 536,54 7.570,17 21.409,38 1.921,64 2.260,42 0,00 0,00 4.182,06 17.227,32 28/02/2022
254 429700 ANDERSON MELO DE SOUZA ASSESSOR/OFICIAL BELO HORIZONTE - COMARCA; DIRET DE ESTAGIOS E CONVENIOS ACADEMICOS 0,00 2.079,50 10.397,52 0,00 0,00 0,00 548,99 7.705,97 20.731,98 968,98 2.295,35 0,00 0,00 3.264,33 17.467,65 28/02/2022
255 545600 ANDERSON MENDES PROCOPIO FERREIRA ANALISTA DO MP BELO HORIZONTE - COMARCA; BH-12PJ JUIZO CRIMINAL-GAB 089PJ 9.444,70 944,47 0,00 0,00 0,00 0,00 419,03 6.288,23 17.096,43 1.455,48 1.587,40 0,00 0,00 3.042,88 14.053,55 28/02/2022
256 519900 ANDERSON MOREIRA DOEHLER ANALISTA DO MP TEÓFILO OTONI - COMARCA; COORD REG SAUDE MACRORREGIAO SANIT NORDESTE 10.069,62 3.020,89 0,00 0,00 0,00 0,00 0,00 1.717,00 14.807,51 1.887,70 2.211,41 0,00 0,00 4.099,11 10.708,40 28/02/2022
257 103000 ANDERSON TADEU DE DEUS ASSESSOR BELO HORIZONTE - COMARCA; BH-26 CRIME CONT CRIAN ADOL-SECRETARIA 0,00 3.595,42 5.136,32 0,00 0,00 0,00 0,00 1.717,00 10.448,74 828,38 1.633,51 0,00 0,00 2.461,89 7.986,85 28/02/2022
258 309200 ANDITYAS SOARES DE MOURA COSTA MATOS ANALISTA DO MP BELO HORIZONTE - COMARCA; GABINETE DE PROCURADOR DE JUSTIÇA - SALA 909 15.272,02 4.581,61 0,00 0,00 0,00 0,00 0,00 1.717,00 21.570,63 2.969,79 3.773,69 0,00 0,00 6.743,48 14.827,15 28/02/2022
259 519200 ANDRE BORJA LANA ANALISTA DO MP BELO HORIZONTE - COMARCA; DIR CONTEUDO JORNALISTICO 10.069,62 2.013,92 0,00 0,00 0,00 0,00 840,19 7.517,10 20.440,83 1.726,58 1.978,80 0,00 0,00 3.705,38 16.735,45 28/02/2022
260 637200 ANDRE FERNANDES DA CUNHA OFICIAL DO MP MORADA NOVA DE MINAS - COMARCA; MORADA NOVA DE MINAS-PJ-UNPJ 5.387,19 538,72 0,00 0,00 0,00 0,00 0,00 1.717,00 7.642,91 749,48 554,16 0,00 0,00 1.303,64 6.339,27 28/02/2022
261 651500 ANDRE GONCALVES MARANHAO OFICIAL DO MP JACINTO - COMARCA; JACINTO-PJ-SECRETARIA 4.817,57 481,76 0,00 0,00 0,00 0,00 0,00 1.717,00 7.016,33 655,50 408,73 0,00 0,00 1.064,23 5.952,10 28/02/2022
262 521900 ANDRE LUIS GOMES SILVA ANALISTA DO MP FORMIGA - COMARCA; FORMIGA-PJ-02PJ 10.069,62 2.013,92 0,00 0,00 0,00 0,00 1.538,64 9.811,32 23.433,50 1.887,69 1.661,88 0,00 0,00 3.549,57 19.883,93 28/02/2022
263 304300 ANDRE LUIZ AVELAR ANALISTA DO MP BELO HORIZONTE - COMARCA; DIRETORIA DE REDES E BANCOS DE DADOS 8.436,53 2.530,96 0,00 0,00 0,00 0,00 0,00 1.717,00 12.684,49 1.548,01 1.668,86 0,00 0,00 3.216,87 9.467,62 28/02/2022
264 397400 ANDRE PATARO MYRRHA DE PAULA E SILVA ANALISTA DO MP BELO HORIZONTE - COMARCA; ASSESSORIA JURIDICO-ADMINISTRATIVA 14.790,66 2.958,13 0,00 0,00 0,00 0,00 455,55 7.571,96 25.776,30 2.633,02 3.287,48 0,00 0,00 5.920,50 19.855,80 28/02/2022
265 650100 ANDRE THOME VARGAS OFICIAL DO MP LEOPOLDINA - COMARCA; LEOPOLDINA-PJ-04PJ 5.217,34 521,73 0,00 0,00 0,00 0,00 0,00 1.717,00 7.456,07 721,46 510,48 0,00 0,00 1.231,94 6.224,13 28/02/2022
266 548500 ANDRE VINICIUS CARVALHO MEIRA ANALISTA DO MP JUIZ DE FORA - COMARCA; JUIZ DE FORA-PJ-24PJ 9.444,70 944,47 0,00 0,00 0,00 0,00 0,00 1.717,00 12.106,17 927,17 1.664,59 0,00 0,00 2.591,76 9.514,41 28/02/2022
267 297200 ANDRE WILLE ROSARIO ANALISTA DO MP BELO HORIZONTE - COMARCA; ASSESSORIA ESPECIAL DO PGJ 18.103,37 5.431,01 0,00 0,00 0,00 0,00 517,76 7.365,25 31.417,39 3.558,71 4.519,67 0,00 0,00 8.078,38 23.339,01 28/02/2022
268 423600 ANDREA COSTA GUALBERTO ALVES ANALISTA DO MP GOVERNADOR VALADARES - COMARCA; COORD REG PJ DEF EDU DIR CRIANCA ADOL RIODOCE 13.011,52 9.108,06 0,00 0,00 0,00 0,00 0,00 1.717,00 23.836,58 3.332,35 4.244,99 0,00 0,00 7.577,34 16.259,24 28/02/2022
269 467300 ANDREA DE CASSIA PENNA ALVERNAZ ANALISTA DO MP PONTE NOVA - COMARCA; PONTE NOVA-PJ-01PJ 10.069,62 2.013,92 0,00 0,00 0,00 0,00 44,31 2.200,34 14.328,19 1.726,58 1.926,67 0,00 0,00 3.653,25 10.674,94 28/02/2022
270 308000 ANDREA DE CASSIA SANTOS OLIVEIRA ANALISTA DO MP BELO HORIZONTE - COMARCA; COORD DE GABINETE DO PGJ 17.413,92 5.224,18 0,00 0,00 0,00 0,00 2.199,83 7.150,14 31.988,07 3.415,31 4.783,50 0,00 0,00 8.198,81 23.789,26 28/02/2022
271 349500 ANDREA DE OLIVEIRA LOIOLA REGIS OFICIAL DO MP IGUATAMA - COMARCA; IGUATAMA-PJ-UNPJ 10.069,62 3.020,89 0,00 0,00 0,00 0,00 0,00 1.717,00 14.807,51 1.887,70 2.159,28 0,00 0,00 4.046,98 10.760,53 28/02/2022
272 287900 ANDREA FERNANDES PENA MARTINS OFICIAL DO MP MONTES CLAROS - COMARCA; MONTES CLAROS-PJ-09PJ 10.069,62 3.020,89 0,00 0,00 0,00 0,00 527,98 7.476,82 21.095,31 1.887,70 2.107,14 0,00 0,00 3.994,84 17.100,47 28/02/2022
273 300800 ANDREA FERREIRA ANALISTA DO MP LAVRAS - COMARCA; LAVRAS-PJ-04PJ 16.750,82 5.025,25 0,00 0,00 0,00 0,00 0,00 1.717,00 23.493,07 3.277,38 4.217,78 0,00 0,00 7.495,16 15.997,91 28/02/2022
274 395100 ANDREA LANNA MENDES NOVAIS ANALISTA DO MP BELO HORIZONTE - COMARCA; PROMOT ESTADUAL DE DEF PATRI CULT E TUR DE MG 14.790,66 2.958,13 0,00 0,00 0,00 0,00 0,00 1.717,00 19.465,79 2.633,02 3.183,20 0,00 0,00 5.816,22 13.649,57 28/02/2022
275 67300 ANDREA LEAO MAGALHAES ROQUE ASSESSOR BELO HORIZONTE - COMARCA; COORD ESTADUAL COMBATE CRIMES CIBERNETICOS 0,00 7.278,26 10.397,52 0,00 0,00 0,00 0,00 1.717,00 19.392,78 828,38 4.040,99 0,00 0,00 4.869,37 14.523,41 28/02/2022
276 335700 ANDREA LOPES PEREIRA ANALISTA DO MP GOVERNADOR VALADARES - COMARCA; COORD REG DO MA DA BACIA DO RIO DOCE 17.413,92 5.224,18 0,00 0,00 7.546,03 0,00 498,04 7.150,14 37.832,31 3.415,31 6.492,07 0,00 0,00 9.907,38 27.924,93 28/02/2022
277 389200 ANDREA TUPINI DOS SANTOS TRISTAO DA ROCHA COORDENADOR/OFICIAL BELO HORIZONTE - COMARCA; BH-13ª PJ JUÍZO DE TÓXICOS-SECRETARIA 0,00 2.363,83 11.819,15 0,00 0,00 2.062,49 0,00 1.717,00 17.962,47 2.062,49 3.030,96 0,00 0,00 5.093,45 12.869,02 28/02/2022
278 419000 ANDREIA BARBOSA DE ALMEIDA ANALISTA DO MP BELO HORIZONTE - COMARCA; GABINETE DE PROCURADOR DE JUSTIÇA - SALA 705 13.011,52 2.602,30 0,00 0,00 0,00 0,00 515,26 7.337,98 23.467,06 2.291,42 2.794,30 0,00 0,00 5.085,72 18.381,34 28/02/2022
279 281501 ANDREIA CARLA COSTA ANALISTA DO MP UBÁ - COMARCA; UBA-PJ-02PJ 14.324,23 2.864,85 0,00 0,00 0,00 0,00 504,21 7.217,51 24.910,80 2.543,47 3.158,18 0,00 0,00 5.701,65 19.209,15 28/02/2022
280 477100 ANDREIA DE ALMEIDA RIBEIRO MELO OFICIAL DO MP CONTAGEM - COMARCA; CONTAGEM-PJ-SECRETARIA 7.912,85 1.582,57 0,00 0,00 0,00 0,00 0,00 1.717,00 11.212,42 1.312,48 1.380,95 0,00 0,00 2.693,43 8.518,99 28/02/2022
281 619000 ANDREIA FERREIRA NORONHA COORDENADOR/OFICIAL BELO HORIZONTE - COMARCA; DIRETORIA DE SERVICO CRIMINAL 0,00 1.343,52 13.435,16 0,00 0,00 0,00 541,88 7.628,47 22.949,03 839,85 2.963,82 0,00 0,00 3.803,67 19.145,36 28/02/2022
282 424000 ANDREIA LUCIA COUTO ANALISTA DO MP BELO HORIZONTE - COMARCA; BH-18PJ DIREITOS HUMANOS-SECRETARIA 14.324,23 2.864,85 0,00 0,00 0,00 0,00 0,00 1.717,00 18.906,08 2.543,47 3.158,18 0,00 0,00 5.701,65 13.204,43 28/02/2022
283 370100 ANDREIA MARIA SILVA PINTO OFICIAL DO MP CORONEL FABRICIANO - COMARCA; CORONEL FABRICIANO-PJ-01PJ 10.069,62 2.013,92 0,00 0,00 4.027,85 0,00 0,00 2.602,30 18.713,69 927,17 3.203,25 0,00 0,00 4.130,42 14.583,27 28/02/2022
284 382100 ANDREIA NATALI PEREIRA DE OLIVEIRA OFICIAL DO MP PRADOS - COMARCA; PRADOS-PJ-UNPJ 9.146,93 1.829,39 0,00 0,00 0,00 0,00 0,00 1.717,00 12.693,32 1.549,42 1.723,04 0,00 0,00 3.272,46 9.420,86 28/02/2022
285 275200 ANDREIA RIBEIRO FREITAS OFICIAL DO MP VIÇOSA - COMARCA; VICOSA-PJ-04PJ 10.069,62 3.020,89 0,00 0,00 0,00 0,00 527,98 7.476,82 21.095,31 1.887,70 2.159,28 0,00 0,00 4.046,98 17.048,33 28/02/2022
286 352200 ANDREIA XAVIER PEREIRA OFICIAL DO MP CLÁUDIO - COMARCA; CLAUDIO-PJ-UNPJ 10.069,62 3.020,89 0,00 0,00 0,00 0,00 527,98 7.476,82 21.095,31 1.887,70 2.211,41 0,00 0,00 4.099,11 16.996,20 28/02/2022
287 638500 ANDRESA ALVES FEITOSA CASAGRANDE ANALISTA DO MP LAVRAS - COMARCA; COORD REG DO MA DA BACIA DO RIO GRANDE 8.436,53 843,65 0,00 0,00 0,00 0,00 0,00 1.717,00 10.997,18 927,17 1.427,72 0,00 0,00 2.354,89 8.642,29 28/02/2022
288 383700 ANDRESSA EDUARDO SOUZA ANALISTA DO MP OURO BRANCO - COMARCA; OURO BRANCO-PJ-SECRETARIA 14.790,66 2.958,13 0,00 0,00 0,00 0,00 0,00 2.602,30 20.351,09 2.633,02 3.287,48 0,00 0,00 5.920,50 14.430,59 28/02/2022
289 678400 ANDRESSA LUIZA SILVA LOPES ASSESSOR PROMOTOR JUSTICA CARMO DO PARANAÍBA - COMARCA; CARMO DO PARANAIBA-PJ-02PJ 0,00 0,00 7.187,72 0,00 0,00 0,00 0,00 1.717,00 8.904,72 828,38 1.208,91 0,00 0,00 2.037,29 6.867,43 28/02/2022
290 426200 ANDRESSA MENDES CASAL OFICIAL DO MP BELO HORIZONTE - COMARCA; DIR ESTRUTURA E PROCESSOS ORGANIZACIONAIS 7.663,37 1.532,67 0,00 0,00 0,00 0,00 0,00 2.602,30 11.798,34 1.264,58 1.259,65 0,00 0,00 2.524,23 9.274,11 28/02/2022
291 390100 ANDRESSA RIBEIRO PUCCI OFICIAL DO MP UBERABA - COMARCA; UBERABA-PJ-14PJ 6.961,05 1.392,21 0,00 0,00 2.784,42 0,00 245,03 4.390,04 15.772,75 1.129,74 1.882,82 0,00 0,00 3.012,56 12.760,19 28/02/2022
292 462500 ANDREZA APARECIDA COSTA E SILVA ANALISTA DO MP CONSELHEIRO LAFAIETE - COMARCA; CONSELHEIRO LAFAIETE-PJ-02PJ 10.069,62 2.013,92 0,00 0,00 0,00 0,00 531,68 7.517,10 20.132,32 927,17 2.095,59 0,00 0,00 3.022,76 17.109,56 28/02/2022
293 677700 ANDREZA DE LOURDES FERREIRA DE PAIVA ASSESSOR PROMOTOR JUSTICA ABRE CAMPO - COMARCA; ABRE CAMPO-PJ-01PJ 0,00 0,00 7.187,72 0,00 0,00 0,00 0,00 1.717,00 8.904,72 828,38 1.208,91 0,00 0,00 2.037,29 6.867,43 28/02/2022
294 537800 ANDREZZA LUZIA DE OLIVEIRA ALVES ANALISTA DO MP PATOS DE MINAS - COMARCA; COORD REG PJ DEF EDU DIR CRI ADO AL PAR NOROE 9.444,70 944,47 0,00 0,00 0,00 0,00 419,03 6.288,23 17.096,43 1.455,48 1.535,27 0,00 0,00 2.990,75 14.105,68 28/02/2022
295 491600 ANE PATRICIA RIBEIRO DUARTE ANALISTA DO MP SETE LAGOAS - COMARCA; SETE LAGOAS-PJ-11PJ 10.069,62 2.013,92 0,00 0,00 0,00 0,00 0,00 1.717,00 13.800,54 1.726,58 1.926,67 0,00 0,00 3.653,25 10.147,29 28/02/2022
296 465800 ANELISE GAMA ASSESSOR BELO HORIZONTE - COMARCA; BH-18PJ VIOLENCIA DOMESTICA-SECRETARIA 0,00 0,00 8.170,49 0,00 0,00 0,00 0,00 1.717,00 9.887,49 828,38 1.479,17 0,00 0,00 2.307,55 7.579,94 28/02/2022
297 535200 ANELIZE FERNANDA ALVES VILARINHO OFICIAL DO MP CAPINÓPOLIS - COMARCA; CAPINOPOLIS-PJ-UNPJ 6.123,79 612,38 0,00 0,00 0,00 0,00 74,10 4.295,94 11.106,21 872,76 743,08 0,00 0,00 1.615,84 9.490,37 28/02/2022
298 197200 ANGELA COELHO SALDANHA OFICIAL DO MP PARÁ DE MINAS - COMARCA; PARA DE MINAS-PJ-03PJ 16.750,82 6.700,33 0,00 0,00 0,00 0,00 0,00 1.717,00 25.168,15 3.545,40 4.604,72 0,00 0,00 8.150,12 17.018,03 28/02/2022
299 307400 ANGELA CRISTINA GONCALVES MUNIZ ANALISTA DO MP UBERLÂNDIA - COMARCA; UBERLANDIA-PJ-SEC FAMILIA 18.103,37 7.241,35 0,00 0,00 0,00 0,00 0,00 1.717,00 27.061,72 3.848,37 4.990,00 0,00 0,00 8.838,37 18.223,35 28/02/2022
300 191800 ANGELA MARIA DE OLIVEIRA OFICIAL DO MP GUARANÉSIA - COMARCA; GUARANESIA-PJ-SECRETARIA 16.750,82 11.725,57 0,00 0,00 0,00 4.349,44 0,00 1.717,00 34.542,83 4.349,44 6.961,65 0,00 0,00 11.311,09 23.231,74 28/02/2022
301 497400 ANGELA MARIA HENRIQUES ANALISTA DO MP BELO HORIZONTE - COMARCA; COORD REG BACIAS RIO VELHAS E PARAOPEBA 10.069,62 2.013,92 0,00 0,00 0,00 0,00 531,68 7.517,10 20.132,32 1.726,58 1.978,80 0,00 0,00 3.705,38 16.426,94 28/02/2022
302 260700 ANGELICA CRISTINA AZEVEDO MOREIRA MOUCO OFICIAL DO MP UBÁ - COMARCA; UBA-PJ-05PJ 13.011,52 3.903,46 0,00 0,00 0,00 0,00 496,17 7.129,79 24.540,94 2.499,61 3.094,87 0,00 0,00 5.594,48 18.946,46 28/02/2022
303 708300 ANGELICA NUNES VIEIRA DA SILVA ASSESSOR PROMOTOR JUSTICA IBIRITÉ - COMARCA; IBIRITE-PJ-02PJ 0,00 0,00 7.187,72 0,00 0,00 0,00 0,00 1.717,00 8.904,72 828,38 1.208,91 0,00 0,00 2.037,29 6.867,43 28/02/2022
304 334600 ANGELICA PANISSA DE FREITAS GALLATI OFICIAL DO MP GUAXUPÉ - COMARCA; GUAXUPE-PJ-02PJ 10.069,62 3.020,89 0,00 0,00 0,00 0,00 527,98 8.362,12 21.980,61 1.887,70 2.159,28 0,00 0,00 4.046,98 17.933,63 28/02/2022
305 521100 ANGELICA SALES MOREIRA OFICIAL DO MP BELO HORIZONTE - COMARCA; BH-02PJ FAMILIA-SECRETARIA 7.663,37 1.532,67 0,00 0,00 0,00 0,00 1.036,09 5.180,84 15.412,97 1.387,19 1.488,82 0,00 0,00 2.876,01 12.536,96 28/02/2022
306 466500 ANGELLO MARQUES AGRELLI ANALISTA DO MP MAR DE ESPANHA - COMARCA; MAR DE ESPANHA-PJ-UNPJ 10.069,62 2.013,92 0,00 0,00 0,00 0,00 0,00 1.717,00 13.800,54 1.726,58 1.978,80 0,00 0,00 3.705,38 10.095,16 28/02/2022
307 363300 ANGELO VERDOLIN HENRIQUES ANALISTA DO MP SETE LAGOAS - COMARCA; SETE LAGOAS-PJ-04PJ 16.750,82 6.700,33 0,00 0,00 0,00 0,00 515,93 7.345,28 31.312,36 3.545,40 4.604,72 0,00 0,00 8.150,12 23.162,24 28/02/2022
308 250900 ANISIO APARECIDO SANTOS OFICIAL DO MP BETIM - COMARCA; BETIM - SECRETARIA DAS PJS CRIMINAIS 6.123,79 2.449,52 0,00 0,00 0,00 0,00 0,00 1.717,00 10.290,31 1.164,94 540,23 0,00 0,00 1.705,17 8.585,14 28/02/2022
309 651200 ANITA MARIA SANT ANA DE MATTOS FONTES OFICIAL DO MP ERVÁLIA - COMARCA; ERVALIA-PJ-UNPJ 5.217,34 3.652,13 0,00 0,00 0,00 1.212,33 292,69 4.910,01 15.284,50 1.212,33 1.517,61 0,00 0,00 2.729,94 12.554,56 28/02/2022
310 698100 ANNA CAROLINA POLICARIO BERTOLIN ASSESSOR PROCURADOR JUSTICA BELO HORIZONTE - COMARCA; PROC. JUSTICA DIR. DIFUSOS E COLETIVOS-SEC 0,00 0,00 7.187,72 0,00 0,00 0,00 0,00 1.717,00 8.904,72 828,38 1.208,91 0,00 0,00 2.037,29 6.867,43 28/02/2022
311 253400 ANNA FLAVIA LEHMAN DIRETOR/ANALISTA BELO HORIZONTE - COMARCA; SUPRIN DE PLANEJAMENTO E COORDENACAO 18.820,14 5.646,04 3.482,78 0,00 0,00 0,00 512,40 7.306,79 35.768,15 3.707,80 5.640,55 0,00 0,00 9.348,35 26.419,80 28/02/2022
312 688800 ANNA LUIZA MATTOS DUARTE ASSESSOR PROCURADOR JUSTICA BELO HORIZONTE - COMARCA; GABINETE DE PROCURADOR DE JUSTIÇA - SALA 305 0,00 0,00 7.187,72 0,00 0,00 0,00 0,00 1.717,00 8.904,72 828,38 1.208,91 0,00 0,00 2.037,29 6.867,43 28/02/2022
313 447600 ANNGELUCE ALCANTARA DE CAMPOS OFICIAL DO MP DIVINÓPOLIS - COMARCA; DIVINOPOLIS-PJ-SECRETARIA 8.170,49 1.634,10 0,00 0,00 0,00 0,00 359,50 5.638,84 15.802,93 1.361,95 1.452,37 0,00 0,00 2.814,32 12.988,61 28/02/2022
314 119600 ANSELMO BORGES PARREIRAS OFICIAL DO MP BONFIM - COMARCA; BONFIM-PJ-UNPJ 8.170,49 6.536,40 0,00 0,00 0,00 2.146,32 0,00 1.717,00 18.570,21 2.146,32 3.122,90 0,00 0,00 5.269,22 13.300,99 28/02/2022
315 630300 ANTONIA GOMES RAMALHO OFICIAL DO MP NOVO CRUZEIRO - COMARCA; NOVO CRUZEIRO-PJ-UNPJ 5.930,75 593,08 0,00 0,00 0,00 0,00 0,00 3.487,60 10.011,43 839,85 693,74 0,00 0,00 1.533,59 8.477,84 28/02/2022
316 401600 ANTONIO CARLOS GUEDES AROUCA ANALISTA DO MP BELO HORIZONTE - COMARCA; ASSESSORIA JURIDICO-ADMINISTRATIVA 13.011,52 2.602,30 0,00 0,00 0,00 0,00 0,00 1.717,00 17.330,82 2.291,42 2.794,30 0,00 0,00 5.085,72 12.245,10 28/02/2022
317 333900 ANTONIO GONCALVES DE SOUZA FILHO OFICIAL DO MP BELO HORIZONTE - COMARCA; DIRETORIA DE CONTABILIDADE 10.069,62 3.020,89 0,00 0,00 0,00 0,00 0,00 1.717,00 14.807,51 1.887,70 2.211,41 0,00 0,00 4.099,11 10.708,40 28/02/2022
318 176100 ANTONIO MARCELO CAMPOS CAMPANELLA OFICIAL DO MP BELO HORIZONTE - COMARCA; COORD DE GABINETE DO PGJ 16.750,82 8.375,41 0,00 0,00 8.375,41 0,00 0,00 1.717,00 35.218,64 3.813,41 7.294,90 0,00 0,00 11.108,31 24.110,33 28/02/2022
319 321001 ANTONIO OLINTO VIEIRA MACHADO ANALISTA DO MP BELO HORIZONTE - COMARCA; CENTRAL DE APOIO TECN-SETOR DE MEIO AMBIENTE 14.790,66 2.958,13 0,00 0,00 0,00 0,00 520,63 7.396,61 25.666,03 2.633,02 3.183,20 0,00 0,00 5.816,22 19.849,81 28/02/2022
320 356200 ANTONIO PAULA DA SILVA OFICIAL DO MP JUIZ DE FORA - COMARCA; JUIZ DE FORA-PJ-20PJ 9.444,70 2.833,41 0,00 0,00 0,00 0,00 540,24 7.610,49 20.428,84 1.757,71 2.023,75 0,00 0,00 3.781,46 16.647,38 28/02/2022
321 119900 ANTONIO RODRIGUES DE PINHO OFICIAL DO MP GUANHÃES - COMARCA; GUANHAES-PJ-01PJ 15.272,02 10.690,41 0,00 0,00 0,00 0,00 475,98 6.909,49 33.347,90 3.947,20 5.080,55 0,00 0,00 9.027,75 24.320,15 28/02/2022
322 373300 ANTONIO SERGIO ANANIAS OFICIAL DO MP SÃO JOÃO NEPOMUCENO - COMARCA; SAO JOAO NEPOMUCENO-PJ-01PJ 8.858,43 1.771,69 0,00 0,00 0,00 0,00 0,00 1.717,00 12.347,12 927,17 1.746,81 0,00 0,00 2.673,98 9.673,14 28/02/2022
323 608100 ANTONIO SIDINEY VIEIRA LEMOS ANALISTA DO MP PIRAPORA - COMARCA; PIRAPORA-PJ-01PJ 9.146,93 3.658,77 0,00 0,00 0,00 0,00 516,50 7.351,51 20.673,71 1.842,13 2.093,49 0,00 0,00 3.935,62 16.738,09 28/02/2022
324 374700 ANTONIO SILVA NETO OFICIAL DO MP BELO HORIZONTE - COMARCA; GAECO - SECRETARIA 9.146,93 1.829,39 0,00 0,00 0,00 0,00 0,00 2.602,30 13.578,62 1.549,42 1.723,04 0,00 0,00 3.272,46 10.306,16 28/02/2022
325 636700 ANTONIUS VITORIANO FERNANDES OFICIAL DO MP BELO HORIZONTE - COMARCA; ASSESSORIA JURIDICA DO PROCON-MG 4.974,42 497,44 0,00 0,00 0,00 0,00 0,00 1.717,00 7.188,86 681,38 448,02 0,00 0,00 1.129,40 6.059,46 28/02/2022
326 413200 ANY PEREIRA SILVA ANALISTA DO MP TRÊS PONTAS - COMARCA; TRES PONTAS-PJ-01PJ 13.011,52 2.602,30 0,00 0,00 0,00 0,00 515,26 7.337,98 23.467,06 2.291,42 2.794,30 0,00 0,00 5.085,72 18.381,34 28/02/2022
327 151401 APARECIDA DE FATIMA MENDES DE ALMEIDA ASSESSOR JUIZ DE FORA - COMARCA; JUIZ DE FORA-PJ-SECRETARIA 0,00 0,00 5.136,32 0,00 0,00 0,00 0,00 1.717,00 6.853,32 722,98 673,76 0,00 0,00 1.396,74 5.456,58 28/02/2022
328 329300 APARECIDA MARIA MELO DE ASSIS OFICIAL DO MP BELO HORIZONTE - COMARCA; BH-18PJ DIREITOS HUMANOS-SECRETARIA 10.069,62 3.020,89 0,00 0,00 0,00 0,00 0,00 1.717,00 14.807,51 1.887,70 2.211,41 0,00 0,00 4.099,11 10.708,40 28/02/2022
329 475300 APARECIDA MARLENE FREIRE ROSA ANALISTA DO MP BELO HORIZONTE - COMARCA; BH-02PJ FAMILIA-SECRETARIA 12.601,30 11.341,17 0,00 0,00 0,00 3.624,01 0,00 1.717,00 29.283,48 3.624,01 5.714,82 0,00 0,00 9.338,83 19.944,65 28/02/2022
330 653000 APARECIDA ROSA DE LIMA ASSESSOR BELO HORIZONTE - COMARCA; SECRETARIA PROCESSOS DISCIPES ADMINISTRATIVOS 0,00 0,00 8.170,49 0,00 0,00 0,00 209,71 4.004,74 12.384,94 828,38 1.479,17 0,00 0,00 2.307,55 10.077,39 28/02/2022
331 354500 APARECIDA VIEIRA DE CARVALHO OFICIAL DO MP BELO HORIZONTE - COMARCA; DIVISÃO DE EDUCAÇÃO PARA O CONSUMO 7.912,85 2.373,86 0,00 0,00 0,00 0,00 414,90 6.243,15 16.944,76 1.439,09 1.563,74 0,00 0,00 3.002,83 13.941,93 28/02/2022
332 551000 ARACELES BICALHO FELIX ANALISTA DO MP MANHUAÇU - COMARCA; MANHUACU-PJ-02PJ 9.444,70 944,47 0,00 0,00 0,00 0,00 0,00 1.717,00 12.106,17 1.455,48 1.587,40 0,00 0,00 3.042,88 9.063,29 28/02/2022
333 286200 ARACELI MEDRADO DOS SANTOS LIMA OFICIAL DO MP PARACATU - COMARCA; PARACATU-PJ-03PJ 6.123,79 1.837,14 0,00 0,00 0,00 0,00 0,00 1.717,00 9.677,93 1.066,96 1.026,48 0,00 0,00 2.093,44 7.584,49 28/02/2022
334 112200 ARAQUEM AUGUSTO DE MATOS AGENTE DO MP BELO HORIZONTE - COMARCA; BH-23PJ CIVEL-SEC EXP CIVEIS 9.146,93 7.317,54 0,00 0,00 0,00 2.427,53 0,00 1.717,00 20.609,00 2.427,53 3.501,96 0,00 0,00 5.929,49 14.679,51 28/02/2022
335 280600 ARDUINO FRATTEZI ANALISTA DO MP BELO HORIZONTE - COMARCA; CENTRAL DE APOIO TECNICO-SETOR CONTABIL 18.103,37 5.431,01 0,00 0,00 0,00 0,00 517,76 7.365,25 31.417,39 3.558,71 4.623,95 0,00 0,00 8.182,66 23.234,73 28/02/2022
336 520201 ARIANE DE FATIMA CARVALHO ALMEIDA RODRIGUES ANALISTA DO MP VESPASIANO - COMARCA; VESPASIANO-PJ-SECRETARIA 9.146,93 914,69 0,00 0,00 0,00 0,00 0,00 3.044,95 13.106,57 1.403,07 1.355,33 0,00 0,00 2.758,40 10.348,17 28/02/2022
337 537600 ARIELA FREIRE MONTIJO ANALISTA DO MP ARCOS - COMARCA; ARCOS-PJ-01PJ 9.444,70 944,47 0,00 0,00 0,00 0,00 0,00 2.602,30 12.991,47 1.455,48 1.483,13 0,00 0,00 2.938,61 10.052,86 28/02/2022
338 182000 ARILSON ALEXANDRE MARTINS MAGALHAES OFICIAL DO MP JOÃO MONLEVADE - COMARCA; JOAO MONLEVADE-PJ-01PJ 15.272,02 7.636,01 0,00 0,00 0,00 0,00 503,98 8.985,53 32.397,54 3.458,50 4.270,71 0,00 0,00 7.729,21 24.668,33 28/02/2022
339 511000 ARISLANE CAROLINA DA SILVA ANALISTA DO MP MONTE CARMELO - COMARCA; MONTE CARMELO-PJ-02PJ 10.069,62 2.013,92 0,00 0,00 0,00 0,00 0,00 3.487,60 15.571,14 1.726,58 1.978,80 0,00 0,00 3.705,38 11.865,76 28/02/2022
340 170000 ARLEY BRITES DA SILVA ASSESSOR BELO HORIZONTE - COMARCA; BH-14PJ DEFESA CONSUMIDOR-SECRETARIA 0,00 2.054,53 5.136,32 0,00 0,00 0,00 131,83 3.155,17 10.477,85 828,38 588,18 0,00 0,00 1.416,56 9.061,29 28/02/2022
341 120400 ARLINDO CASSIO DA CRUZ OFICIAL DO MP SÃO GONÇALO DO SAPUCAÍ - COMARCA; SAO GONCALO DO SAPUCAI-PJ-01PJ 18.820,14 15.056,11 0,00 0,00 0,00 5.213,41 496,85 7.137,20 46.723,71 5.213,41 8.342,33 0,00 0,00 13.555,74 33.167,97 28/02/2022
342 243700 ARLINDO MARCIO LACERDA OFICIAL DO MP CONTAGEM - COMARCA; CONTAGEM-PJ-SECRETARIA 13.011,52 5.204,61 0,00 0,00 0,00 0,00 1.445,27 1.717,00 21.378,40 2.707,79 3.792,88 0,00 0,00 6.500,67 14.877,73 28/02/2022
343 392100 ARNALDO DE ANDRADE OFICIAL DO MP DIVINÓPOLIS - COMARCA; DIVINOPOLIS-PJ-02PJ 9.146,93 1.829,39 0,00 0,00 0,00 0,00 1.991,82 8.564,66 21.532,80 1.549,42 2.068,35 0,00 0,00 3.617,77 17.915,03 28/02/2022
344 642400 ARTANE INARDE DE SIQUEIRA DAMASCENO ANALISTA DO MP BELO HORIZONTE - COMARCA; SECRETARIA DE ASSUNTOS INTERNACIONAIS 8.170,49 817,05 0,00 0,00 2.995,85 0,00 0,00 1.717,00 13.700,39 927,17 2.131,91 0,00 0,00 3.059,08 10.641,31 28/02/2022
345 712100 ARTUR FONTE BOA TEOFILO ASSESSOR BELO HORIZONTE - COMARCA; DIRET DE ESTAGIOS E CONVENIOS ACADEMICOS 0,00 0,00 3.076,28 0,00 0,00 0,00 0,00 1.717,00 4.793,28 434,57 227,80 0,00 0,00 662,37 4.130,91 28/02/2022
346 302100 AUGUSTO ROUSSEAU DE CASTRO ANALISTA DO MP CATAGUASES - COMARCA; CATAGUASES-PJ-02PJ 18.820,14 5.646,04 0,00 0,00 0,00 0,00 538,26 7.588,88 32.593,32 3.707,80 4.839,19 0,00 0,00 8.546,99 24.046,33 28/02/2022
347 540200 AUREA AVELAR BITTENCOURT OFICIAL DO MP BELO HORIZONTE - COMARCA; GRUPO ESP PROM JUST DEF PROB ADM PAT PUB 5.562,64 556,26 0,00 0,00 0,00 0,00 0,00 1.717,00 7.835,90 778,43 494,99 0,00 0,00 1.273,42 6.562,48 28/02/2022
348 633501 AUREA GONTIJO BIRCHAL ASSESSOR BELO HORIZONTE - COMARCA; PROCURADOR-GERAL DE JUSTIÇA 0,00 0,00 12.601,30 0,00 0,00 0,00 0,00 1.717,00 14.318,30 828,38 2.697,64 0,00 0,00 3.526,02 10.792,28 28/02/2022
349 183200 AURELIANO MAGELA DE REZENDE COORDENADOR/OFICIAL BELO HORIZONTE - COMARCA; COORD DE GABINETE DO PGJ 16.112,82 6.445,13 2.687,03 0,00 0,00 0,00 462,83 6.766,00 32.473,81 3.402,49 5.137,33 0,00 0,00 8.539,82 23.933,99 28/02/2022
350 629400 AYESKA DA COSTA VAL MOURA DABIEN OFICIAL DO MP BELO HORIZONTE - COMARCA; BH-09PJ AUDITORIA MILITAR-SECRETARIA 5.387,19 538,72 0,00 0,00 0,00 0,00 0,00 1.717,00 7.642,91 749,48 554,16 0,00 0,00 1.303,64 6.339,27 28/02/2022
351 707400 AYMEE JOHANSSENN TYNEE CORREIA ALVES ASSESSOR PROMOTOR JUSTICA NOVA LIMA - COMARCA; NOVA LIMA-PJ-01PJ 0,00 0,00 7.187,72 0,00 0,00 0,00 0,00 1.717,00 8.904,72 828,38 1.208,91 0,00 0,00 2.037,29 6.867,43 28/02/2022
352 701600 BARBARA CHAVES OLIVEIRA ASSESSOR PROCURADOR JUSTICA BELO HORIZONTE - COMARCA; PROC. JUSTICA DIR. DIFUSOS E COLETIVOS-SEC 0,00 0,00 7.187,72 0,00 0,00 0,00 0,00 1.717,00 8.904,72 828,38 1.208,91 0,00 0,00 2.037,29 6.867,43 28/02/2022
353 691900 BARBARA COUTINHO REIS ASSESSOR PROCURADOR JUSTICA BELO HORIZONTE - COMARCA; GABINETE DE PROCURADOR DE JUSTIÇA - SALA 912 0,00 0,00 7.187,72 0,00 0,00 0,00 0,00 1.717,00 8.904,72 828,38 1.208,91 0,00 0,00 2.037,29 6.867,43 28/02/2022
354 692200 BARBARA CRISTINA MENDES BANDEIRA DE MELO DUTRA ASSESSOR PROCURADOR JUSTICA BELO HORIZONTE - COMARCA; GABINETE DE PROCURADOR DE JUSTIÇA - SALA 1009 0,00 0,00 7.187,72 0,00 0,00 0,00 0,00 1.717,00 8.904,72 828,38 1.208,91 0,00 0,00 2.037,29 6.867,43 28/02/2022
355 652800 BARBARA JULIANNE MOREIRA CASTRO ASSESSOR PROCURADOR JUSTICA BELO HORIZONTE - COMARCA; ASSESS TECNICO-JUR JUNTO AS PROC. DE JUST 0,00 0,00 7.187,72 0,00 0,00 0,00 0,00 1.717,00 8.904,72 828,38 1.208,91 0,00 0,00 2.037,29 6.867,43 28/02/2022
356 707700 BARBARA LOUISE PUFF DE OLIVEIRA ASSESSOR PROMOTOR JUSTICA RIBEIRÃO DAS NEVES - COMARCA; RIBEIRAO DAS NEVES-PJ-02PJ 0,00 0,00 7.187,72 0,00 0,00 0,00 0,00 1.717,00 8.904,72 828,38 1.208,91 0,00 0,00 2.037,29 6.867,43 28/02/2022
357 663600 BARBARA REGINA PEREIRA DE PINHO MAGALHAES ASSESSOR PROMOTOR JUSTICA BELO HORIZONTE - COMARCA; CAO-DH CONT EXT ATIV POLIC E AP COMUNIT 0,00 0,00 7.187,72 0,00 0,00 0,00 0,00 1.717,00 8.904,72 828,38 1.208,91 0,00 0,00 2.037,29 6.867,43 28/02/2022
358 692400 BARBARA SOUZA OLIVEIRA ASSESSOR PROMOTOR JUSTICA DIVINO - COMARCA; DIVINO-PJ-UNPJ 0,00 0,00 7.187,72 0,00 0,00 0,00 0,00 1.717,00 8.904,72 828,38 1.208,91 0,00 0,00 2.037,29 6.867,43 28/02/2022
359 546500 BARBARA ZACARONI GOULART OFICIAL DO MP BETIM - COMARCA; BETIM-PJ-08PJ 6.123,79 612,38 0,00 0,00 0,00 0,00 0,00 1.717,00 8.453,17 872,76 743,08 0,00 0,00 1.615,84 6.837,33 28/02/2022
360 316500 BEATRIZ ABILVIA DA SILVA ANALISTA DO MP GOVERNADOR VALADARES - COMARCA; GOVERNADOR VALADARES-PJ-07PJ 17.413,92 5.224,18 0,00 0,00 0,00 0,00 498,04 7.150,14 30.286,28 3.415,31 4.416,91 0,00 0,00 7.832,22 22.454,06 28/02/2022
361 311800 BEATRIZ APARECIDA SOARES GANEM OFICIAL DO MP ITAMBACURI - COMARCA; ITAMBACURI-PJ-02PJ 10.736,08 3.220,82 0,00 0,00 0,00 0,00 511,75 7.299,76 21.768,41 2.026,32 2.255,14 0,00 0,00 4.281,46 17.486,95 28/02/2022
362 266800 BEATRIZ AUGUSTA VILACA GOMES DE HUBER OFICIAL DO MP BELO HORIZONTE - COMARCA; BH-05PJ-JUÍZO SUCESSÕES-SEC 10.069,62 3.020,89 0,00 0,00 0,00 0,00 0,00 1.717,00 14.807,51 1.887,70 2.211,41 0,00 0,00 4.099,11 10.708,40 28/02/2022
363 235200 BEATRIZ BOTELHO BATISTA OFICIAL DO MP BELO HORIZONTE - COMARCA; BH-21PJ TUTELA FUNDACOES-SECRETARIA 10.069,62 4.027,85 0,00 0,00 0,00 0,00 0,00 1.717,00 15.814,47 2.048,81 2.444,02 0,00 0,00 4.492,83 11.321,64 28/02/2022
364 182300 BEATRIZ PAULA SOUSA RAMOS OFICIAL DO MP MARIANA - COMARCA; MARIANA-PJ-01PJ 15.272,02 7.636,01 0,00 0,00 0,00 0,00 503,98 7.214,93 30.626,94 3.458,50 4.479,26 0,00 0,00 7.937,76 22.689,18 28/02/2022
365 507000 BELCHIOR FRANKLIN AMARAL LEITE ANALISTA DO MP BELO HORIZONTE - COMARCA; CENTRAL DE APOIO TECNICO 10.736,08 2.147,22 0,00 0,00 0,00 0,00 519,63 8.270,95 21.673,88 1.854,54 2.007,14 0,00 0,00 3.861,68 17.812,20 28/02/2022
366 345100 BENITO ELIAS RODRIGUES ANALISTA DO MP BARBACENA - COMARCA; BARBACENA - SECRETARIA DAS PJS CRIMINAIS 16.750,82 5.025,25 0,00 0,00 0,00 0,00 479,07 6.943,26 29.198,40 3.277,38 4.165,64 0,00 0,00 7.443,02 21.755,38 28/02/2022
367 207300 BENITO VIEIRA DOS SANTOS ANALISTA DO MP BELO HORIZONTE - COMARCA; PROC JUST ESP ACOES COMP ORIG CRIMINAL-ASSESS 18.820,14 7.528,06 0,00 0,00 0,00 4.008,93 483,05 6.986,64 37.826,82 4.008,93 5.167,94 0,00 0,00 9.176,87 28.649,95 28/02/2022
368 480200 BERNADETE NUNES DOS SANTOS ANALISTA DO MP GUANHÃES - COMARCA; GUANHAES-PJ-02PJ 10.069,62 3.020,89 0,00 0,00 0,00 0,00 0,00 1.717,00 14.807,51 1.887,70 2.211,41 0,00 0,00 4.099,11 10.708,40 28/02/2022
369 378400 BETANIA FARNESI DE SOUZA E SILVA OFICIAL DO MP CURVELO - COMARCA; CURVELO-PJ-01PJ 9.146,93 3.658,77 0,00 0,00 0,00 0,00 0,00 1.717,00 14.522,70 1.842,13 2.093,49 0,00 0,00 3.935,62 10.587,08 28/02/2022
370 387400 BETANIA MENDONCA DE ASSIS CARVALHO ANALISTA DO MP JUIZ DE FORA - COMARCA; JUIZ DE FORA-PJ-03PJ 14.790,66 2.958,13 0,00 0,00 5.916,26 0,00 0,00 2.602,30 26.267,35 2.633,02 4.862,31 0,00 0,00 7.495,33 18.772,02 28/02/2022
371 714400 BIANCA DE CASTRO RAMOS ASSESSOR PROMOTOR JUSTICA BETIM - COMARCA; BETIM-PJ-07PJ 0,00 0,00 7.187,72 0,00 0,00 0,00 0,00 1.717,00 8.904,72 828,38 1.208,91 0,00 0,00 2.037,29 6.867,43 28/02/2022
372 712700 BIANCA DE JESUS SOUZA ASSESSOR GOVERNADOR VALADARES - COMARCA; COOR REG APOIO COM INC MOB VALE DO RIO DOCE 0,00 0,00 3.076,28 0,00 0,00 0,00 0,00 1.717,00 4.793,28 434,57 227,80 0,00 0,00 662,37 4.130,91 28/02/2022
373 450300 BIANCA OLIVEIRA DE ALBUQUERQUE ANALISTA DO MP BELO HORIZONTE - COMARCA; BH-10PJ EXECUÇÃO PENAL-SECRETARIA 10.069,62 2.013,92 0,00 0,00 0,00 0,00 0,00 2.602,30 14.685,84 1.726,58 1.978,80 0,00 0,00 3.705,38 10.980,46 28/02/2022
374 535400 BIANCA SALOTO ROSSI ANALISTA DO MP SANTOS DUMONT - COMARCA; SANTOS DUMONT-PJ-01PJ 9.444,70 944,47 0,00 0,00 3.463,06 0,00 0,00 2.602,30 16.454,53 1.455,48 2.539,75 0,00 0,00 3.995,23 12.459,30 28/02/2022
375 120800 BRAS MARQUES DE SOUZA ANALISTA DO MP BELO HORIZONTE - COMARCA; SUPERINTENDENCIA DE GESTAO ADMINISTRATIVA 23.757,25 19.005,81 0,00 0,00 0,00 5.467,17 520,11 7.390,96 56.141,30 5.467,17 8.778,48 7.300,84 0,00 21.546,49 34.594,81 28/02/2022
376 710500 BRENNO VINICIUS MAGESTE ROSA ASSESSOR PROMOTOR JUSTICA MANHUAÇU - COMARCA; MANHUACU-PJ-02PJ 0,00 0,00 7.187,72 0,00 0,00 0,00 0,00 1.717,00 8.904,72 828,38 1.208,91 0,00 0,00 2.037,29 6.867,43 28/02/2022
377 460900 BRENO CRISTIANO DE SOUZA REZENDE ANALISTA DO MP ITAÚNA - COMARCA; ITAUNA-PJ-02PJ 10.069,62 2.013,92 0,00 0,00 0,00 0,00 0,00 1.717,00 13.800,54 1.726,58 1.978,80 0,00 0,00 3.705,38 10.095,16 28/02/2022
378 239000 BRENO VENANCIO ROMANINI OFICIAL DO MP BELO HORIZONTE - COMARCA; BH-20PJ ORD ECON TRIBUTARIA-SECRETARIA 10.069,62 3.020,89 0,00 0,00 0,00 0,00 0,00 1.717,00 14.807,51 1.887,70 2.211,41 0,00 0,00 4.099,11 10.708,40 28/02/2022
379 642300 BRUNA IZABELITA DE FATIMA OLIVEIRA COSTA OFICIAL DO MP BELO HORIZONTE - COMARCA; BH-02PJ FAMILIA-SECRETARIA 5.387,19 538,72 0,00 0,00 0,00 0,00 0,00 1.717,00 7.642,91 749,48 554,16 0,00 0,00 1.303,64 6.339,27 28/02/2022
380 513600 BRUNA KARLA MARTINS CARVALHO ANALISTA DO MP GOVERNADOR VALADARES - COMARCA; GOVERNADOR VALADARES-PJ-14PJ 10.069,62 2.013,92 0,00 0,00 0,00 0,00 531,68 7.517,10 20.132,32 927,17 2.095,59 0,00 0,00 3.022,76 17.109,56 28/02/2022
381 415100 BRUNA MARIA SOARES OLIVEIRA COSTA RAMOS ANALISTA DO MP UBÁ - COMARCA; COORD REG BACIA DO RIO PARAIBA DO SUL 14.324,23 2.864,85 0,00 0,00 0,00 0,00 0,00 1.717,00 18.906,08 927,17 3.394,31 0,00 0,00 4.321,48 14.584,60 28/02/2022
382 692900 BRUNA MENDES COELHO ASSESSOR PROCURADOR JUSTICA BELO HORIZONTE - COMARCA; GABINETE DE PROCURADOR DE JUSTIÇA - SALA 801 0,00 0,00 7.187,72 0,00 0,00 0,00 0,00 1.717,00 8.904,72 828,38 1.208,91 0,00 0,00 2.037,29 6.867,43 28/02/2022
383 470000 BRUNA MORAES ANALISTA DO MP TOMBOS - COMARCA; TOMBOS-PJ-UNPJ 12.601,30 2.520,26 0,00 0,00 0,00 0,00 499,01 7.160,76 22.781,33 2.212,66 2.524,17 0,00 0,00 4.736,83 18.044,50 28/02/2022
384 614700 BRUNA NATTANY DE LIMA OFICIAL DO MP MANTENA - COMARCA; MANTENA-PJ-01PJ 5.930,75 593,08 0,00 0,00 0,00 0,00 71,76 3.385,16 9.980,75 839,85 693,74 0,00 0,00 1.533,59 8.447,16 28/02/2022
385 693300 BRUNA RAMONY ROCHA DA CRUZ ASSESSOR PROMOTOR JUSTICA JAIBA - COMARCA; JAIBA-PJ-UNPJ 0,00 0,00 7.187,72 0,00 0,00 0,00 131,77 3.154,54 10.474,03 828,38 1.208,91 0,00 0,00 2.037,29 8.436,74 28/02/2022
386 631800 BRUNA RAPOSO JORGE OFICIAL DO MP JUIZ DE FORA - COMARCA; JUIZ DE FORA-PJ-06PJ 5.930,75 593,08 0,00 0,00 0,00 0,00 0,00 1.717,00 8.240,83 839,85 693,74 0,00 0,00 1.533,59 6.707,24 28/02/2022
387 707800 BRUNA ROMIE WERDINE ASSESSOR PROMOTOR JUSTICA IBIRITÉ - COMARCA; IBIRITE-PJ-06PJ 0,00 0,00 7.187,72 0,00 0,00 0,00 0,00 1.717,00 8.904,72 828,38 1.208,91 0,00 0,00 2.037,29 6.867,43 28/02/2022
388 697400 BRUNA SILVA SANTOS ASSESSOR PROMOTOR JUSTICA TIMÓTEO - COMARCA; TIMOTEO-PJ-04PJ 0,00 0,00 7.187,72 0,00 0,00 0,00 0,00 1.717,00 8.904,72 828,38 1.208,91 0,00 0,00 2.037,29 6.867,43 28/02/2022
389 699300 BRUNA URSINE TIMO ASSESSOR PROCURADOR JUSTICA BELO HORIZONTE - COMARCA; PROC JUST ESP ACOES COMP ORIG CRIMINAL-ASSESS 0,00 0,00 7.187,72 0,00 0,00 0,00 0,00 1.717,00 8.904,72 828,38 1.208,91 0,00 0,00 2.037,29 6.867,43 28/02/2022
390 463800 BRUNO ALVES TEIXEIRA ANALISTA DO MP UBERLÂNDIA - COMARCA; UBERLANDIA-PJ-04PJ 10.069,62 2.013,92 0,00 0,00 0,00 0,00 531,68 7.517,10 20.132,32 1.726,58 1.978,80 0,00 0,00 3.705,38 16.426,94 28/02/2022
391 538500 BRUNO AUGUSTO DA SILVA OFICIAL DO MP SANTA LUZIA - COMARCA; SANTA LUZIA-PJ-03PJ 6.123,79 612,38 0,00 0,00 0,00 0,00 0,00 1.717,00 8.453,17 872,76 743,08 0,00 0,00 1.615,84 6.837,33 28/02/2022
392 318200 BRUNO BARROS DE SOUZA OFICIAL DO MP UBÁ - COMARCA; UBA-PJ-04PJ 10.069,62 3.020,89 0,00 0,00 0,00 0,00 527,98 7.476,82 21.095,31 927,17 1.919,46 0,00 0,00 2.846,63 18.248,68 28/02/2022
393 459600 BRUNO CASTELAR LUGAO MENDES OFICIAL DO MP BELO HORIZONTE - COMARCA; PROC JUST ATUACAO TRIBUNAIS SUPERIORES-GAB001 8.579,10 1.715,82 0,00 0,00 0,00 0,00 415,23 7.644,99 18.355,14 927,17 1.640,61 0,00 0,00 2.567,78 15.787,36 28/02/2022
394 427400 BRUNO CESAR RIBEIRO DE PAIVA ANALISTA DO MP BELO HORIZONTE - COMARCA; ASSESS JUR DO CONS SUPERIOR DO MINISTERIO PUB 14.324,23 2.864,85 0,00 0,00 0,00 0,00 0,00 1.717,00 18.906,08 2.543,47 3.158,18 0,00 0,00 5.701,65 13.204,43 28/02/2022
395 380900 BRUNO CIRILO ANTUNES OFICIAL DO MP VARGINHA - COMARCA; VARGINHA-PJ-05PJ 9.444,70 1.888,94 0,00 0,00 0,00 0,00 498,68 7.157,15 18.989,47 1.606,60 1.805,58 0,00 0,00 3.412,18 15.577,29 28/02/2022
396 329000 BRUNO DE MELO REIS ANALISTA DO MP PATROCÍNIO - COMARCA; PATROCINIO-PJ-02PJ 17.413,92 5.224,18 0,00 0,00 0,00 0,00 498,04 8.920,74 32.056,88 3.415,31 4.312,63 0,00 0,00 7.727,94 24.328,94 28/02/2022
397 697800 BRUNO GAZZOLA BEZERRA FALCAO ASSESSOR PROCURADOR JUSTICA BELO HORIZONTE - COMARCA; PROCURADOR-GERAL ADJUNTO JURIDICO- GABINETE 0,00 0,00 7.187,72 0,00 0,00 0,00 0,00 1.717,00 8.904,72 828,38 1.208,91 0,00 0,00 2.037,29 6.867,43 28/02/2022
398 378300 BRUNO HERDY LOPES DE OLIVEIRA ANALISTA DO MP GOVERNADOR VALADARES - COMARCA; GOVERNADOR VALADARES-PJ-03PJ 14.790,66 2.958,13 0,00 0,00 0,00 0,00 520,63 7.396,61 25.666,03 2.633,02 3.287,48 0,00 0,00 5.920,50 19.745,53 28/02/2022
399 529700 BRUNO JOSE BUENO DIAS OFICIAL DO MP SÃO SEBASTIÃO DO PARAÍSO - COMARCA; SAO SEBASTIAO DO PARAISO-PJ-02PJ 6.123,79 612,38 0,00 0,00 0,00 0,00 74,10 2.525,34 9.335,61 872,76 690,94 0,00 0,00 1.563,70 7.771,91 28/02/2022
400 691600 BRUNO JOSE RIBEIRO ASSESSOR PROMOTOR JUSTICA CLÁUDIO - COMARCA; CLAUDIO-PJ-UNPJ 0,00 0,00 7.187,72 0,00 0,00 0,00 0,00 1.717,00 8.904,72 828,38 1.208,91 0,00 0,00 2.037,29 6.867,43 28/02/2022
401 350100 BRUNO LAUD SERRANO DOS REIS OFICIAL DO MP UBÁ - COMARCA; UBA-PJ-02PJ 9.752,14 2.925,64 0,00 0,00 0,00 0,00 511,34 7.295,22 20.484,34 1.821,66 2.063,94 0,00 0,00 3.885,60 16.598,74 28/02/2022
402 373800 BRUNO MARTINO DE ALBUQUERQUE ANALISTA DO MP PONTE NOVA - COMARCA; PONTE NOVA-PJ-03PJ 14.790,66 2.958,13 0,00 0,00 0,00 0,00 520,63 7.396,61 25.666,03 2.633,02 3.183,20 0,00 0,00 5.816,22 19.849,81 28/02/2022
403 470400 BRUNO NOVAIS CABRAL ANALISTA DO MP MUTUM - COMARCA; MUTUM-PJ-UNPJ 10.069,62 2.013,92 0,00 0,00 0,00 0,00 531,68 8.402,40 21.017,62 1.726,58 1.874,53 0,00 0,00 3.601,11 17.416,51 28/02/2022
404 648600 BRUNO RIBEIRO E MELO ASSESSOR BELO HORIZONTE - COMARCA; DIR RELACOES INSTITUCIONAIS 0,00 0,00 8.170,49 0,00 0,00 0,00 209,71 4.004,74 12.384,94 828,38 1.479,17 0,00 0,00 2.307,55 10.077,39 28/02/2022
405 369200 BRUNO ROBERTO DIAS DE OLIVEIRA OFICIAL DO MP BELO HORIZONTE - COMARCA; BH-22PJ PES COM DEF E IDOSOS-SECRETARIA 10.069,62 2.013,92 0,00 0,00 0,00 0,00 398,76 6.067,07 18.549,37 927,17 2.095,59 0,00 0,00 3.022,76 15.526,61 28/02/2022
406 547700 BRUNO ROBERTO SOUZA GONCALVES ANALISTA DO MP PARACATU - COMARCA; PARACATU-PJ-03PJ 9.444,70 944,47 0,00 0,00 0,00 0,00 0,00 3.487,60 13.876,77 1.455,48 1.587,40 0,00 0,00 3.042,88 10.833,89 28/02/2022
407 546100 BRUNO SA VIEIRA ANALISTA DO MP BARBACENA - COMARCA; BARBACENA-PJ-SECRETARIA 9.444,70 944,47 0,00 0,00 3.463,06 0,00 419,03 7.173,53 21.444,79 1.455,48 2.487,61 0,00 0,00 3.943,09 17.501,70 28/02/2022
408 438200 BRUNO SALES PEREIRA ANALISTA DO MP BELO HORIZONTE - COMARCA; CENTRAL DE APOIO TECNICO-SETOR CONTABIL 12.601,30 2.520,26 0,00 0,00 0,00 0,00 499,01 8.046,06 23.666,63 2.212,66 2.628,45 0,00 0,00 4.841,11 18.825,52 28/02/2022
409 537400 BRUNO SANT'ANA CESAR ANALISTA DO MP CONTAGEM - COMARCA; CONTAGEM-PJ-21PJ 9.444,70 944,47 0,00 0,00 3.463,06 0,00 419,03 6.288,23 20.559,49 1.455,48 2.539,75 0,00 0,00 3.995,23 16.564,26 28/02/2022
410 405800 CAIO FERNANDO RODRIGUES DE OLIVEIRA ANALISTA DO MP BELO HORIZONTE - COMARCA; GABINETE DE PROCURADOR DE JUSTIÇA - SALA 805 14.324,23 2.864,85 0,00 0,00 0,00 0,00 504,21 7.217,51 24.910,80 927,17 3.505,43 0,00 0,00 4.432,60 20.478,20 28/02/2022
411 530000 CAIO GUEDES DE OLIVEIRA ANALISTA DO MP DIAMANTINA - COMARCA; DIAMANTINA-PJ-02PJ 10.069,62 1.006,96 0,00 0,00 0,00 0,00 0,00 2.602,30 13.678,88 1.565,47 1.694,06 0,00 0,00 3.259,53 10.419,35 28/02/2022
412 491400 CAIO MIRANDA JUNQUEIRA ANALISTA DO MP BUENO BRANDAO - COMARCA; BUENO BRANDAO-PJ-UNPJ 10.069,62 2.013,92 0,00 0,00 0,00 0,00 0,00 1.717,00 13.800,54 1.726,58 1.874,53 0,00 0,00 3.601,11 10.199,43 28/02/2022
413 415800 CAMILA ALVES DA SILVA ANALISTA DO MP CAETÉ - COMARCA; CAETE-PJ-01PJ 14.324,23 2.864,85 0,00 0,00 0,00 0,00 504,21 7.217,51 24.910,80 2.543,47 3.158,18 0,00 0,00 5.701,65 19.209,15 28/02/2022
414 555800 CAMILA CAROLINE ROCHA CHAVES OFICIAL DO MP SALINAS - COMARCA; SALINAS-PJ-01PJ 6.123,79 612,38 0,00 0,00 0,00 0,00 0,00 1.717,00 8.453,17 872,76 743,08 0,00 0,00 1.615,84 6.837,33 28/02/2022
415 445200 CAMILA CONDE ROCHA ANALISTA DO MP CONTAGEM - COMARCA; CONTAGEM-PJ-08PJ 10.736,08 2.147,22 0,00 0,00 0,00 0,00 188,96 3.778,33 16.850,59 1.854,54 2.163,55 0,00 0,00 4.018,09 12.832,50 28/02/2022
416 419900 CAMILA CUNNINGHAM PIMENTA DE PADUA ANALISTA DO MP BELO HORIZONTE - COMARCA; ASSESSORIA PSICOSSOCIAL 14.324,23 2.864,85 0,00 0,00 0,00 0,00 0,00 1.717,00 18.906,08 2.543,47 3.158,18 0,00 0,00 5.701,65 13.204,43 28/02/2022
417 714200 CAMILA DE SOUSA CUNHA ASSESSOR PROMOTOR JUSTICA PRADOS - COMARCA; PRADOS-PJ-UNPJ 0,00 0,00 7.187,72 0,00 0,00 0,00 0,00 1.717,00 8.904,72 828,38 1.208,91 0,00 0,00 2.037,29 6.867,43 28/02/2022
418 507700 CAMILA ELIZABETH RODRIGUES ANALISTA DO MP BELO HORIZONTE - COMARCA; BH-02PJ FAMILIA-SECRETARIA 11.085,56 2.217,11 0,00 0,00 0,00 0,00 536,54 7.570,17 21.409,38 1.921,64 2.260,42 0,00 0,00 4.182,06 17.227,32 28/02/2022
419 372700 CAMILA FONSECA LIMONGE ANALISTA DO MP BETIM - COMARCA; BETIM-PJ-01PJ 14.790,66 2.958,13 0,00 0,00 0,00 0,00 520,63 7.396,61 25.666,03 2.633,02 3.287,48 0,00 0,00 5.920,50 19.745,53 28/02/2022
420 621300 CAMILA GOLFETO DE SOUSA VALENTE OFICIAL DO MP CARANGOLA - COMARCA; CARANGOLA-PJ-SECRETARIA 5.930,75 593,08 0,00 0,00 0,00 0,00 71,76 3.827,81 10.423,40 839,85 589,46 0,00 0,00 1.429,31 8.994,09 28/02/2022
421 409800 CAMILA GONCALVES COSTA RIBEIRO ANALISTA DO MP INHAPIM - COMARCA; INHAPIM-PJ-02PJ 10.069,62 2.013,92 0,00 0,00 0,00 0,00 0,00 2.602,30 14.685,84 1.726,58 1.926,67 0,00 0,00 3.653,25 11.032,59 28/02/2022
422 335000 CAMILA GONTIJO DE PAIVA ANALISTA DO MP BELO HORIZONTE - COMARCA; COORD DE CONTROLE CONSTITUCIONALIDADE 16.750,82 5.025,25 0,00 0,00 0,00 0,00 0,00 1.717,00 23.493,07 3.277,38 4.165,64 0,00 0,00 7.443,02 16.050,05 28/02/2022
423 693400 CAMILA HECKSHER MONTEIRO ASSESSOR PROCURADOR JUSTICA BELO HORIZONTE - COMARCA; GABINETE DE PROCURADOR DE JUSTIÇA - SALA 613 0,00 0,00 7.187,72 0,00 0,00 0,00 0,00 1.717,00 8.904,72 828,38 1.208,91 0,00 0,00 2.037,29 6.867,43 28/02/2022
424 696000 CAMILA IMACULADA OLIVEIRA ASSESSOR PROCURADOR JUSTICA BELO HORIZONTE - COMARCA; GABINETE DE PROCURADOR DE JUSTIÇA - SALA 816 0,00 0,00 7.187,72 0,00 0,00 0,00 0,00 1.717,00 8.904,72 828,38 1.208,91 0,00 0,00 2.037,29 6.867,43 28/02/2022
425 547800 CAMILA MATTARELLI DE ABREU E SILVA ANALISTA DO MP BELO HORIZONTE - COMARCA; CAO-VIOLENCIA DOMESTICA E FAMILIAR 9.444,70 944,47 0,00 0,00 0,00 0,00 533,31 7.534,94 18.457,42 1.455,48 1.587,40 0,00 0,00 3.042,88 15.414,54 28/02/2022
426 430000 CANDIDA MARINA COSTA ANALISTA DO MP BELO HORIZONTE - COMARCA; DIVISAO DE DOCUMENTACAO JURIDICA 14.324,23 2.864,85 0,00 0,00 0,00 0,00 0,00 1.717,00 18.906,08 2.543,47 3.158,18 0,00 0,00 5.701,65 13.204,43 28/02/2022
427 614300 CARINA CORTIELHA OFICIAL DO MP BELO HORIZONTE - COMARCA; BH-23PJ CIVEL-SEC EXP CIVEIS 5.387,19 538,72 0,00 0,00 0,00 0,00 627,43 1.717,00 8.270,34 749,48 554,16 0,00 0,00 1.303,64 6.966,70 28/02/2022
428 380400 CARINA DIAS FACANHA DE SOUZA ANALISTA DO MP SANTA RITA DO SAPUCAÍ - COMARCA; SANTA RITA DO SAPUCAI-PJ-SECRETARIA 14.790,66 2.958,13 0,00 0,00 0,00 0,00 0,00 1.717,00 19.465,79 2.633,02 3.287,48 0,00 0,00 5.920,50 13.545,29 28/02/2022
429 698300 CARINA ESTEPHANY FAVATO FERREIRA JUSTE ASSESSOR PROCURADOR JUSTICA BELO HORIZONTE - COMARCA; PROC. JUSTICA DIR. DIFUSOS E COLETIVOS-SEC 0,00 0,00 7.187,72 0,00 0,00 0,00 0,00 1.717,00 8.904,72 828,38 1.208,91 0,00 0,00 2.037,29 6.867,43 28/02/2022
430 255000 CARLA ADRIANA DE MENEZES OFICIAL DO MP BELO HORIZONTE - COMARCA; CENT DE APOIO TEC-SETOR DEF,IDOSO E INFANC 10.069,62 3.020,89 0,00 0,00 0,00 0,00 527,98 7.476,82 21.095,31 1.887,70 2.211,41 0,00 0,00 4.099,11 16.996,20 28/02/2022
431 425100 CARLA ADRIANA DINIZ AMARAL OFICIAL DO MP CONTAGEM - COMARCA; CONTAGEM-PJ-SECRETARIA 8.858,43 1.771,69 0,00 0,00 0,00 0,00 38,98 2.142,20 12.811,30 1.494,03 1.643,06 0,00 0,00 3.137,09 9.674,21 28/02/2022
432 508100 CARLA ALESSANDRA FONSECA ANALISTA DO MP BELO HORIZONTE - COMARCA; CAO-ORDEM ECONOMICA E TRIBUTARIA-SECRETARIA 10.069,62 2.013,92 0,00 0,00 4.027,85 0,00 531,68 7.517,10 24.160,17 1.726,58 3.086,46 0,00 0,00 4.813,04 19.347,13 28/02/2022
433 607100 CARLA ANGELICA DIAS MIRANDA OFICIAL DO MP JABOTICATUBAS - COMARCA; JABOTICATUBAS-PJ-UNPJ 6.123,79 612,38 0,00 0,00 0,00 0,00 0,00 1.717,00 8.453,17 872,76 586,67 0,00 0,00 1.459,43 6.993,74 28/02/2022
434 351500 CARLA APARECIDA MENDES RAMIRIO OFICIAL DO MP PASSOS - COMARCA; PASSOS-PJ-01PJ 10.069,62 3.020,89 0,00 0,00 0,00 0,00 0,00 1.717,00 14.807,51 1.887,70 2.159,28 0,00 0,00 4.046,98 10.760,53 28/02/2022
435 713100 CARLA DOS SANTOS SOUZA ASSESSOR PROMOTOR JUSTICA ESPERA FELIZ - COMARCA; ESPERA FELIZ-PJ-UNPJ 0,00 0,00 7.187,72 0,00 0,00 0,00 0,00 1.717,00 8.904,72 828,38 1.208,91 0,00 0,00 2.037,29 6.867,43 28/02/2022
436 442800 CARLA GONCALVES COSTA SOALHEIRO ANALISTA DO MP GOVERNADOR VALADARES - COMARCA; GOVERNADOR VALADARES-PJ-11PJ 10.069,62 2.013,92 0,00 0,00 0,00 0,00 0,00 2.602,30 14.685,84 1.726,58 1.926,67 0,00 0,00 3.653,25 11.032,59 28/02/2022
437 321500 CARLA GONCALVES MASSOTE OFICIAL DO MP CAMPO BELO - COMARCA; CAMPO BELO-PJ-02PJ 10.069,62 3.020,89 0,00 0,00 0,00 0,00 0,00 1.717,00 14.807,51 1.887,70 2.211,41 0,00 0,00 4.099,11 10.708,40 28/02/2022
438 429200 CARLA HAUTEQUESTT BECHARA COORDENADOR/ANALISTA BELO HORIZONTE - COMARCA; DIRET DE INFORMACAO E CONHECIMENTO-DINC/CEAF 14.324,23 2.864,85 2.687,03 0,00 0,00 0,00 0,00 1.717,00 21.593,11 2.543,47 3.897,12 0,00 0,00 6.440,59 15.152,52 28/02/2022
439 247500 CARLA MATILDE GUIMARAES DE OLIVEIRA OFICIAL DO MP ITAJUBA - COMARCA; ITAJUBA-PJ-SECRETARIA 10.069,62 4.027,85 0,00 0,00 0,00 0,00 0,00 1.717,00 15.814,47 2.048,81 2.391,88 0,00 0,00 4.440,69 11.373,78 28/02/2022
440 226100 CARLA MERLI DA CONCEICAO ANALISTA DO MP BELO HORIZONTE - COMARCA; CENTRAL DE APOIO TECNICO-SETOR CONTABIL 18.820,14 5.646,04 0,00 0,00 0,00 0,00 538,26 7.588,88 32.593,32 3.707,80 4.787,06 0,00 0,00 8.494,86 24.098,46 28/02/2022
441 181401 CARLO MICHEL GAUDENSI COELHO ANALISTA DO MP BELO HORIZONTE - COMARCA; BH-08PJ JUIZADO ESPECIAL-SECRETARIA 13.011,52 5.204,61 0,00 0,00 0,00 0,00 467,55 6.817,52 25.501,20 2.707,79 3.395,43 0,00 0,00 6.103,22 19.397,98 28/02/2022
442 634000 CARLOS ALBERTO AMORMINO TRIGUEIRO ANALISTA DO MP BELO HORIZONTE - COMARCA; DIRET DE APOIO AS PROCURADORIAS DE JUSTICA 8.436,53 843,65 0,00 0,00 0,00 0,00 0,00 2.602,30 11.882,48 927,17 1.330,35 0,00 0,00 2.257,52 9.624,96 28/02/2022
443 637900 CARLOS ALBERTO DE MOURA OFICIAL DO MP SETE LAGOAS - COMARCA; SETE LAGOAS-PJ-07PJ 5.387,19 538,72 0,00 0,00 0,00 0,00 0,00 1.717,00 7.642,91 749,48 502,02 0,00 0,00 1.251,50 6.391,41 28/02/2022
444 638700 CARLOS ALBERTO FERREIRA BRAGA ANALISTA DO MP VESPASIANO - COMARCA; VESPASIANO-PJ-06PJ 8.436,53 843,65 0,00 0,00 0,00 0,00 306,25 5.057,86 14.644,29 927,17 1.323,44 0,00 0,00 2.250,61 12.393,68 28/02/2022
445 375801 CARLOS ALBERTO ROCHA ANALISTA DO MP VARGINHA - COMARCA; GAECO REGIONAL DE VARGINHA 10.069,62 1.006,96 0,00 0,00 0,00 0,00 0,00 2.602,30 13.678,88 1.565,47 1.746,20 0,00 0,00 3.311,67 10.367,21 28/02/2022
446 462800 CARLOS ANDREI SOARES FAGUNDES ANALISTA DO MP MONTES CLAROS - COMARCA; MONTES CLAROS-PJ-09PJ 10.069,62 2.013,92 0,00 0,00 0,00 0,00 531,68 7.517,10 20.132,32 1.726,58 1.926,67 0,00 0,00 3.653,25 16.479,07 28/02/2022
447 370300 CARLOS AUGUSTO BUENO DIAS ASSESSOR BELO HORIZONTE - COMARCA; SUPERINTENDÊNCIA DE ENGENHARIA E ARQUITETURA 0,00 0,00 10.397,52 0,00 0,00 0,00 38,12 2.132,90 12.568,54 828,38 1.447,53 0,00 0,00 2.275,91 10.292,63 28/02/2022
448 505100 CARLOS CEZAR CARVALHO ANALISTA DO MP CONTAGEM - COMARCA; CONTAGEM-PJ-02PJ 10.069,62 4.027,85 0,00 0,00 0,00 0,00 0,00 1.717,00 15.814,47 2.048,81 2.339,75 0,00 0,00 4.388,56 11.425,91 28/02/2022
449 195900 CARLOS DE SOUZA FERREIRA OFICIAL DO MP COROMANDEL - COMARCA; COROMANDEL-PJ-01PJ 10.069,62 8.055,69 0,00 0,00 0,00 2.693,26 0,00 1.717,00 22.535,57 2.693,26 4.115,10 0,00 0,00 6.808,36 15.727,21 28/02/2022
450 196800 CARLOS EDUARDO DE OLIVEIRA MARINHO OFICIAL DO MP ALPINÓPOLIS - COMARCA; ALPINOPOLIS-PJ-UNPJ 16.750,82 11.725,57 0,00 0,00 0,00 0,00 522,07 7.412,28 36.410,74 4.349,44 5.713,42 0,00 0,00 10.062,86 26.347,88 28/02/2022
451 650800 CARLOS EDUARDO NIZA DA SILVA OFICIAL DO MP IGARAPÉ - COMARCA; IGARAPE-PJ-01PJ 4.817,57 481,76 0,00 0,00 0,00 0,00 0,00 2.602,30 7.901,63 655,50 323,42 0,00 0,00 978,92 6.922,71 28/02/2022
452 491800 CARLOS EDUARDO ROMAN OFICIAL DO MP BARBACENA - COMARCA; BARBACENA-PJ-09PJ 7.912,85 1.582,57 0,00 0,00 0,00 0,00 0,00 1.717,00 11.212,42 1.312,48 1.380,95 0,00 0,00 2.693,43 8.518,99 28/02/2022
453 299300 CARLOS HENRIQUE BICALHO ANALISTA DO MP BELO HORIZONTE - COMARCA; BH-17PJ PATRIMONIO PUBLICO-SECRETARIA 18.103,37 7.241,35 0,00 0,00 0,00 0,00 464,65 7.671,24 33.480,61 3.848,37 5.042,14 0,00 0,00 8.890,51 24.590,10 28/02/2022
454 205100 CARLOS HENRIQUE ESTEVES OFICIAL DO MP ITAMBACURI - COMARCA; ITAMBACURI-PJ-01PJ 16.750,82 6.700,33 0,00 0,00 0,00 0,00 515,93 7.345,28 31.312,36 3.545,40 4.552,58 0,00 0,00 8.097,98 23.214,38 28/02/2022
455 351600 CARLOS HENRIQUE FELICIO DA FONSECA OFICIAL DO MP JUIZ DE FORA - COMARCA; JUIZ DE FORA-PJ-21PJ 10.069,62 3.020,89 0,00 0,00 0,00 0,00 527,98 7.476,82 21.095,31 1.887,70 2.159,28 0,00 0,00 4.046,98 17.048,33 28/02/2022
456 85400 CARLOS JOSE VIEIRA OFICIAL DO MP BELO HORIZONTE - COMARCA; DIRETORIA DO COLEGIO E DA CAMARA DE PJ 23.757,25 19.005,81 0,00 0,00 0,00 0,00 520,11 7.390,96 50.674,13 5.467,17 7.379,28 7.300,84 0,00 20.147,29 30.526,84 28/02/2022
457 229100 CARLOS MERCES DE OLIVEIRA ANALISTA DO MP BELO HORIZONTE - COMARCA; CENTRAL DE APOIO TECN-SETOR DE MEIO AMBIENTE 18.820,14 7.528,06 0,00 0,00 0,00 0,00 0,00 1.717,00 28.065,20 4.008,93 4.128,86 0,00 0,00 8.137,79 19.927,41 28/02/2022
458 538300 CARLOS RANGEL SILVA DE MELO ANALISTA DO MP BELO HORIZONTE - COMARCA; DIVISAO DE CONTROLE IMOBILIARIO 9.444,70 2.833,41 0,00 0,00 0,00 0,00 0,00 2.602,30 14.880,41 1.757,71 2.023,75 0,00 0,00 3.781,46 11.098,95 28/02/2022
459 265100 CARLOS REIFF MIRANDA ANALISTA DO MP BELO HORIZONTE - COMARCA; BH-19PJ SAUDE-SECRETARIA 150PJ 18.820,14 5.646,04 0,00 0,00 0,00 0,00 0,00 1.717,00 26.183,18 3.707,80 4.839,19 0,00 0,00 8.546,99 17.636,19 28/02/2022
460 305400 CARLOS ROCHA DE SOUZA OFICIAL DO MP MONTALVÂNIA - COMARCA; MONTALVANIA-PJ-SECRETARIA 6.123,79 1.837,14 0,00 0,00 2.653,64 0,00 204,33 3.946,06 14.764,96 1.066,96 1.547,68 0,00 0,00 2.614,64 12.150,32 28/02/2022
461 399900 CARMELITA EVANGELISTA DE SOUZA OFICIAL DO MP JOÃO PINHEIRO - COMARCA; JOAO PINHEIRO-PJ-01PJ 8.579,10 1.715,82 0,00 0,00 0,00 0,00 415,23 6.246,76 16.956,91 1.440,40 1.565,63 0,00 0,00 3.006,03 13.950,88 28/02/2022
462 202000 CARMEN LUCIA MARIZ DE MACEDO OFICIAL DO MP BELO HORIZONTE - COMARCA; DIRETORIA GESTAO COMPRAS LICITACOES 15.272,02 10.690,41 0,00 0,00 0,00 0,00 0,00 1.717,00 27.679,43 3.947,20 5.080,55 0,00 0,00 9.027,75 18.651,68 28/02/2022
463 701900 CAROLINA CARVALHO COSTA ASSESSOR PROCURADOR JUSTICA BELO HORIZONTE - COMARCA; GABINETE DE PROCURADOR DE JUSTIÇA - SALA 811 0,00 0,00 7.187,72 0,00 0,00 0,00 0,00 1.717,00 8.904,72 828,38 1.208,91 0,00 0,00 2.037,29 6.867,43 28/02/2022
464 228500 CAROLINA CHIARELLA DOS SANTOS RIBEIRO COORDENADOR/OFICIAL BELO HORIZONTE - COMARCA; DIVISAO TRANSPORTES 10.069,62 3.020,89 2.363,83 0,00 0,00 0,00 0,00 1.717,00 17.171,34 1.887,70 2.757,19 0,00 0,00 4.644,89 12.526,45 28/02/2022
465 446500 CAROLINA COSTA VAL RODRIGUES COORDENADOR/ANALISTA BELO HORIZONTE - COMARCA; DIVISAO DE MATERIAIS 13.011,52 2.602,30 2.363,83 0,00 0,00 0,00 527,34 7.469,85 25.974,84 2.291,42 3.444,35 0,00 0,00 5.735,77 20.239,07 28/02/2022
466 603501 CAROLINA DOMINGOS BRANDAO RABELLO ANALISTA DO MP BARROSO - COMARCA; BARROSO-PJ-01PJ 9.444,70 944,47 0,00 0,00 0,00 0,00 0,00 1.717,00 12.106,17 1.455,48 1.587,40 0,00 0,00 3.042,88 9.063,29 28/02/2022
467 404300 CAROLINA DOS SANTOS VIEIRA ANALISTA DO MP BELO HORIZONTE - COMARCA; BH-08PJ JUIZADO ESPECIAL-SECRETARIA 14.790,66 2.958,13 0,00 0,00 0,00 0,00 0,00 1.717,00 19.465,79 2.633,02 3.183,20 0,00 0,00 5.816,22 13.649,57 28/02/2022
468 551200 CAROLINA LOPES ARANTES MASCARENHAS ANALISTA DO MP BELO HORIZONTE - COMARCA; EXTINTA-COORD EST DEF DIR FAM PES DEFIC IDOSO 9.444,70 944,47 0,00 0,00 0,00 0,00 0,00 2.602,30 12.991,47 1.455,48 1.483,13 0,00 0,00 2.938,61 10.052,86 28/02/2022
469 622600 CAROLINA LOREDO LOPES CATIZANI OFICIAL DO MP RIBEIRÃO DAS NEVES - COMARCA; RIBEIRAO DAS NEVES-PJ-12PJ 5.387,19 538,72 0,00 0,00 0,00 0,00 0,00 1.717,00 7.642,91 749,48 554,16 0,00 0,00 1.303,64 6.339,27 28/02/2022
470 382200 CAROLINA MENDES CHAVES LIN ANALISTA DO MP BELO HORIZONTE - COMARCA; BH-12PJ JUIZO CRIMINAL-GAB 088PJ 10.069,62 2.013,92 0,00 0,00 0,00 0,00 0,00 2.602,30 14.685,84 1.726,58 1.926,67 0,00 0,00 3.653,25 11.032,59 28/02/2022
471 461900 CAROLINA MURTA TEIXEIRA DIAS ANALISTA DO MP BELO HORIZONTE - COMARCA; CENTRO AUTOCOMPOSICAO DE CONFLITOS 10.069,62 2.013,92 0,00 0,00 0,00 0,00 0,00 1.717,00 13.800,54 1.726,58 1.978,80 0,00 0,00 3.705,38 10.095,16 28/02/2022
472 509600 CAROLINA PINTO DE OLIVEIRA SOUZA ANALISTA DO MP MURIAÉ - COMARCA; MURIAE-PJ-01PJ 10.069,62 2.013,92 0,00 0,00 0,00 0,00 531,68 8.402,40 21.017,62 1.726,58 1.874,53 0,00 0,00 3.601,11 17.416,51 28/02/2022
473 629100 CAROLINA RODRIGUES AMARAL ANALISTA DO MP BELO HORIZONTE - COMARCA; PROC. JUSTICA DIR. DIFUSOS E COLETIVOS-SEC 9.146,93 914,69 0,00 0,00 0,00 0,00 0,00 1.717,00 11.778,62 1.403,07 1.511,74 0,00 0,00 2.914,81 8.863,81 28/02/2022
474 502600 CAROLINA RODRIGUES RUBEN ANALISTA DO MP BELO HORIZONTE - COMARCA; BH-18PJ VIOLENCIA DOMESTICA-GAB 007PJ 10.069,62 2.013,92 0,00 0,00 0,00 0,00 531,68 9.287,70 21.902,92 1.726,58 1.874,53 0,00 0,00 3.601,11 18.301,81 28/02/2022
475 529600 CAROLINA VAZ DE MELO MAMBRINI ANALISTA DO MP BELO HORIZONTE - COMARCA; BH-14PJ DEFESA CONSUMIDOR-GAB 005PJ 9.444,70 944,47 0,00 0,00 0,00 0,00 0,00 1.717,00 12.106,17 1.455,48 1.587,40 0,00 0,00 3.042,88 9.063,29 28/02/2022
476 619100 CAROLINA ZAKHIA NARDELLI RODRIGUES ANALISTA DO MP NEPOMUCENO - COMARCA; NEPOMUCENO-PJ-UNPJ 9.146,93 914,69 0,00 0,00 0,00 0,00 36,89 3.004,76 13.103,27 1.403,07 1.511,74 0,00 0,00 2.914,81 10.188,46 28/02/2022
477 517600 CAROLINE ALVES DE OLIVEIRA MULLER ANALISTA DO MP VISCONDE DO RIO BRANCO - COMARCA; VISCONDE DO RIO BRANCO-PJ-01PJ 10.069,62 2.013,92 0,00 0,00 0,00 0,00 132,92 3.167,02 15.383,48 1.726,58 1.926,67 0,00 0,00 3.653,25 11.730,23 28/02/2022
478 373200 CAROLINE ANTUNES RIBEIRO OFICIAL DO MP JACUI - COMARCA; JACUI-PJ-UNPJ 9.146,93 1.829,39 0,00 0,00 0,00 0,00 482,96 6.985,63 18.444,91 1.549,42 1.618,76 0,00 0,00 3.168,18 15.276,73 28/02/2022
479 556800 CAROLINE DE SOUZA CARDOSO DOMINGUES OFICIAL DO MP BRASÍLIA DE MINAS - COMARCA; BRASILIA DE MINAS-PJ-02PJ 6.123,79 612,38 0,00 0,00 0,00 0,00 0,00 1.717,00 8.453,17 872,76 743,08 0,00 0,00 1.615,84 6.837,33 28/02/2022
480 499400 CAROLINE MARQUES DE LOURDES MARZULLO OFICIAL DO MP JUIZ DE FORA - COMARCA; JUIZ DE FORA-PJ-08PJ 7.912,85 1.582,57 0,00 0,00 0,00 0,00 0,00 3.044,95 12.540,37 927,17 1.437,24 0,00 0,00 2.364,41 10.175,96 28/02/2022
481 616800 CAROLINE MONTEIRO DE BARROS ANALISTA DO MP CONTAGEM - COMARCA; CONTAGEM-PJ-11PJ 9.146,93 914,69 0,00 0,00 0,00 0,00 36,89 2.119,46 12.217,97 927,17 1.581,27 0,00 0,00 2.508,44 9.709,53 28/02/2022
482 618100 CAROLINE VASCONCELOS COSTA LANZA ANALISTA DO MP PARAOPEBA - COMARCA; PARAOPEBA-PJ-UNPJ 9.146,93 914,69 0,00 0,00 0,00 0,00 0,00 4.372,90 14.434,52 1.403,07 1.511,74 0,00 0,00 2.914,81 11.519,71 28/02/2022
483 699000 CAROLLINA RODRIGUES SOUTO AMARAL ASSESSOR PROCURADOR JUSTICA BELO HORIZONTE - COMARCA; GABINETE DE PROCURADOR DE JUSTIÇA - SALA 405 0,00 0,00 7.187,72 0,00 2.395,91 0,00 0,00 1.717,00 11.300,63 828,38 1.867,78 0,00 0,00 2.696,16 8.604,47 28/02/2022
484 604000 CASSIA APARECIDA DA SILVA OFICIAL DO MP PARACATU - COMARCA; PARACATU-PJ-01PJ 6.123,79 612,38 0,00 0,00 0,00 0,00 0,00 1.717,00 8.453,17 872,76 743,08 0,00 0,00 1.615,84 6.837,33 28/02/2022
485 268800 CASSIA BEATRIZ TEIXEIRA OFICIAL DO MP BELO HORIZONTE - COMARCA; PROC JUST ESP ACOES COMP ORIG CRIMINAL-SEC 13.011,52 3.903,46 0,00 0,00 0,00 0,00 496,17 7.129,79 24.540,94 2.499,61 3.094,87 0,00 0,00 5.594,48 18.946,46 28/02/2022
486 500000 CASSIA DE OLIVEIRA COSTA VIANA ANALISTA DO MP SETE LAGOAS - COMARCA; SETE LAGOAS-PJ-09PJ 10.069,62 5.034,81 0,00 0,00 0,00 0,00 0,00 1.717,00 16.821,43 2.209,92 2.676,63 0,00 0,00 4.886,55 11.934,88 28/02/2022
487 368800 CASSIA LUISA BATISTA MENDONCA WEBER OFICIAL DO MP BELO HORIZONTE - COMARCA; DIVISÃO DE EDUCAÇÃO PARA O CONSUMO 8.436,53 1.687,31 0,00 0,00 0,00 0,00 0,00 1.717,00 11.840,84 1.413,03 1.526,11 0,00 0,00 2.939,14 8.901,70 28/02/2022
488 622200 CASSIA VAZ DE AZEVEDO LISBOA MARZANO ASSESSOR BELO HORIZONTE - COMARCA; CGMP-SECRETARIA DA CORREGEDORIA-GERAL DO MP 0,00 0,00 3.076,28 0,00 0,00 0,00 0,00 2.602,30 5.678,58 434,57 135,84 0,00 0,00 570,41 5.108,17 28/02/2022
489 121000 CASSIO HENRIQUE AFONSO DA SILVA OFICIAL DO MP BELO HORIZONTE - COMARCA; CGMP-ASSESSORIA JURIDICA 18.820,14 13.174,10 0,00 0,00 0,00 0,00 469,25 6.836,08 39.299,57 4.912,29 6.473,90 0,00 0,00 11.386,19 27.913,38 28/02/2022
490 512001 CATARINA NATALINO CALIXTO COORDENADOR/ANALISTA BELO HORIZONTE - COMARCA; DIRETORIA GESTAO TRANSPORTES 0,00 1.343,52 13.435,16 0,00 0,00 0,00 0,00 1.717,00 16.495,68 1.403,07 2.808,93 0,00 0,00 4.212,00 12.283,68 28/02/2022
491 606200 CATARINE DE SIQUEIRA DE QUADROS ANALISTA DO MP CONTAGEM - COMARCA; CONTAGEM-PJ-07PJ 9.444,70 944,47 0,00 0,00 0,00 0,00 419,03 7.173,53 17.981,73 1.455,48 1.483,13 0,00 0,00 2.938,61 15.043,12 28/02/2022
492 622300 CECILIA APARECIDA PEREIRA ASSUNCAO OFICIAL DO MP TRÊS PONTAS - COMARCA; TRES PONTAS-PJ-SECRETARIA 5.930,75 593,08 0,00 0,00 0,00 0,00 71,76 3.385,16 9.980,75 839,85 641,60 0,00 0,00 1.481,45 8.499,30 28/02/2022
493 538000 CECILIA FONTES DE MATOS PIMENTEL ANALISTA DO MP PALMA - COMARCA; PALMA-PJ-UNPJ 9.444,70 944,47 0,00 0,00 0,00 0,00 533,31 8.420,24 19.342,72 1.455,48 1.587,40 0,00 0,00 3.042,88 16.299,84 28/02/2022
494 261300 CECILIO ANTONIO CAMPOS DOS REIS ANALISTA DO MP BELO HORIZONTE - COMARCA; AUDITORIA INTERNA 18.820,14 5.646,04 0,00 0,00 0,00 0,00 538,26 7.588,88 32.593,32 3.707,80 4.839,19 0,00 0,00 8.546,99 24.046,33 28/02/2022
495 386400 CEFAS AMORELI DE FIGUEIREDO OFICIAL DO MP CABO VERDE - COMARCA; CABO VERDE-PJ-SECRETARIA 6.123,79 1.224,76 0,00 0,00 2.449,52 0,00 0,00 1.717,00 11.515,07 968,98 1.558,64 0,00 0,00 2.527,62 8.987,45 28/02/2022
496 149000 CELIA MAGALHAES CLAROS SOSSI OFICIAL DO MP GOVERNADOR VALADARES - COMARCA; GAECO REGIONAL DE GOVERNADOR VALADARES 17.413,92 12.189,74 0,00 0,00 0,00 4.529,80 542,73 7.637,73 42.313,92 4.529,80 7.271,65 0,00 0,00 11.801,45 30.512,47 28/02/2022
497 421000 CELINA BENEDITA DE SOUZA ALMEIDA OFICIAL DO MP CAMBUÍ - COMARCA; CAMBUI-PJ-01PJ 8.858,43 4.429,21 0,00 0,00 0,00 0,00 535,93 7.563,56 21.387,13 1.919,24 2.204,81 0,00 0,00 4.124,05 17.263,08 28/02/2022
498 252900 CELIO DE MELO CASTOR ANALISTA DO MP BELO HORIZONTE - COMARCA; DIVISAO FROTA 18.820,14 5.646,04 0,00 0,00 0,00 0,00 0,00 1.717,00 26.183,18 3.707,80 4.839,19 0,00 0,00 8.546,99 17.636,19 28/02/2022
499 395700 CELIO FERREIRA LIMA OFICIAL DO MP CONTAGEM - COMARCA; CONTAGEM-PJ-SECRETARIA 9.444,70 1.888,94 0,00 0,00 0,00 0,00 0,00 1.717,00 13.050,64 1.606,60 1.753,44 0,00 0,00 3.360,04 9.690,60 28/02/2022
500 281300 CELMA REGINA PEREIRA SANTOS ANALISTA DO MP BELO HORIZONTE - COMARCA; PROMOT ESTADUAL DE DEF PATRI CULT E TUR DE MG 18.820,14 5.646,04 0,00 0,00 0,00 0,00 0,00 1.717,00 26.183,18 3.707,80 4.839,19 0,00 0,00 8.546,99 17.636,19 28/02/2022
501 535600 CELSO MEDEIROS DE PAIVA OFICIAL DO MP RIO PRETO - COMARCA; RIO PRETO-PJ-SECRETARIA 5.562,64 556,26 0,00 0,00 0,00 0,00 22,44 2.120,52 8.261,86 778,43 547,13 0,00 0,00 1.325,56 6.936,30 28/02/2022
502 367000 CESAR NARVAES DE AVELAR OFICIAL DO MP BELO HORIZONTE - COMARCA; DIVISAO DE MEMORIA INSTITUCIONAL 10.069,62 3.020,89 0,00 0,00 0,00 0,00 0,00 1.717,00 14.807,51 1.887,70 2.211,41 0,00 0,00 4.099,11 10.708,40 28/02/2022
503 226500 CESAR SILVEIRA BARROUIN OFICIAL DO MP BELO HORIZONTE - COMARCA; DIRETORIA DE ADMINISTRACAO FINANCEIRA 13.011,52 5.204,61 0,00 0,00 0,00 0,00 534,34 7.546,16 26.296,63 2.707,79 3.395,43 0,00 0,00 6.103,22 20.193,41 28/02/2022
504 121400 CEZAR MORENO CONCEICAO TAVARES OFICIAL DO MP BELO HORIZONTE - COMARCA; COORD DE INCLUSAO E MOBILIZACAO SOCIAIS 17.413,92 12.189,74 0,00 0,00 0,00 0,00 542,73 8.523,03 38.669,42 4.529,80 5.921,68 0,00 0,00 10.451,48 28.217,94 28/02/2022
505 243800 CHARLES MARTINS MUNIZ OFICIAL DO MP BELO HORIZONTE - COMARCA; LAB TECNOLOGIA CONTRA LAVAGEM DINHEIRO 13.011,52 5.204,61 0,00 0,00 0,00 0,00 534,34 7.027,16 25.777,63 2.707,79 3.395,43 0,00 0,00 6.103,22 19.674,41 28/02/2022
506 193500 CHARLIN CESAR KOURLY OFICIAL DO MP ARAGUARI - COMARCA; ARAGUARI-PJ-07PJ 16.750,82 6.700,33 0,00 0,00 0,00 0,00 515,93 7.345,28 31.312,36 3.545,40 4.604,72 0,00 0,00 8.150,12 23.162,24 28/02/2022
507 385500 CHILLEN PEIXOTO DE MOURA OFICIAL DO MP BELO HORIZONTE - COMARCA; DIVISAO DE MATERIAIS 9.444,70 1.888,94 0,00 0,00 0,00 0,00 0,00 2.602,30 13.935,94 1.606,60 1.805,58 0,00 0,00 3.412,18 10.523,76 28/02/2022
508 534500 CHRISTIAN DOUGLAS BRITO RUAS OFICIAL DO MP SÃO JOÃO DA PONTE - COMARCA; SAO JOAO DA PONTE-PJ-SECRETARIA 6.123,79 612,38 0,00 0,00 0,00 0,00 74,10 2.525,34 9.335,61 872,76 743,08 0,00 0,00 1.615,84 7.719,77 28/02/2022
509 370600 CHRISTIAN KARINE FELIX PRATES ASSESSOR BELO HORIZONTE - COMARCA; SUPRIN DE PLANEJAMENTO E COORDENACAO 0,00 0,00 10.397,52 0,00 0,00 0,00 0,00 1.717,00 12.114,52 828,38 2.091,60 0,00 0,00 2.919,98 9.194,54 28/02/2022
510 435800 CHRISTIANA BAHIA ANDRADE PINA ANALISTA DO MP BELO HORIZONTE - COMARCA; LABORATORIO TECNOLOGIA INTELIGENCIA 14.324,23 2.864,85 0,00 0,00 0,00 0,00 504,21 8.102,81 25.796,10 2.543,47 3.158,18 0,00 0,00 5.701,65 20.094,45 28/02/2022
511 516800 CHRISTIANE FERREIRA DO NASCIMENTO ANALISTA DO MP POUSO ALEGRE - COMARCA; POUSO ALEGRE-PJ-08PJ 10.069,62 2.013,92 0,00 0,00 0,00 0,00 0,00 1.717,00 13.800,54 1.726,58 1.978,80 0,00 0,00 3.705,38 10.095,16 28/02/2022
512 176000 CHRISTIANE JUNQUEIRA PULITI ANDRADE DE BARROS ASSESSOR BELO HORIZONTE - COMARCA; PROCURADORIA-GERAL ADJUNTA INSTITUCIONAL 0,00 13.931,13 17.413,92 0,00 0,00 4.808,42 0,00 1.717,00 37.870,47 4.808,42 7.750,53 0,00 0,00 12.558,95 25.311,52 28/02/2022
513 319200 CHRISTIANE MARIA DE ASSIS RUSSO OFICIAL DO MP BELO HORIZONTE - COMARCA; CAO-ORDEM ECONOMICA E TRIBUTARIA-SECRETARIA 12.204,02 3.661,21 0,00 0,00 0,00 0,00 0,00 2.602,30 18.467,53 2.331,65 2.800,24 0,00 0,00 5.131,89 13.335,64 28/02/2022
514 510300 CHRISTIANE MARY DE CARVALHO FERREIRA ANALISTA DO MP BELO HORIZONTE - COMARCA; DIRETORIA DE SISTEMAS DE INFORMACAO 10.069,62 2.013,92 0,00 0,00 0,00 0,00 0,00 1.717,00 13.800,54 1.726,58 1.926,67 0,00 0,00 3.653,25 10.147,29 28/02/2022
515 424900 CHRISTIANE PEREIRA TURNER DE ARAUJO OFICIAL DO MP BELO HORIZONTE - COMARCA; CAO-PATRIMONIO PUBLICO 8.858,43 1.771,69 0,00 0,00 0,00 0,00 428,75 7.279,55 18.338,42 1.494,03 1.538,79 0,00 0,00 3.032,82 15.305,60 28/02/2022
516 513700 CHRISTIANE VIEIRA SOARES PEDERSOLI COORDENADOR/ANALISTA BELO HORIZONTE - COMARCA; ASSESSORIA JURIDICA DO PROCON-MG 10.069,62 2.013,92 2.363,83 0,00 0,00 0,00 0,00 1.717,00 16.164,37 1.726,58 2.628,86 0,00 0,00 4.355,44 11.808,93 28/02/2022
517 412300 CHRYSTIAN MACHADO RIBEIRO ANALISTA DO MP VARGINHA - COMARCA; VARGINHA-PJ-04PJ 14.324,23 2.864,85 0,00 0,00 0,00 0,00 504,21 7.217,51 24.910,80 2.543,47 3.158,18 0,00 0,00 5.701,65 19.209,15 28/02/2022
518 513800 CHRYSTIANE DO NASCIMENTO DE MAGALHAES OFICIAL DO MP UBERLÂNDIA - COMARCA; UBERLANDIA-PJ-10PJ 7.663,37 1.532,67 0,00 0,00 0,00 0,00 303,47 5.027,57 14.527,08 1.264,58 1.207,52 0,00 0,00 2.472,10 12.054,98 28/02/2022
519 497900 CIBELE DE FREITAS SANCHES DIAS ANALISTA DO MP SABARÁ - COMARCA; SABARA-PJ-03PJ 10.069,62 2.013,92 0,00 0,00 0,00 0,00 531,68 7.517,10 20.132,32 927,17 2.043,46 0,00 0,00 2.970,63 17.161,69 28/02/2022
520 500900 CIBELLE SILVA PRADO ALVARENGA ANALISTA DO MP ITANHANDU - COMARCA; ITANHANDU-PJ-UNPJ 10.069,62 2.013,92 0,00 0,00 0,00 0,00 531,68 8.402,40 21.017,62 1.726,58 1.978,80 0,00 0,00 3.705,38 17.312,24 28/02/2022
521 296400 CINTIA APARECIDA MOREIRA NAVES E RODRIGUES ANALISTA DO MP CAMPO BELO - COMARCA; CAMPO BELO-PJ-01PJ 18.103,37 5.431,01 0,00 0,00 0,00 0,00 517,76 7.365,25 31.417,39 3.558,71 4.623,95 0,00 0,00 8.182,66 23.234,73 28/02/2022
522 407900 CINTIA NETO COMELLI ANALISTA DO MP BELO HORIZONTE - COMARCA; CENTRAL DE APOIO TECNICO-SETOR CONTABIL 14.324,23 2.864,85 0,00 0,00 0,00 0,00 0,00 1.717,00 18.906,08 2.543,47 3.106,05 0,00 0,00 5.649,52 13.256,56 28/02/2022
523 304700 CINTIA QUEIROZ OFICIAL DO MP BELO HORIZONTE - COMARCA; OUVIDORIA DO MPMG 10.069,62 3.020,89 0,00 0,00 0,00 0,00 527,98 7.476,82 21.095,31 1.887,70 2.211,41 0,00 0,00 4.099,11 16.996,20 28/02/2022
524 286100 CIRO CANGUSSU CORDEIRO OFICIAL DO MP IPATINGA - COMARCA; IPATINGA-PJ-09PJ 7.912,85 2.373,86 0,00 0,00 0,00 0,00 0,00 2.602,30 12.889,01 1.439,09 1.459,46 0,00 0,00 2.898,55 9.990,46 28/02/2022
525 689900 CISSA NOGUEIRA NUNES ASSESSOR PROCURADOR JUSTICA BELO HORIZONTE - COMARCA; GABINETE DE PROCURADOR DE JUSTIÇA - SALA 608 0,00 0,00 7.187,72 0,00 0,00 0,00 0,00 1.717,00 8.904,72 828,38 1.208,91 0,00 0,00 2.037,29 6.867,43 28/02/2022
526 681700 CLARA FERREIRA ALKIMIM ASSESSOR PROMOTOR JUSTICA PEDRA AZUL - COMARCA; PEDRA AZUL-PJ-02PJ 0,00 0,00 7.187,72 0,00 2.395,91 0,00 395,32 6.029,63 16.008,58 808,92 1.873,14 0,00 0,00 2.682,06 13.326,52 28/02/2022
527 715500 CLARA ISABELLE SOUSA FARIA ASSESSOR PROCURADOR JUSTICA BELO HORIZONTE - COMARCA; GABINETE DE PROCURADOR DE JUSTIÇA - SALA 714 0,00 0,00 7.187,72 0,00 0,00 0,00 4.312,63 2.998,36 14.498,71 828,38 2.604,53 0,00 0,00 3.432,91 11.065,80 28/02/2022
528 695500 CLARA RODRIGUES BLACH ASSESSOR PROCURADOR JUSTICA BELO HORIZONTE - COMARCA; GABINETE DE PROCURADOR DE JUSTIÇA - SALA 1003 0,00 0,00 7.187,72 0,00 0,00 0,00 0,00 1.717,00 8.904,72 828,38 1.208,91 0,00 0,00 2.037,29 6.867,43 28/02/2022
529 412500 CLARICE GOMES MAROTTA ANALISTA DO MP BELO HORIZONTE - COMARCA; COORD ESTADUAL DE DEFESA DOS ANIMAIS 14.324,23 4.297,27 0,00 0,00 0,00 0,00 546,23 7.675,88 26.843,61 2.772,65 3.489,07 0,00 0,00 6.261,72 20.581,89 28/02/2022
530 605300 CLARISSA AZEVEDO ROCHA OFICIAL DO MP BELO HORIZONTE - COMARCA; BH-17PJ PATRIMONIO PUBLICO-SECRETARIA 6.123,79 612,38 0,00 0,00 0,00 0,00 0,00 1.717,00 8.453,17 872,76 743,08 0,00 0,00 1.615,84 6.837,33 28/02/2022
531 308100 CLARISSA DUARTE BELLONI DIRETOR/ANALISTA BELO HORIZONTE - COMARCA; DIRETORIA-GERAL 0,00 7.409,35 24.697,83 0,00 0,00 0,00 470,91 9.510,05 42.088,14 3.558,71 6.877,19 0,00 0,00 10.435,90 31.652,24 28/02/2022
532 497100 CLARISSA ROCHA GUIDI ANALISTA DO MP BELO HORIZONTE - COMARCA; BH-02PJ FAMILIA-SECRETARIA 11.085,56 2.217,11 0,00 0,00 0,00 0,00 0,00 3.487,60 16.790,27 1.921,64 2.208,29 0,00 0,00 4.129,93 12.660,34 28/02/2022
533 641800 CLARISSE TAVARES GONCALVES OFICIAL DO MP BELO HORIZONTE - COMARCA; BH-07PJ 01 TRIBUNAL JURI-SECRETARIA 5.387,19 538,72 0,00 0,00 0,00 0,00 0,00 1.717,00 7.642,91 749,48 554,16 0,00 0,00 1.303,64 6.339,27 28/02/2022
534 463700 CLAUDIA ADRIANA FERRAO DIAS ANALISTA DO MP SETE LAGOAS - COMARCA; SETE LAGOAS-PJ-06PJ 10.069,62 2.013,92 0,00 0,00 0,00 0,00 0,00 1.717,00 13.800,54 1.726,58 1.978,80 0,00 0,00 3.705,38 10.095,16 28/02/2022
535 415400 CLAUDIA ALMEIDA DE VASCONCELLOS BARROS ASSESSOR/OFICIAL BELO HORIZONTE - COMARCA; DIVISAO DE SERVICOS 0,00 2.079,50 10.397,52 0,00 0,00 0,00 691,15 7.705,97 20.874,14 1.789,54 2.069,70 0,00 0,00 3.859,24 17.014,90 28/02/2022
536 207000 CLAUDIA APARECIDA VILELA MACHADO ANALISTA DO MP BELO HORIZONTE - COMARCA; CENTRAL DE APOIO TECNICO-SETOR CONTABIL 18.820,14 7.528,06 0,00 0,00 8.782,73 0,00 483,05 6.986,64 42.600,62 4.008,93 7.532,78 0,00 0,00 11.541,71 31.058,91 28/02/2022
537 365700 CLAUDIA BREGUEZ CUNHA ANALISTA DO MP VARGINHA - COMARCA; VARGINHA-PJ-07PJ 15.272,02 4.581,61 0,00 0,00 0,00 0,00 509,58 9.879,62 30.242,83 2.969,79 3.773,69 0,00 0,00 6.743,48 23.499,35 28/02/2022
538 430500 CLAUDIA CECILIA SANTANA VENCESLAU OFICIAL DO MP BELO HORIZONTE - COMARCA; DIRETORIA DE INTELIGENCIA 8.858,43 1.771,69 0,00 0,00 0,00 0,00 545,68 7.669,87 18.845,67 1.494,03 1.590,93 0,00 0,00 3.084,96 15.760,71 28/02/2022
539 480400 CLAUDIA GOULART DE SOUZA OFICIAL DO MP PASSOS - COMARCA; PASSOS-PJ-06PJ 7.912,85 1.582,57 0,00 0,00 0,00 0,00 348,17 5.515,17 15.358,76 1.312,48 1.380,95 0,00 0,00 2.693,43 12.665,33 28/02/2022
540 519800 CLAUDIA HELENA CORREA DE ALMEIDA ANALISTA DO MP BELO HORIZONTE - COMARCA; BH-12PJ JUIZO CRIMINAL-GAB 096PJ 10.069,62 2.013,92 0,00 0,00 0,00 0,00 1.538,64 8.040,72 21.662,90 1.887,69 2.211,41 0,00 0,00 4.099,10 17.563,80 28/02/2022
541 422100 CLAUDIA IACOMINI CABRAL ANALISTA DO MP BELO HORIZONTE - COMARCA; CENT DE APOIO TEC-SETOR DEF,IDOSO E INFANC 14.324,23 10.026,96 0,00 0,00 8.117,06 0,00 0,00 1.717,00 34.185,25 3.689,40 7.044,82 0,00 0,00 10.734,22 23.451,03 28/02/2022
542 258200 CLAUDIA LAGE MICHALAROS ANALISTA DO MP BELO HORIZONTE - COMARCA; CENTRAL DE APOIO TECN-SETOR DE MEIO AMBIENTE 18.820,14 13.174,10 0,00 0,00 0,00 4.912,29 469,25 6.836,08 44.211,86 4.912,29 7.876,92 0,00 0,00 12.789,21 31.422,65 28/02/2022
543 284600 CLAUDIA LENI DE FREITAS OFICIAL DO MP CONTAGEM - COMARCA; CONTAGEM-PJ-SECRETARIA 6.123,79 2.449,52 0,00 0,00 0,00 0,00 0,00 1.717,00 10.290,31 1.164,94 1.167,94 0,00 0,00 2.332,88 7.957,43 28/02/2022
544 433600 CLAUDIA LUIZA SANTIAGO FELICIO ANALISTA DO MP BELO HORIZONTE - COMARCA; CENT DE APOIO TEC-SETOR DEF,IDOSO E INFANC 14.324,23 2.864,85 0,00 0,00 0,00 0,00 0,00 1.717,00 18.906,08 2.543,47 3.053,91 0,00 0,00 5.597,38 13.308,70 28/02/2022
545 317000 CLAUDIA MACHADO ALVES ASSESSOR/OFICIAL BELO HORIZONTE - COMARCA; DIR GOVERNANCA TECNOLOGIA INFORMACAO 0,00 3.119,26 10.397,52 0,00 0,00 0,00 874,26 7.664,38 22.055,42 1.635,77 2.397,92 0,00 0,00 4.033,69 18.021,73 28/02/2022
546 155300 CLAUDIA MACIEL MIRANDA OFICIAL DO MP CONGONHAS - COMARCA; CONGONHAS-PJ-02PJ 17.413,92 8.706,96 0,00 0,00 0,00 0,00 478,88 6.941,18 33.540,94 3.972,55 5.117,15 0,00 0,00 9.089,70 24.451,24 28/02/2022
547 242200 CLAUDIA MICHELLE DIAS MUNIZ BALEEIRO OFICIAL DO MP MONTE AZUL - COMARCA; MONTE AZUL-PJ-SECRETARIA 13.011,52 5.204,61 0,00 0,00 12.144,08 0,00 534,34 7.546,16 38.440,71 2.707,79 6.682,92 0,00 0,00 9.390,71 29.050,00 28/02/2022
548 623000 CLAUDIA PATRICIA SILVA RODRIGUES RAPOSEIRAS OFICIAL DO MP PARÁ DE MINAS - COMARCA; PARA DE MINAS-PJ-02PJ 5.930,75 593,08 0,00 0,00 0,00 0,00 0,00 2.602,30 9.126,13 839,85 641,60 0,00 0,00 1.481,45 7.644,68 28/02/2022
549 418400 CLAUDIA REGINA MARTINS BONIFACIO OFICIAL DO MP ITUIUTABA - COMARCA; ITUIUTABA-PJ-06PJ 8.858,43 1.771,69 0,00 0,00 0,00 0,00 428,75 6.394,25 17.453,12 1.494,03 1.538,79 0,00 0,00 3.032,82 14.420,30 28/02/2022
550 498300 CLAUDIA SOUTO FARIAS BRAUN OFICIAL DO MP TEÓFILO OTONI - COMARCA; TEOFILO OTONI-PJ-SECRETARIA 6.123,79 1.224,76 0,00 0,00 0,00 0,00 134,72 3.186,71 10.669,98 968,98 780,75 0,00 0,00 1.749,73 8.920,25 28/02/2022
551 206500 CLAUDIA VALERIA FONSECA ANDRADE ANALISTA DO MP BELO HORIZONTE - COMARCA; BH-23PJ INF-FISC MED SOC FEC 18.820,14 9.410,07 0,00 0,00 0,00 4.310,05 0,00 1.717,00 34.257,26 4.310,05 6.893,95 0,00 0,00 11.204,00 23.053,26 28/02/2022
552 277500 CLAUDIO ANTONIO BORGES BRUNSWICK ALVARES OFICIAL DO MP BELO HORIZONTE - COMARCA; BH-15PJ M AMB 16PJ HAB URB-SECRETARIA 10.069,62 3.020,89 0,00 0,00 0,00 0,00 0,00 1.717,00 14.807,51 1.887,70 2.211,41 0,00 0,00 4.099,11 10.708,40 28/02/2022
553 444800 CLAUDIO ARESIO DO CARMO ANALISTA DO MP SETE LAGOAS - COMARCA; SETE LAGOAS-PJ-01PJ 11.085,56 4.434,22 0,00 0,00 0,00 0,00 512,15 7.304,12 23.336,05 2.276,38 2.720,44 0,00 0,00 4.996,82 18.339,23 28/02/2022
554 545100 CLAUDIO HENRIQUE MACEDO DE SOUZA FRANSOZO ANALISTA DO MP OURO PRETO - COMARCA; OURO PRETO-PJ-03PJ 9.444,70 944,47 0,00 0,00 0,00 0,00 0,00 2.602,30 12.991,47 927,17 1.664,59 0,00 0,00 2.591,76 10.399,71 28/02/2022
555 353500 CLAUDIO HENRIQUE PEDRO DA ROCHA OFICIAL DO MP BELO HORIZONTE - COMARCA; DIVISAO TRANSPORTES 10.069,62 3.020,89 0,00 0,00 0,00 0,00 0,00 1.717,00 14.807,51 1.887,70 2.107,14 0,00 0,00 3.994,84 10.812,67 28/02/2022
556 265800 CLAUDIO KUPIDLOWSKY FERNANDES OFICIAL DO MP BELO HORIZONTE - COMARCA; SECRETARIA DO PROCON-MG 10.069,62 3.020,89 0,00 0,00 0,00 0,00 527,98 7.476,82 21.095,31 1.887,70 938,00 0,00 0,00 2.825,70 18.269,61 28/02/2022
557 193600 CLAUDIO LEITE FONTES OFICIAL DO MP ITUIUTABA - COMARCA; ITUIUTABA-PJ-02PJ 10.069,62 4.027,85 0,00 0,00 0,00 0,00 516,91 7.355,99 21.970,37 2.048,81 2.110,72 0,00 0,00 4.159,53 17.810,84 28/02/2022
558 329400 CLAUDIO MARCIO BERNARDES OFICIAL DO MP ITAÚNA - COMARCA; ITAUNA-PJ-03PJ 10.069,62 7.048,73 0,00 0,00 0,00 0,00 439,37 7.395,44 24.953,16 2.532,15 3.089,71 0,00 0,00 5.621,86 19.331,30 28/02/2022
559 270200 CLAUDIO RABELO ALVES OFICIAL DO MP FORMIGA - COMARCA; FORMIGA-PJ-03PJ 11.085,56 3.325,67 0,00 0,00 0,00 0,00 528,41 7.481,49 22.421,13 2.099,01 2.307,95 0,00 0,00 4.406,96 18.014,17 28/02/2022
560 264700 CLAUDIO ROBERTO KFURI DE ARAUJO ANALISTA DO MP BELO HORIZONTE - COMARCA; CENTRAL DE APOIO TECNICO-SETOR DE INFORMATICA 18.820,14 5.646,04 0,00 0,00 0,00 0,00 0,00 1.717,00 26.183,18 3.707,80 4.734,92 0,00 0,00 8.442,72 17.740,46 28/02/2022
561 188600 CLAUDIO SALES OFICIAL DO MP NEPOMUCENO - COMARCA; NEPOMUCENO-PJ-SECRETARIA 15.272,02 12.217,62 0,00 0,00 0,00 0,00 0,00 1.717,00 29.206,64 4.191,56 5.537,61 0,00 0,00 9.729,17 19.477,47 28/02/2022
562 543300 CLAUDIO SILVA DE CARVALHO ANALISTA DO MP CAMPO BELO - COMARCA; CAMPO BELO-PJ-03PJ 8.579,10 857,91 0,00 0,00 0,00 0,00 346,02 5.491,80 15.274,83 1.303,14 1.315,32 0,00 0,00 2.618,46 12.656,37 28/02/2022
563 160700 CLAUDIO VICENTE HESS ASSESSOR BELO HORIZONTE - COMARCA; CENTRAL DE APOIO TECNICO-SETOR DE INFORMATICA 0,00 6.717,58 13.435,16 0,00 0,00 0,00 517,25 7.359,77 28.029,76 828,38 4.670,01 0,00 0,00 5.498,39 22.531,37 28/02/2022
564 312900 CLAUDIO VIEIRA FIRPE OFICIAL DO MP BELO HORIZONTE - COMARCA; DIR RELACOES INSTITUCIONAIS 10.069,62 3.020,89 0,00 0,00 0,00 0,00 527,98 7.476,82 21.095,31 1.887,70 2.211,41 0,00 0,00 4.099,11 16.996,20 28/02/2022
565 634100 CLEA CRISTINA GUERRA DE FREITAS COSTA OFICIAL DO MP BELO HORIZONTE - COMARCA; BH-18PJ VIOLENCIA DOMESTICA-SECRETARIA 5.387,19 538,72 0,00 0,00 0,00 0,00 543,21 8.528,21 14.997,33 749,48 502,02 0,00 0,00 1.251,50 13.745,83 28/02/2022
566 459200 CLEIA ZILLE PEREIRA ANALISTA DO MP BELO HORIZONTE - COMARCA; BH-07PJ 01 TRIBUNAL JURI-SECRETARIA 10.069,62 2.013,92 0,00 0,00 0,00 0,00 0,00 1.717,00 13.800,54 1.726,58 1.978,80 0,00 0,00 3.705,38 10.095,16 28/02/2022
567 481800 CLEIDE CARDOSO DA SILVA ANALISTA DO MP MANHUAÇU - COMARCA; MANHUACU-PJ-04PJ 10.069,62 2.013,92 0,00 0,00 0,00 0,00 0,00 1.717,00 13.800,54 1.726,58 1.874,53 0,00 0,00 3.601,11 10.199,43 28/02/2022
568 347600 CLEIDIMAR DE OLIVEIRA SILVA OFICIAL DO MP PATOS DE MINAS - COMARCA; PATOS DE MINAS-PJ-03PJ 9.752,14 2.925,64 0,00 0,00 0,00 0,00 511,34 7.295,22 20.484,34 1.821,66 1.907,52 0,00 0,00 3.729,18 16.755,16 28/02/2022
569 396500 CLEIDISON BATISTA DE ANDRADE OFICIAL DO MP RESPLENDOR - COMARCA; RESPLENDOR-PJ-UNPJ 8.858,43 1.771,69 0,00 0,00 0,00 0,00 428,75 6.394,25 17.453,12 1.494,03 1.538,79 0,00 0,00 3.032,82 14.420,30 28/02/2022
570 535100 CLEISON ALVES DA SILVA ANALISTA DO MP BOA ESPERANÇA - COMARCA; BOA ESPERANCA-PJ-01PJ 9.444,70 944,47 0,00 0,00 0,00 0,00 419,03 6.288,23 17.096,43 1.455,48 1.483,13 0,00 0,00 2.938,61 14.157,82 28/02/2022
571 298100 CLEONICE AUGUSTA BARROS DE OLIVEIRA ANALISTA DO MP JUIZ DE FORA - COMARCA; JUIZ DE FORA-PJ-08PJ 18.820,14 5.646,04 0,00 0,00 0,00 0,00 0,00 1.717,00 26.183,18 3.707,80 4.839,19 0,00 0,00 8.546,99 17.636,19 28/02/2022
572 264100 CLETO HENRIQUE ANDRADE SILVA ANALISTA DO MP BELO HORIZONTE - COMARCA; DIRETORIA DE SISTEMAS DE INFORMACAO 18.820,14 5.646,04 0,00 0,00 8.155,39 0,00 538,26 7.588,88 40.748,71 3.707,80 6.977,65 0,00 0,00 10.685,45 30.063,26 28/02/2022
573 334400 CLEUBA DE OLIVEIRA BARCELOS GONCALVES OFICIAL DO MP DIVINÓPOLIS - COMARCA; COORD REG SAUDE MACRORREGIAO SANITARIA OESTE 10.069,62 3.020,89 0,00 0,00 0,00 0,00 527,98 7.476,82 21.095,31 1.887,70 2.159,28 0,00 0,00 4.046,98 17.048,33 28/02/2022
574 347500 CLEUSA CORDEIRO DA MATA PIMENTA OFICIAL DO MP CAMPO BELO - COMARCA; CAMPO BELO-PJ-01PJ 10.069,62 8.055,69 0,00 0,00 0,00 2.693,26 531,68 7.517,10 28.867,35 2.693,26 4.010,83 0,00 0,00 6.704,09 22.163,26 28/02/2022
575 510200 CLEZIO SALES SILVA OFICIAL DO MP BRASÓPOLIS - COMARCA; BRASOPOLIS-PJ-UNPJ 6.123,79 1.224,76 0,00 0,00 0,00 0,00 134,72 4.957,31 12.440,58 968,98 885,02 0,00 0,00 1.854,00 10.586,58 28/02/2022
576 323000 CLOTILDE DE PADUA VIEIRA OFICIAL DO MP BELO HORIZONTE - COMARCA; BH-19PJ SAUDE-SECRETARIA 129PJ 9.146,93 2.744,08 0,00 0,00 0,00 0,00 0,00 1.717,00 13.608,01 1.695,78 1.934,33 0,00 0,00 3.630,11 9.977,90 28/02/2022
577 285200 CLOVIS ANDRE LUDTKE OFICIAL DO MP BELO HORIZONTE - COMARCA; DIVISAO DE MANUTENCAO PREDIAL 10.069,62 3.020,89 0,00 0,00 0,00 0,00 527,98 7.476,82 21.095,31 1.887,70 2.211,41 0,00 0,00 4.099,11 16.996,20 28/02/2022
578 381100 CONCEICAO APARECIDA TEIXEIRA ARANTES ANALISTA DO MP BELO HORIZONTE - COMARCA; BH-23PJ INFRACIONAL-ASS JURIDICA 14.324,23 2.864,85 0,00 0,00 0,00 0,00 1.767,96 1.717,00 20.674,04 2.826,34 3.514,45 0,00 0,00 6.340,79 14.333,25 28/02/2022
579 249900 CONSTANTINO CEZAR GOMES MOTA OFICIAL DO MP MONTES CLAROS - COMARCA; COORD REG BACIA RIOS VERDE GRANDE E PARDO 10.069,62 3.020,89 0,00 0,00 0,00 0,00 0,00 3.487,60 16.578,11 1.887,70 2.107,14 0,00 0,00 3.994,84 12.583,27 28/02/2022
580 481000 CRISHMA ANALIA LOMBELLO ANALISTA DO MP JUIZ DE FORA - COMARCA; JUIZ DE FORA-PJ-13PJ 10.069,62 2.013,92 0,00 0,00 0,00 0,00 0,00 1.717,00 13.800,54 1.726,58 1.926,67 0,00 0,00 3.653,25 10.147,29 28/02/2022
581 523900 CRISTHYANE BAZOLI COSTA GUEDES COUTO OFICIAL DO MP BELO HORIZONTE - COMARCA; BH-04PJ JUIZO REG PÚBLICOS-SECRETARIA 7.663,37 766,34 0,00 0,00 0,00 0,00 247,27 4.414,51 13.091,49 1.141,97 1.134,77 0,00 0,00 2.276,74 10.814,75 28/02/2022
582 187000 CRISTIAN DAYVSON EVANGELISTA OFICIAL DO MP JUIZ DE FORA - COMARCA; JUIZ DE FORA-PJ-13PJ 15.272,02 6.108,81 0,00 0,00 0,00 0,00 548,77 7.703,63 29.633,23 3.214,15 4.074,34 0,00 0,00 7.288,49 22.344,74 28/02/2022
583 682100 CRISTIAN TRISTAO DE ANDRADE ASSESSOR PROMOTOR JUSTICA TRÊS CORACOES - COMARCA; TRES CORACOES-PJ-04PJ 0,00 0,00 7.187,72 0,00 0,00 0,00 0,00 3.154,54 10.342,26 828,38 1.208,91 0,00 0,00 2.037,29 8.304,97 28/02/2022
584 319800 CRISTIANA GONCALVES DOS SANTOS GUSMAO OFICIAL DO MP PARAOPEBA - COMARCA; PARAOPEBA-PJ-UNPJ 10.069,62 3.020,89 0,00 0,00 0,00 0,00 0,00 1.717,00 14.807,51 1.887,70 2.107,14 0,00 0,00 3.994,84 10.812,67 28/02/2022
585 520600 CRISTIANA JANAINA BARBOZA JUVENCIO DOS SANTOS ANALISTA DO MP BELO HORIZONTE - COMARCA; BH-02PJ FAMILIA-SECRETARIA 10.069,62 2.013,92 0,00 0,00 335,65 0,00 1.538,64 8.040,72 21.998,55 1.887,69 2.303,72 0,00 0,00 4.191,41 17.807,14 28/02/2022
586 195600 CRISTIANA SOARES HALABI OFICIAL DO MP UBERABA - COMARCA; UBERABA-PJ-01PJ 16.112,82 6.445,13 0,00 0,00 0,00 0,00 496,28 7.130,91 30.185,14 3.402,49 4.398,39 0,00 0,00 7.800,88 22.384,26 28/02/2022
587 218900 CRISTIANE ALVES BELLES OFICIAL DO MP JUIZ DE FORA - COMARCA; JUIZ DE FORA-PJ-10PJ 6.123,79 1.837,14 0,00 0,00 0,00 0,00 204,33 5.274,01 13.439,27 1.066,96 922,21 0,00 0,00 1.989,17 11.450,10 28/02/2022
588 263600 CRISTIANE CARVALHO COUTINHO OFICIAL DO MP BELO HORIZONTE - COMARCA; BH-23PJ INFRACIONAL-SEC EXP 10.736,08 3.220,82 0,00 0,00 0,00 0,00 0,00 1.717,00 15.673,90 2.026,32 2.359,41 0,00 0,00 4.385,73 11.288,17 28/02/2022
589 541000 CRISTIANE COELHO ALVES OFICIAL DO MP ITABIRA - COMARCA; ITABIRA-PJ-03PJ 5.562,64 556,26 0,00 0,00 0,00 0,00 0,00 1.717,00 7.835,90 778,43 547,13 0,00 0,00 1.325,56 6.510,34 28/02/2022
590 441700 CRISTIANE CORRADO DE ANDRADE ANALISTA DO MP BELO HORIZONTE - COMARCA; DIRETORIA DE SISTEMAS DE INFORMACAO 14.324,23 2.864,85 0,00 0,00 0,00 0,00 0,00 1.717,00 18.906,08 2.543,47 3.158,18 0,00 0,00 5.701,65 13.204,43 28/02/2022
591 375100 CRISTIANE DAS DORES ERCIO DE LIMA OFICIAL DO MP GOVERNADOR VALADARES - COMARCA; COOR REG APOIO COM INC MOB VALE DO RIO DOCE 8.579,10 1.715,82 0,00 0,00 0,00 0,00 0,00 1.717,00 12.011,92 1.440,40 1.565,63 0,00 0,00 3.006,03 9.005,89 28/02/2022
592 178800 CRISTIANE DE LIMA HOSKEN OFICIAL DO MP BELO HORIZONTE - COMARCA; BH-14PJ DEFESA CONSUMIDOR-GAB 110PJ 16.750,82 6.700,33 0,00 0,00 0,00 0,00 515,93 7.345,28 31.312,36 3.545,40 4.552,58 0,00 0,00 8.097,98 23.214,38 28/02/2022
593 494000 CRISTIANE DE MELO MARQUEZ OLIVEIRA ANALISTA DO MP UBERLÂNDIA - COMARCA; UBERLANDIA-PJ-06PJ 12.204,02 2.440,80 0,00 0,00 0,00 0,00 536,98 8.460,23 23.642,03 2.136,38 2.570,46 0,00 0,00 4.706,84 18.935,19 28/02/2022
594 266100 CRISTIANE DE OLIVEIRA CASTRO OFICIAL DO MP BELO HORIZONTE - COMARCA; BH-14PJ DEFESA CONSUMIDOR-SECRETARIA 13.011,52 3.903,46 0,00 0,00 0,00 0,00 1.445,27 1.717,00 20.077,25 2.499,61 3.388,04 0,00 0,00 5.887,65 14.189,60 28/02/2022
595 329500 CRISTIANE DOS REIS SILVA OFICIAL DO MP ARAXÁ - COMARCA; ARAXA-PJ-04PJ 10.069,62 3.020,89 0,00 0,00 0,00 0,00 527,98 7.476,82 21.095,31 1.887,70 2.159,28 0,00 0,00 4.046,98 17.048,33 28/02/2022
596 301600 CRISTIANE GODINHO PIRES ANALISTA DO MP BETIM - COMARCA; BETIM-PJ-06PJ 18.820,14 5.646,04 0,00 0,00 0,00 0,00 538,26 7.588,88 32.593,32 3.707,80 4.839,19 0,00 0,00 8.546,99 24.046,33 28/02/2022
597 406100 CRISTIANE GONCALVES CHAVES ANALISTA DO MP BELO HORIZONTE - COMARCA; BH-14PJ DEFESA CONSUMIDOR-GAB 112PJ 14.790,66 4.437,20 0,00 0,00 0,00 0,00 493,52 7.100,80 26.822,18 2.869,67 3.629,14 0,00 0,00 6.498,81 20.323,37 28/02/2022
598 487600 CRISTIANE LOPES DE OLIVEIRA OFICIAL DO MP DIVINÓPOLIS - COMARCA; DIVINOPOLIS-PJ-03PJ 6.123,79 1.224,76 0,00 0,00 0,00 0,00 134,72 3.186,71 10.669,98 968,98 885,02 0,00 0,00 1.854,00 8.815,98 28/02/2022
599 502500 CRISTIANE MACIEL DE OLIVEIRA GOMES ANALISTA DO MP JUIZ DE FORA - COMARCA; JUIZ DE FORA-PJ-05PJ 10.069,62 2.013,92 0,00 0,00 0,00 0,00 531,68 8.402,40 21.017,62 1.726,58 1.978,80 0,00 0,00 3.705,38 17.312,24 28/02/2022
600 285500 CRISTIANE MAGALHAES LOURENCO ANALISTA DO MP BELO HORIZONTE - COMARCA; CENTRAL DE APOIO TECNICO-SETOR CONTABIL 18.103,37 5.431,01 0,00 0,00 0,00 0,00 517,76 7.365,25 31.417,39 3.558,71 4.571,81 0,00 0,00 8.130,52 23.286,87 28/02/2022
601 536500 CRISTIANE MICHELE DE SOUZA ANALISTA DO MP BARÃO DE COCAIS - COMARCA; BARAO DE COCAIS-PJ-UNPJ 9.444,70 944,47 0,00 0,00 0,00 0,00 0,00 1.717,00 12.106,17 1.455,48 1.483,13 0,00 0,00 2.938,61 9.167,56 28/02/2022
602 346600 CRISTIANE NOGUEIRA ANDRADE ANALISTA DO MP BELO HORIZONTE - COMARCA; CENTRAL DE APOIO TECNICO-SETOR CONTABIL 16.750,82 5.025,25 0,00 0,00 0,00 0,00 0,00 1.717,00 23.493,07 3.277,38 4.217,78 0,00 0,00 7.495,16 15.997,91 28/02/2022
603 234000 CRISTIANE OLIVEIRA TOSTES OFICIAL DO MP JUIZ DE FORA - COMARCA; JUIZ DE FORA-PJ-08PJ 14.790,66 4.437,20 0,00 0,00 0,00 0,00 493,52 7.986,10 27.707,48 2.869,67 3.629,14 0,00 0,00 6.498,81 21.208,67 28/02/2022
604 445800 CRISTIANE ORZIL COSTA OFICIAL DO MP SANTA LUZIA - COMARCA; SANTA LUZIA-PJ-05PJ 7.187,72 1.437,54 0,00 -308,44 0,00 0,00 244,82 4.672,36 13.234,00 1.173,26 1.545,08 0,00 252,92 2.971,26 10.262,74 28/02/2022
605 616100 CRISTIANE PAES RODRIGUES MARCICANO ANALISTA DO MP CATAGUASES - COMARCA; CATAGUASES-PJ-05PJ 8.436,53 843,65 0,00 0,00 3.093,39 0,00 306,25 5.943,16 18.622,98 1.278,04 2.181,91 0,00 0,00 3.459,95 15.163,03 28/02/2022
606 612300 CRISTIANE RIBEIRO DOS REIS ARCANJO OFICIAL DO MP BELO HORIZONTE - COMARCA; DIRETORIA DE PAGAMENTO DE PESSOAL-DPAG 5.930,75 593,08 0,00 0,00 0,00 0,00 0,00 0,00 6.523,83 839,85 589,46 0,00 0,00 1.429,31 5.094,52 28/02/2022
607 257700 CRISTIANE RODRIGUES PAES NUNES ANALISTA DO MP BELO HORIZONTE - COMARCA; BH-22PJ PES COM DEF E IDOSOS-ORIENTACAO PSIC 18.820,14 5.646,04 0,00 0,00 0,00 0,00 538,26 8.474,18 33.478,62 3.707,80 4.787,06 0,00 0,00 8.494,86 24.983,76 28/02/2022
608 510800 CRISTIANE SANTOS FERNANDES ORNELES ANALISTA DO MP BELO HORIZONTE - COMARCA; BH-03PJ EMPRESARIAL-SECRETARIA 10.069,62 2.013,92 0,00 0,00 0,00 0,00 531,68 7.517,10 20.132,32 1.726,58 1.978,80 0,00 0,00 3.705,38 16.426,94 28/02/2022
609 535701 CRISTIANE SANTOS MIRANDA ANALISTA DO MP CONTAGEM - COMARCA; CONTAGEM-PJ-20PJ 8.170,49 817,05 0,00 0,00 0,00 0,00 527,27 7.469,03 16.983,84 1.231,22 1.263,63 0,00 0,00 2.494,85 14.488,99 28/02/2022
610 536200 CRISTIANO DE OLIVEIRA ANALISTA DO MP CONCEIÇÃO DO MATO DENTRO - COMARCA; CONCEICAO DO MATO DENTRO-PJ-UNPJ 10.069,62 1.006,96 0,00 0,00 0,00 0,00 0,00 2.602,30 13.678,88 1.565,47 1.694,06 0,00 0,00 3.259,53 10.419,35 28/02/2022
611 477400 CRISTIANO SOARES ELEUTERIO ANALISTA DO MP BELO HORIZONTE - COMARCA; GABINETE DE PROCURADOR DE JUSTIÇA - SALA 812 12.204,02 2.440,80 0,00 0,00 0,00 0,00 0,00 1.717,00 16.361,82 2.136,38 2.570,46 0,00 0,00 4.706,84 11.654,98 28/02/2022
612 449400 CRISTIANO TEIXEIRA RODRIGUES LANA ANALISTA DO MP BELO HORIZONTE - COMARCA; BH-18PJ VIOLENCIA DOMESTICA-GAB 185PJ 10.736,08 2.147,22 0,00 0,00 0,00 0,00 519,63 7.385,65 20.788,58 1.854,54 1.908,52 0,00 927,37 4.690,43 16.098,15 28/02/2022
613 239400 CRISTINA DE FATIMA CRUZ E SILVA OFICIAL DO MP MONTE SANTO DE MINAS - COMARCA; MONTE SANTO DE MINAS-PJ-SECRETARIA 13.011,52 3.903,46 0,00 0,00 0,00 0,00 0,00 1.717,00 18.631,98 2.499,61 3.094,87 0,00 0,00 5.594,48 13.037,50 28/02/2022
614 544000 CRISTINA DE OLIVEIRA TERRA ANALISTA DO MP BELO HORIZONTE - COMARCA; BH-18PJ VIOLENCIA DOMESTICA 9.444,70 944,47 0,00 0,00 0,00 0,00 419,03 6.288,23 17.096,43 1.455,48 1.587,40 0,00 0,00 3.042,88 14.053,55 28/02/2022
615 356800 CRISTINA DE PINHO BARROSO OFICIAL DO MP SABINÓPOLIS - COMARCA; SABINOPOLIS-PJ-UNPJ 8.436,53 2.530,96 0,00 0,00 3.655,83 0,00 0,00 2.961,35 17.584,67 1.548,01 2.622,08 0,00 0,00 4.170,09 13.414,58 28/02/2022
616 649500 CRISTINA DO DIVINO ESPIRITO SANTOS OFICIAL DO MP DIVINÓPOLIS - COMARCA; DIVINOPOLIS-PJ-12PJ 5.217,34 521,73 0,00 0,00 0,00 0,00 0,00 1.717,00 7.456,07 721,46 458,35 0,00 0,00 1.179,81 6.276,26 28/02/2022
617 348201 CRISTINA MARIA DA SILVA ANALISTA DO MP ARAXÁ - COMARCA; ARAXA-PJ-06PJ 10.069,62 2.013,92 0,00 0,00 0,00 0,00 0,00 2.602,30 14.685,84 1.726,58 1.978,80 0,00 0,00 3.705,38 10.980,46 28/02/2022
618 434900 CRISTINA MELO DE MADUREIRA ANALISTA DO MP BELO HORIZONTE - COMARCA; BH-07PJ 01 TRIBUNAL JURI-SECRETARIA 14.324,23 2.864,85 0,00 0,00 0,00 0,00 0,00 1.717,00 18.906,08 2.543,47 3.158,18 0,00 0,00 5.701,65 13.204,43 28/02/2022
619 307700 CRISTINA TEIXEIRA MARQUES OFICIAL DO MP BELO HORIZONTE - COMARCA; CENTRAL DE APOIO TECNICO-SETOR CONTABIL 9.146,93 2.744,08 0,00 0,00 3.963,67 0,00 436,00 6.473,40 22.764,08 1.695,78 3.024,34 0,00 0,00 4.720,12 18.043,96 28/02/2022
620 265300 CRISTOVAO SANCHES DE MEDEIROS ANALISTA DO MP BELO HORIZONTE - COMARCA; DIRETORIA DE CONTABILIDADE 17.413,92 5.224,18 0,00 0,00 0,00 0,00 0,00 1.717,00 24.355,10 3.415,31 4.416,91 0,00 0,00 7.832,22 16.522,88 28/02/2022
621 349800 CROZEIR LUIZ DA SILVA OFICIAL DO MP UNAÍ - COMARCA; UNAI-PJ-SECRETARIA 9.752,14 1.950,43 0,00 0,00 0,00 0,00 514,91 7.615,84 19.833,32 1.665,62 1.838,66 0,00 0,00 3.504,28 16.329,04 28/02/2022
622 490500 CYNTHIA CRISTINA DE SOUZA OLIVEIRA VALENTE ANALISTA DO MP BELO HORIZONTE - COMARCA; BH-09PJ AUDITORIA MILITAR-SECRETARIA 10.069,62 2.013,92 0,00 0,00 0,00 0,00 0,00 1.717,00 13.800,54 1.726,58 1.978,80 0,00 0,00 3.705,38 10.095,16 28/02/2022
623 389800 CYNTHIA GARIGLIO DOS SANTOS OFICIAL DO MP PERDIZES - COMARCA; PERDIZES-PJ-SECRETARIA 8.170,49 1.634,10 0,00 0,00 3.268,20 0,00 539,25 8.485,05 22.097,09 1.361,95 2.194,71 0,00 0,00 3.556,66 18.540,43 28/02/2022
624 335101 CYNTHIA GONTIJO D ASSUNCAO ANALISTA DO MP BELO HORIZONTE - COMARCA; FEPDC-SECRETARIA EXECUTIVA 10.069,62 2.013,92 0,00 0,00 0,00 0,00 0,00 2.602,30 14.685,84 1.726,58 1.978,80 0,00 0,00 3.705,38 10.980,46 28/02/2022
625 269700 CYNTIA ROCHA CAVALCANTI OFICIAL DO MP UBERLÂNDIA - COMARCA; UBERLANDIA-PJ-06PJ 13.011,52 3.903,46 0,00 0,00 0,00 0,00 496,17 8.015,09 25.426,24 2.499,61 3.094,87 0,00 0,00 5.594,48 19.831,76 28/02/2022
626 278000 DAIRTON LOPES MARTINS FILHO COORDENADOR/ANALISTA BELO HORIZONTE - COMARCA; DIRETORIA DE SISTEMAS DE INFORMACAO 0,00 4.030,55 13.435,16 0,00 0,00 0,00 512,33 7.306,03 25.284,07 1.887,70 3.414,59 0,00 0,00 5.302,29 19.981,78 28/02/2022
627 392700 DALIANA CHAVES IBRAIM MARINHO OFICIAL DO MP ITAÚNA - COMARCA; ITAUNA-PJ-04PJ 7.421,79 1.484,36 0,00 0,00 0,00 0,00 293,90 4.923,21 14.123,26 1.218,20 1.244,83 0,00 0,00 2.463,03 11.660,23 28/02/2022
628 558101 DALLEY TASSIA SILVA ANALISTA DO MP MORADA NOVA DE MINAS - COMARCA; MORADA NOVA DE MINAS-PJ-UNPJ 9.146,93 914,69 0,00 0,00 0,00 0,00 0,00 2.602,30 12.663,92 1.403,07 1.407,47 0,00 0,00 2.810,54 9.853,38 28/02/2022
629 476700 DALTON DAUD ANALISTA DO MP ARAGUARI - COMARCA; ARAGUARI-PJ-05PJ 10.069,62 2.013,92 0,00 0,00 0,00 0,00 531,68 7.517,10 20.132,32 1.726,58 1.874,53 0,00 0,00 3.601,11 16.531,21 28/02/2022
630 426900 DANIEL ALVES DA SILVA OFICIAL DO MP BELO HORIZONTE - COMARCA; DIVISAO TRANSPORTES 6.123,79 1.224,76 0,00 0,00 2.449,52 0,00 134,72 3.186,71 13.119,50 968,98 1.454,36 0,00 0,00 2.423,34 10.696,16 28/02/2022
631 122000 DANIEL ANTONIO VIEIRA OFICIAL DO MP ENTRE-RIOS DE MINAS - COMARCA; ENTRE RIOS DE MINAS-PJ-SECRETARIA 10.069,62 8.055,69 0,00 0,00 0,00 0,00 0,00 1.717,00 19.842,31 2.693,26 3.165,90 0,00 0,00 5.859,16 13.983,15 28/02/2022
632 714000 DANIEL FERREIRA CAMARA ASSESSOR PROMOTOR JUSTICA RIBEIRÃO DAS NEVES - COMARCA; RIBEIRAO DAS NEVES-PJ-12PJ 0,00 0,00 7.187,72 0,00 0,00 0,00 0,00 1.717,00 8.904,72 828,38 1.208,91 0,00 0,00 2.037,29 6.867,43 28/02/2022
633 411000 DANIEL FERREIRA DA SILVA ANALISTA DO MP GOVERNADOR VALADARES - COMARCA; GOVERNADOR VALADARES-PJ-15PJ 13.011,52 3.903,46 0,00 0,00 0,00 0,00 0,00 3.487,60 20.402,58 2.499,61 2.886,32 0,00 0,00 5.385,93 15.016,65 28/02/2022
634 703500 DANIEL FILIPE DE DEUS SOARES ASSESSOR PROMOTOR JUSTICA ITABIRITO - COMARCA; ITABIRITO-PJ-02PJ 0,00 0,00 7.187,72 0,00 0,00 0,00 0,00 1.717,00 8.904,72 828,38 1.208,91 0,00 0,00 2.037,29 6.867,43 28/02/2022
635 309000 DANIEL GOMES DOS SANTOS ANALISTA DO MP POÇOS DE CALDAS - COMARCA; POCOS DE CALDAS-PJ-05PJ 18.103,37 5.431,01 0,00 0,00 7.844,79 0,00 517,76 7.365,25 39.262,18 3.558,71 6.781,27 0,00 0,00 10.339,98 28.922,20 28/02/2022
636 554500 DANIEL GOMES PEREIRA OFICIAL DO MP NANUQUE - COMARCA; NANUQUE-PJ-02PJ 6.123,79 612,38 0,00 0,00 2.245,39 0,00 74,10 2.525,34 11.581,00 872,76 1.360,56 0,00 0,00 2.233,32 9.347,68 28/02/2022
637 453000 DANIEL GONCALVES PEREIRA ANALISTA DO MP UNAÍ - COMARCA; UNAI-PJ-02PJ 10.069,62 2.013,92 0,00 0,00 0,00 0,00 531,68 9.730,35 22.345,57 1.726,58 1.978,80 0,00 0,00 3.705,38 18.640,19 28/02/2022
638 495500 DANIEL GUIMARAES CABRAL OFICIAL DO MP BELO HORIZONTE - COMARCA; BH-17PJ PATRIMONIO PUBLICO-SECRETARIA 7.421,79 1.484,36 0,00 0,00 0,00 0,00 522,49 7.416,94 16.845,58 1.218,20 1.244,83 0,00 0,00 2.463,03 14.382,55 28/02/2022
639 442900 DANIEL GUIMARAES GONCALVES ANALISTA DO MP UBERLÂNDIA - COMARCA; UBERLANDIA-PJ-03PJ 13.011,52 2.602,30 0,00 0,00 0,00 0,00 515,26 7.337,98 23.467,06 927,17 2.993,61 0,00 0,00 3.920,78 19.546,28 28/02/2022
640 655900 DANIEL LUIZ DA SILVA ASSESSOR BELO HORIZONTE - COMARCA; DIV FISCAL ADM CONT TERCEIRIZACAO 0,00 0,00 5.136,32 0,00 0,00 0,00 0,00 1.717,00 6.853,32 722,98 673,76 0,00 0,00 1.396,74 5.456,58 28/02/2022
641 464600 DANIEL PIACENTINI STIVANIN ANALISTA DO MP ANDRADAS - COMARCA; ANDRADAS-PJ-02PJ 10.069,62 2.013,92 0,00 0,00 0,00 0,00 0,00 1.717,00 13.800,54 1.726,58 1.978,80 0,00 0,00 3.705,38 10.095,16 28/02/2022
642 417000 DANIEL QUEIROZ FERREIRA ANALISTA DO MP PASSOS - COMARCA; PASSOS-PJ-06PJ 13.011,52 2.602,30 0,00 0,00 0,00 0,00 515,26 8.223,28 24.352,36 927,17 2.993,61 0,00 0,00 3.920,78 20.431,58 28/02/2022
643 396700 DANIEL SILVA CARNEVALLI DIRETOR/ANALISTA BELO HORIZONTE - COMARCA; SUPERINTENDENCIA DE TECNOLOGIA DA INFORMACAO 14.790,66 2.958,13 3.482,78 0,00 0,00 0,00 0,00 2.602,30 23.833,87 2.633,02 4.245,24 0,00 0,00 6.878,26 16.955,61 28/02/2022
644 489300 DANIEL TABOZA ROCHA ANALISTA DO MP IPATINGA - COMARCA; IPATINGA-PJ-08PJ 10.069,62 2.013,92 0,00 0,00 0,00 0,00 0,00 2.602,30 14.685,84 927,17 2.095,59 0,00 0,00 3.022,76 11.663,08 28/02/2022
645 414100 DANIEL TARDELI VALADAO ANALISTA DO MP TRÊS CORACOES - COMARCA; TRES CORACOES-PJ-02PJ 13.011,52 2.602,30 0,00 0,00 0,00 0,00 0,00 3.487,60 19.101,42 927,17 2.785,06 0,00 0,00 3.712,23 15.389,19 28/02/2022
646 446601 DANIEL VIEIRA BUENO ANALISTA DO MP SÃO DOMINGOS DO PRATA - COMARCA; SAO DOMINGOS DO PRATA-PJ-UNPJ 9.146,93 914,69 0,00 0,00 0,00 0,00 0,00 2.602,30 12.663,92 1.403,07 1.459,60 0,00 0,00 2.862,67 9.801,25 28/02/2022
647 253200 DANIELA BATISTA LIMA BARBOSA ASSESSOR BELO HORIZONTE - COMARCA; CENTRAL DE APOIO TECN-SETOR DE MEIO AMBIENTE 0,00 1.540,90 5.136,32 0,00 2.225,74 0,00 0,00 1.717,00 10.619,96 828,38 1.680,60 0,00 0,00 2.508,98 8.110,98 28/02/2022
648 505800 DANIELA BORGES DE MATTOS RESENDE ANALISTA DO MP JUIZ DE FORA - COMARCA; JUIZ DE FORA-PJ-20PJ 10.069,62 2.013,92 0,00 0,00 0,00 0,00 531,68 7.517,10 20.132,32 1.726,58 1.978,80 0,00 0,00 3.705,38 16.426,94 28/02/2022
649 478000 DANIELA CARVALHO SOARES ANALISTA DO MP SÃO JOÃO DEL REI - COMARCA; SAO JOAO DEL REI-PJ-01PJ 10.069,62 2.013,92 0,00 0,00 0,00 0,00 0,00 1.717,00 13.800,54 1.726,58 1.978,80 0,00 0,00 3.705,38 10.095,16 28/02/2022
650 275900 DANIELA CHAGAS SODRE ANALISTA DO MP BELO HORIZONTE - COMARCA; CENTRAL DE APOIO TECNICO-SETOR CONTABIL 18.103,37 5.431,01 0,00 0,00 0,00 0,00 517,76 7.365,25 31.417,39 3.558,71 4.571,81 0,00 0,00 8.130,52 23.286,87 28/02/2022
651 234301 DANIELA CRUZ SOARES ANALISTA DO MP BELO HORIZONTE - COMARCA; LABORATORIO TECNOLOGIA INTELIGENCIA 18.820,14 5.646,04 0,00 0,00 0,00 0,00 538,26 7.588,88 32.593,32 3.707,80 4.839,19 0,00 0,00 8.546,99 24.046,33 28/02/2022
652 638000 DANIELA DE ALMEIDA BATISTA ANALISTA DO MP ANDRELÂNDIA - COMARCA; ANDRELANDIA-PJ-UNPJ 8.436,53 843,65 0,00 0,00 0,00 0,00 0,00 2.602,30 11.882,48 927,17 1.427,72 0,00 0,00 2.354,89 9.527,59 28/02/2022
653 301000 DANIELA DE ALMEIDA E OLIVEIRA ANALISTA DO MP BELO HORIZONTE - COMARCA; DIRETORIA DE SISTEMAS DE INFORMACAO 18.103,37 5.431,01 0,00 0,00 0,00 0,00 0,00 1.717,00 25.251,38 3.558,71 4.623,95 0,00 0,00 8.182,66 17.068,72 28/02/2022
654 296000 DANIELA DE AZEVEDO SILVA ANALISTA DO MP BRASÓPOLIS - COMARCA; BRASOPOLIS-PJ-UNPJ 18.820,14 5.646,04 0,00 0,00 0,00 0,00 538,26 7.588,88 32.593,32 3.707,80 4.839,19 0,00 0,00 8.546,99 24.046,33 28/02/2022
655 453500 DANIELA DE CASTRO SOUSA BARBOSA ANALISTA DO MP BELO HORIZONTE - COMARCA; BH-08PJ JUIZADO ESPECIAL-SECRETARIA 10.736,08 2.147,22 0,00 0,00 0,00 0,00 519,63 7.385,65 20.788,58 1.854,54 2.163,55 0,00 0,00 4.018,09 16.770,49 28/02/2022
656 506000 DANIELA DE OLIVEIRA CAVALIERI ANALISTA DO MP BELO HORIZONTE - COMARCA; BH-14PJ DEFESA CONSUMIDOR-GAB 005PJ 10.069,62 2.013,92 0,00 0,00 0,00 0,00 531,68 7.517,10 20.132,32 1.726,58 1.978,80 0,00 0,00 3.705,38 16.426,94 28/02/2022
657 546200 DANIELA DE VILHENA LEMES GONCALVES OFICIAL DO MP TRÊS CORACOES - COMARCA; TRES CORACOES-PJ-05PJ 5.562,64 556,26 0,00 0,00 2.039,63 0,00 0,00 1.717,00 9.875,53 778,43 1.055,89 0,00 0,00 1.834,32 8.041,21 28/02/2022
658 356400 DANIELA LEAL FERRAZ ANALISTA DO MP MONTES CLAROS - COMARCA; COORD REG PJ DEF EDUC DIR CRIANCA ADOL NORTE 15.272,02 4.581,61 0,00 0,00 6.617,88 0,00 509,58 7.276,02 34.257,11 2.969,79 5.593,61 0,00 0,00 8.563,40 25.693,71 28/02/2022
659 501000 DANIELA LOURENCO SANTOS DA SILVA GUIMARAES ANALISTA DO MP BELO HORIZONTE - COMARCA; BH-12PJ JUIZO CRIMINAL-GAB 095PJ 10.069,62 2.013,92 0,00 0,00 0,00 0,00 531,68 7.517,10 20.132,32 1.726,58 1.926,67 0,00 0,00 3.653,25 16.479,07 28/02/2022
660 195801 DANIELA MARIA DE OLIVEIRA QUEIROZ ANALISTA DO MP ARAGUARI - COMARCA; ARAGUARI-PJ-06PJ 14.324,23 5.729,69 0,00 0,00 0,00 0,00 0,00 1.717,00 21.770,92 3.001,84 3.819,96 0,00 0,00 6.821,80 14.949,12 28/02/2022
661 511400 DANIELA MARIA LARA DE OLIVEIRA ANALISTA DO MP BOA ESPERANÇA - COMARCA; BOA ESPERANCA-PJ-02PJ 10.069,62 2.013,92 0,00 0,00 0,00 0,00 531,68 8.402,40 21.017,62 1.726,58 1.926,67 0,00 0,00 3.653,25 17.364,37 28/02/2022
662 252101 DANIELA PAULA ALVES PENA ANALISTA DO MP CONTAGEM - COMARCA; CONTAGEM-PJ-APO TECNICO 14.790,66 5.916,26 0,00 0,00 0,00 0,00 531,48 7.514,94 28.753,34 3.106,32 3.970,80 0,00 0,00 7.077,12 21.676,22 28/02/2022
663 604700 DANIELA PEIXOTO NOGUEIRA COORDENADOR/OFICIAL BELO HORIZONTE - COMARCA; DIRET DE FORMACAO, APERFEIC. E POS-GRADUACAO 0,00 1.181,92 11.819,15 0,00 0,00 0,00 0,00 2.602,30 15.603,37 872,76 2.465,93 0,00 0,00 3.338,69 12.264,68 28/02/2022
664 662000 DANIELA RIBAS DE AVILA ASSESSOR BELO HORIZONTE - COMARCA; CENTRO AUTOCOMPOSICAO DE CONFLITOS 0,00 0,00 8.170,49 0,00 0,00 0,00 0,00 1.717,00 9.887,49 828,38 1.479,17 0,00 0,00 2.307,55 7.579,94 28/02/2022
665 462000 DANIELA SOUSA GOMES DO AMARAL ANALISTA DO MP BETIM - COMARCA; BETIM-PJ-04PJ 11.085,56 2.217,11 0,00 0,00 0,00 0,00 536,54 7.570,17 21.409,38 1.921,64 2.260,42 0,00 0,00 4.182,06 17.227,32 28/02/2022
666 427000 DANIELA TEIXEIRA DINIZ ANDRADE ANALISTA DO MP BELO HORIZONTE - COMARCA; DIRETORIA DE PROJETOS DE EDIFICACOES 10.069,62 2.013,92 0,00 0,00 0,00 0,00 0,00 1.717,00 13.800,54 1.726,58 1.926,67 0,00 0,00 3.653,25 10.147,29 28/02/2022
667 337200 DANIELA TOLEDO SENIUK ANALISTA DO MP BELO HORIZONTE - COMARCA; GABINETE DE PROCURADOR DE JUSTIÇA - SALA 412 16.750,82 5.025,25 0,00 0,00 0,00 0,00 0,00 1.717,00 23.493,07 3.277,38 4.217,78 0,00 0,00 7.495,16 15.997,91 28/02/2022
668 605600 DANIELE ALZIRA SILVA CABRAL MOREIRA OFICIAL DO MP BELO HORIZONTE - COMARCA; BH-10PJ EXECUÇÃO PENAL-SECRETARIA 6.123,79 612,38 0,00 0,00 0,00 0,00 0,00 1.717,00 8.453,17 872,76 743,08 0,00 0,00 1.615,84 6.837,33 28/02/2022
669 195500 DANIELE CHAVES FONSECA OFICIAL DO MP BELO HORIZONTE - COMARCA; EXTINTA-CGMP-DIV APOIO FISC ORIENT FUNCIONAL 16.112,82 6.445,13 0,00 0,00 0,00 0,00 496,28 7.130,91 30.185,14 3.402,49 4.398,39 0,00 0,00 7.800,88 22.384,26 28/02/2022
670 323400 DANIELE MEGALE SANTINI OFICIAL DO MP BELO HORIZONTE - COMARCA; EXTINTA-CGMP-DIV APOIO FISC ORIENT FUNCIONAL 10.736,08 3.220,82 0,00 0,00 0,00 0,00 511,75 7.299,76 21.768,41 2.026,32 2.359,41 0,00 0,00 4.385,73 17.382,68 28/02/2022
671 357900 DANIELE REJANE PINTO VERSIEUX OFICIAL DO MP PEDRO LEOPOLDO - COMARCA; PEDRO LEOPOLDO-PJ-03PJ 10.069,62 3.020,89 0,00 0,00 0,00 0,00 527,98 7.476,82 21.095,31 1.887,70 2.211,41 0,00 0,00 4.099,11 16.996,20 28/02/2022
672 389500 DANIELE VASCONCELOS AMORIM PRADO OFICIAL DO MP SÃO SEBASTIÃO DO PARAÍSO - COMARCA; SAO SEBASTIAO DO PARAISO-PJ-04PJ 9.146,93 1.829,39 0,00 0,00 0,00 0,00 0,00 1.717,00 12.693,32 1.549,42 1.723,04 0,00 0,00 3.272,46 9.420,86 28/02/2022
673 629700 DANIELLA BASTOS MARTINS BICALHO OFICIAL DO MP GOVERNADOR VALADARES - COMARCA; GOVERNADOR VALADARES-PJ-16PJ 5.930,75 593,08 0,00 0,00 2.174,61 0,00 71,76 2.499,86 11.270,06 839,85 1.291,75 0,00 0,00 2.131,60 9.138,46 28/02/2022
674 265000 DANIELLE CASTANHEIRA SCALABRINI OFICIAL DO MP BELO HORIZONTE - COMARCA; JUNTA RECURSAL DO PROCON ESTADUAL 10.069,62 3.020,89 0,00 0,00 0,00 0,00 527,98 7.476,82 21.095,31 1.887,70 2.159,28 0,00 0,00 4.046,98 17.048,33 28/02/2022
675 490100 DANIELLE DE AVILA SILVA LOPES ANALISTA DO MP BELO HORIZONTE - COMARCA; PROC. JUSTICA DIR. DIFUSOS E COLETIVOS-SEC 10.069,62 3.020,89 0,00 0,00 0,00 0,00 0,00 2.602,30 15.692,81 1.887,70 2.211,41 0,00 0,00 4.099,11 11.593,70 28/02/2022
676 711100 DANIELLE DOMINGOS LOPES DE MELO ASSESSOR PROCURADOR JUSTICA BELO HORIZONTE - COMARCA; GABINETE DE PROCURADOR DE JUSTIÇA - SALA 703 0,00 0,00 7.187,72 0,00 0,00 0,00 0,00 1.717,00 8.904,72 828,38 1.208,91 0,00 0,00 2.037,29 6.867,43 28/02/2022
677 549600 DANIELLE GOMES LOPES RODRIGUES OFICIAL DO MP VESPASIANO - COMARCA; VESPASIANO-PJ-02PJ 6.123,79 612,38 0,00 0,00 0,00 0,00 0,00 1.717,00 8.453,17 872,76 743,08 0,00 0,00 1.615,84 6.837,33 28/02/2022
678 613000 DANIELLE SILVA OLIVEIRA FRANKLIN ASSESSOR/OFICIAL BELO HORIZONTE - COMARCA; DIRETORIA DE ORCAMENTO-DIOR/SPC 0,00 1.039,75 10.397,52 0,00 0,00 0,00 167,75 4.432,26 16.037,28 839,85 2.044,93 0,00 0,00 2.884,78 13.152,50 28/02/2022
679 380800 DANILLO RIBEIRO ANTUNES ANALISTA DO MP MONTES CLAROS - COMARCA; MONTES CLAROS-PJ-SECRETARIA 14.790,66 2.958,13 0,00 0,00 0,00 0,00 520,63 7.396,61 25.666,03 2.633,02 3.235,34 0,00 0,00 5.868,36 19.797,67 28/02/2022
680 453700 DANILO BOTELHO DE CARVALHO DIRETOR/ANALISTA BELO HORIZONTE - COMARCA; SUPERINTENDENCIA DE FINANCAS 0,00 3.482,78 17.413,92 0,00 0,00 0,00 671,55 9.928,30 31.496,55 2.291,42 4.247,09 0,00 0,00 6.538,51 24.958,04 28/02/2022
681 391200 DANILO D'AVILA MENDES ANALISTA DO MP MONTES CLAROS - COMARCA; GAECO REGIONAL DE MONTES CLAROS 14.790,66 2.958,13 0,00 0,00 0,00 0,00 520,63 8.281,91 26.551,33 2.633,02 3.287,48 0,00 0,00 5.920,50 20.630,83 28/02/2022
682 710900 DANILO DE SOUZA RODRIGUES ASSESSOR PROMOTOR JUSTICA IPANEMA - COMARCA; IPANEMA-PJ-01PJ 0,00 0,00 7.187,72 0,00 0,00 0,00 0,00 1.717,00 8.904,72 828,38 1.208,91 0,00 0,00 2.037,29 6.867,43 28/02/2022
683 494900 DANILO GAVIAO AVELINO DE MELLO ANALISTA DO MP POUSO ALEGRE - COMARCA; GAECO REGIONAL DE POUSO ALEGRE 10.069,62 2.013,92 0,00 0,00 0,00 0,00 531,68 7.517,10 20.132,32 1.726,58 1.978,80 0,00 0,00 3.705,38 16.426,94 28/02/2022
684 604300 DANILO NASCIMENTO SALGADO ANALISTA DO MP JANAÚBA - COMARCA; JANAUBA-PJ-01PJ 9.444,70 944,47 0,00 0,00 0,00 0,00 419,03 6.288,23 17.096,43 1.455,48 1.587,40 0,00 0,00 3.042,88 14.053,55 28/02/2022
685 298300 DANUZA MONICA DE SOUZA DINIZ ANALISTA DO MP BELO HORIZONTE - COMARCA; CAO-FUNDACOES-ASSESSORIA JURIDICA 17.413,92 5.224,18 0,00 0,00 0,00 0,00 498,04 7.150,14 30.286,28 3.415,31 4.364,77 0,00 0,00 7.780,08 22.506,20 28/02/2022
686 398700 DARCY LUIZ MILEO GREGATTI OFICIAL DO MP LAMBARI - COMARCA; LAMBARI-PJ-SECRETARIA 9.444,70 1.888,94 0,00 0,00 0,00 0,00 0,00 1.717,00 13.050,64 1.606,60 1.805,58 0,00 0,00 3.412,18 9.638,46 28/02/2022
687 406200 DARIANA AUGUSTA DE TOLEDO PATROCINIO RUIZ COORDENADOR/OFICIAL BELO HORIZONTE - COMARCA; DIRETORIA GESTAO COMPRAS LICITACOES 0,00 2.687,03 13.435,16 0,00 0,00 0,00 532,03 8.406,29 25.060,51 1.549,42 3.138,15 0,00 0,00 4.687,57 20.372,94 28/02/2022
688 586901 DARIO VITORINO DE CARVALHO SILVA ASSESSOR BELO HORIZONTE - COMARCA; DIRETORIA DE SEGURANCA 0,00 0,00 17.413,92 0,00 0,00 0,00 510,81 7.289,45 25.214,18 828,38 3.968,98 0,00 0,00 4.797,36 20.416,82 28/02/2022
689 305000 DARLI LEITE DE OLIVEIRA OFICIAL DO MP ARAÇUAÍ - COMARCA; ARACUAI-PJ-01PJ 6.123,79 1.837,14 0,00 0,00 0,00 0,00 0,00 1.717,00 9.677,93 1.066,96 870,07 0,00 0,00 1.937,03 7.740,90 28/02/2022
690 703700 DAVID ALVES DOS SANTOS ASSESSOR PROMOTOR JUSTICA BELO HORIZONTE - COMARCA; CENTRO AUTOCOMPOSICAO DE CONFLITOS 0,00 0,00 7.187,72 0,00 0,00 0,00 0,00 1.717,00 8.904,72 828,38 1.208,91 0,00 0,00 2.037,29 6.867,43 28/02/2022
691 122200 DAVID RIBEIRO DOS SANTOS ANALISTA DO MP BORDA DA MATA - COMARCA; BORDA DA MATA-PJ-UNPJ 18.820,14 15.056,11 0,00 0,00 0,00 5.213,41 496,85 7.137,20 46.723,71 5.213,41 8.446,61 0,00 0,00 13.660,02 33.063,69 28/02/2022
692 389400 DAWSON CANEDO MARQUES OFICIAL DO MP TRÊS CORACOES - COMARCA; TRES CORACOES-PJ-01PJ 9.146,93 1.829,39 0,00 0,00 0,00 0,00 482,96 6.985,63 18.444,91 1.549,42 923,12 0,00 0,00 2.472,54 15.972,37 28/02/2022
693 537200 DAYANE TEIXEIRA DE OLIVEIRA CASELLI ANALISTA DO MP BELO HORIZONTE - COMARCA; ASSESS TECNICO-JUR JUNTO AS PROC. DE JUST 8.170,49 817,05 0,00 0,00 0,00 0,00 0,00 1.717,00 10.704,54 1.231,22 1.263,63 0,00 0,00 2.494,85 8.209,69 28/02/2022
694 256100 DAYSE ROSALY PEREIRA BATISTA OFICIAL DO MP BELO HORIZONTE - COMARCA; BH-08PJ JUIZADO ESPECIAL-SECRETARIA 10.069,62 3.020,89 0,00 0,00 0,00 0,00 0,00 1.717,00 14.807,51 1.887,70 2.211,41 0,00 0,00 4.099,11 10.708,40 28/02/2022
695 311901 DEBORA APARECIDA DA SILVA ASSESSOR BELO HORIZONTE - COMARCA; BH-23PJ CIVEL-SETOR ATEND PUB 0,00 0,00 3.076,28 0,00 0,00 0,00 0,00 1.717,00 4.793,28 434,57 227,80 0,00 0,00 662,37 4.130,91 28/02/2022
696 194301 DEBORA APARECIDA DOS SANTOS ANALISTA DO MP UBERLÂNDIA - COMARCA; UBERLANDIA-PJ-SEC FAMILIA 18.820,14 7.528,06 0,00 0,00 0,00 0,00 483,05 6.986,64 33.817,89 4.008,93 5.273,94 0,00 0,00 9.282,87 24.535,02 28/02/2022
697 518800 DEBORA CARVALHO FIORATTO COORDENADOR/OFICIAL BELO HORIZONTE - COMARCA; DIRETORIA MATERIAIS E SERVICOS 0,00 2.687,03 13.435,16 0,00 0,00 0,00 532,03 7.520,99 24.175,21 1.264,58 3.216,48 0,00 0,00 4.481,06 19.694,15 28/02/2022
698 444900 DEBORA CLAUDIA PEREIRA ALVES ANALISTA DO MP BELO HORIZONTE - COMARCA; BH-08PJ JUIZADO ESPECIAL-SECRETARIA 10.736,08 2.147,22 0,00 0,00 0,00 0,00 519,63 7.385,65 20.788,58 1.854,54 2.163,55 0,00 0,00 4.018,09 16.770,49 28/02/2022
699 617700 DEBORA COMANDUCI SCHREIDER ANALISTA DO MP BICAS - COMARCA; BICAS-PJ-UNPJ 9.146,93 914,69 0,00 0,00 0,00 0,00 0,00 1.717,00 11.778,62 1.403,07 1.459,60 0,00 0,00 2.862,67 8.915,95 28/02/2022
700 555700 DEBORA CRISTINA BUITRAGO PEREIRA ANALISTA DO MP BELO HORIZONTE - COMARCA; DIRETORIA GESTAO CONTRATOS CONVENIOS 9.444,70 944,47 0,00 0,00 0,00 0,00 0,00 3.487,60 13.876,77 1.455,48 1.587,40 0,00 0,00 3.042,88 10.833,89 28/02/2022
701 513100 DEBORA CRISTINA PEREIRA DE OLIVEIRA ANALISTA DO MP BELO HORIZONTE - COMARCA; BH-23PJ CIVEL-SETOR JURIDICO 10.736,08 2.147,22 0,00 0,00 0,00 0,00 0,00 2.602,30 15.485,60 1.854,54 2.163,55 0,00 0,00 4.018,09 11.467,51 28/02/2022
702 612100 DEBORA DUARTE SILVA DE SOUZA OFICIAL DO MP RIBEIRÃO DAS NEVES - COMARCA; RIBEIRAO DAS NEVES-PJ-06PJ 5.930,75 1.779,23 0,00 0,00 0,00 0,00 169,62 3.567,40 11.447,00 1.026,81 864,24 0,00 0,00 1.891,05 9.555,95 28/02/2022
703 539700 DEBORA SALES CARVALHO ANALISTA DO MP PATOS DE MINAS - COMARCA; COORD REG PJ DEF EDU DIR CRI ADO AL PAR NOROE 9.444,70 944,47 0,00 0,00 0,00 0,00 0,00 1.717,00 12.106,17 927,17 1.664,59 0,00 0,00 2.591,76 9.514,41 28/02/2022
704 424100 DEBORA SANTOS E ALVES ANALISTA DO MP JANUÁRIA - COMARCA; JANUARIA-PJ-01PJ 14.324,23 2.864,85 0,00 0,00 0,00 0,00 504,21 8.988,11 26.681,40 2.543,47 3.158,18 0,00 0,00 5.701,65 20.979,75 28/02/2022
705 426301 DEBORA SCUCATO MACHADO SOARES OFICIAL DO MP ITABIRITO - COMARCA; ITABIRITO-PJ-01PJ 6.123,79 1.224,76 0,00 0,00 0,00 0,00 134,72 4.072,01 11.555,28 968,98 885,02 0,00 0,00 1.854,00 9.701,28 28/02/2022
706 678100 DEBORA SOUZA COSTA ASSESSOR PROMOTOR JUSTICA BOTELHOS - COMARCA; BOTELHOS-PJ-UNPJ 0,00 0,00 7.187,72 0,00 0,00 0,00 0,00 2.602,30 9.790,02 828,38 1.156,77 0,00 0,00 1.985,15 7.804,87 28/02/2022
707 550200 DEBORA TRINDADE LEITE ANALISTA DO MP MANHUAÇU - COMARCA; MANHUACU-PJ-05PJ 9.444,70 944,47 0,00 0,00 0,00 0,00 495,22 7.119,37 18.003,76 1.455,48 1.483,13 0,00 0,00 2.938,61 15.065,15 28/02/2022
708 438000 DEBORAH COSTA LAGE ANALISTA DO MP BELO HORIZONTE - COMARCA; PROC JUST ATUACAO TRIBUNAIS SUPERIORES-GAB006 14.324,23 2.864,85 0,00 0,00 0,00 0,00 0,00 1.717,00 18.906,08 2.543,47 3.158,18 0,00 0,00 5.701,65 13.204,43 28/02/2022
709 475700 DEBORAH LOBAO LACERDA ASSESSOR/OFICIAL BELO HORIZONTE - COMARCA; BH-17PJ PATRIMONIO PUBLICO-SECRETARIA 0,00 1.634,10 8.170,49 0,00 0,00 0,00 0,00 1.717,00 11.521,59 968,98 1.560,43 0,00 0,00 2.529,41 8.992,18 28/02/2022
710 613700 DEISER MARIA FERREIRA ROSCOE OFICIAL DO MP BELO HORIZONTE - COMARCA; DIVISÃO DE EDUCAÇÃO PARA O CONSUMO 5.930,75 593,08 0,00 0,00 0,00 0,00 71,76 2.499,86 9.095,45 839,85 693,74 0,00 0,00 1.533,59 7.561,86 28/02/2022
711 551900 DEISY ROCHA DA SILVA ANALISTA DO MP CARMO DO PARANAÍBA - COMARCA; CARMO DO PARANAIBA-PJ-01PJ 9.444,70 944,47 0,00 0,00 0,00 0,00 38,09 2.132,57 12.559,83 1.455,48 1.587,40 0,00 0,00 3.042,88 9.516,95 28/02/2022
712 501900 DELI RAQUEL RODRIGUES ANALISTA DO MP ITUIUTABA - COMARCA; ITUIUTABA-PJ-04PJ 10.069,62 2.013,92 0,00 0,00 0,00 0,00 0,00 1.717,00 13.800,54 1.726,58 1.978,80 0,00 0,00 3.705,38 10.095,16 28/02/2022
713 378600 DELIANE LOPES VIEIRA BREIJAO ANALISTA DO MP JUIZ DE FORA - COMARCA; JUIZ DE FORA-PJ-12PJ 14.790,66 2.958,13 0,00 0,00 0,00 0,00 520,63 7.396,61 25.666,03 2.633,02 3.235,34 0,00 0,00 5.868,36 19.797,67 28/02/2022
714 487700 DENIA FERREIRA MAIA SILVA OFICIAL DO MP TRÊS CORACOES - COMARCA; TRES CORACOES-PJ-04PJ 6.123,79 1.224,76 0,00 0,00 0,00 0,00 404,17 6.224,41 13.977,13 968,98 780,75 0,00 0,00 1.749,73 12.227,40 28/02/2022
715 424800 DENIS APARECIDO CAMPOS DELFINO ANALISTA DO MP LUZ - COMARCA; LUZ-PJ-UNPJ 13.011,52 2.602,30 0,00 0,00 0,00 0,00 515,26 8.223,28 24.352,36 2.291,42 2.585,75 0,00 0,00 4.877,17 19.475,19 28/02/2022
716 381400 DENISE ANGELICA MELLO DE PAULA OFICIAL DO MP BELO HORIZONTE - COMARCA; BH-18PJ DIREITOS HUMANOS-SECRETARIA 9.146,93 1.829,39 0,00 0,00 0,00 0,00 0,00 2.602,30 13.578,62 1.549,42 1.723,04 0,00 0,00 3.272,46 10.306,16 28/02/2022
717 702100 DENISE CANDIDO LIMA MACEDO KATOPODIS ASSESSOR PROCURADOR JUSTICA BELO HORIZONTE - COMARCA; GABINETE DE PROCURADOR DE JUSTIÇA - SALA 514 0,00 0,00 7.187,72 0,00 0,00 0,00 0,00 1.717,00 8.904,72 828,38 1.208,91 0,00 0,00 2.037,29 6.867,43 28/02/2022
718 196300 DENISE DE ALMEIDA VILELA FURTADO OFICIAL DO MP BELO HORIZONTE - COMARCA; CENTRAL DE APOIO TECNICO-SECRETARIA 15.272,02 6.108,81 0,00 0,00 0,00 0,00 0,00 3.044,95 24.425,78 3.214,15 4.126,48 0,00 0,00 7.340,63 17.085,15 28/02/2022
719 271100 DENISE ELOY PEIXOTO OFICIAL DO MP BELO HORIZONTE - COMARCA; DIRETORIA DE INTELIGENCIA 13.011,52 3.903,46 0,00 0,00 0,00 0,00 496,17 7.129,79 24.540,94 2.499,61 3.094,87 0,00 0,00 5.594,48 18.946,46 28/02/2022
720 385400 DENISE FREITAS DE ASSIS ASSESSOR/OFICIAL CARATINGA - COMARCA; CARATINGA-PJ-SECRETARIA 0,00 2.079,50 10.397,52 0,00 0,00 0,00 0,00 1.717,00 14.194,02 1.494,03 2.150,96 0,00 0,00 3.644,99 10.549,03 28/02/2022
721 437100 DENISE NOGUEIRA MAGRI MENDES ANALISTA DO MP BELO HORIZONTE - COMARCA; LAB TECNOLOGIA CONTRA LAVAGEM DINHEIRO 14.324,23 4.297,27 0,00 0,00 0,00 0,00 0,00 1.717,00 20.338,50 2.772,65 3.332,66 0,00 0,00 6.105,31 14.233,19 28/02/2022
722 524700 DENISE RAMOS GUIMARAES OFICIAL DO MP BELO HORIZONTE - COMARCA; BH-07PJ 01 TRIBUNAL JURI-SECRETARIA 6.123,79 1.224,76 0,00 0,00 204,13 0,00 612,38 1.717,00 9.882,06 1.066,96 1.082,62 0,00 0,00 2.149,58 7.732,48 28/02/2022
723 239100 DENISE RIBEIRO DOS SANTOS CAETANO OFICIAL DO MP ITANHANDU - COMARCA; ITANHANDU-PJ-SECRETARIA 13.011,52 3.903,46 0,00 0,00 0,00 0,00 496,17 7.129,79 24.540,94 2.499,61 3.042,73 0,00 0,00 5.542,34 18.998,60 28/02/2022
724 325500 DENISE ROSA TORRES OFICIAL DO MP BELO HORIZONTE - COMARCA; DIRETORIA DE PESSOAL ADMINISTRATIVO - DPAD 10.736,08 3.220,82 0,00 0,00 0,00 0,00 511,75 7.299,76 21.768,41 2.026,32 2.411,55 0,00 0,00 4.437,87 17.330,54 28/02/2022
725 437200 DENISE VIVIANE DOS SANTOS ANALISTA DO MP BELO HORIZONTE - COMARCA; CGMP-ASSESSORIA JURIDICA 12.204,02 2.440,80 0,00 0,00 0,00 0,00 0,00 3.044,95 17.689,77 2.136,38 2.466,19 0,00 0,00 4.602,57 13.087,20 28/02/2022
726 267900 DENISIA DE ALMEIDA SALES OFICIAL DO MP BELO HORIZONTE - COMARCA; BH-18PJ DIREITOS HUMANOS-SECRETARIA 10.069,62 3.020,89 0,00 0,00 0,00 0,00 0,00 1.717,00 14.807,51 1.887,70 2.159,28 0,00 0,00 4.046,98 10.760,53 28/02/2022
727 480300 DESIREE ARANTES FERREIRA GOUVEA OFICIAL DO MP PRATÁPOLIS - COMARCA; PRATAPOLIS-PJ-UNPJ 6.123,79 1.224,76 0,00 0,00 0,00 968,98 0,00 1.717,00 10.034,53 968,98 1.151,49 0,00 0,00 2.120,47 7.914,06 28/02/2022
728 355300 DEYSE CRISTINA MORAIS OFICIAL DO MP PASSOS - COMARCA; PASSOS-PJ-02PJ 9.752,14 2.925,64 0,00 0,00 0,00 0,00 511,34 7.295,22 20.484,34 1.821,66 2.116,07 0,00 0,00 3.937,73 16.546,61 28/02/2022
729 523700 DIANA CAMPOS RESENDE OFICIAL DO MP SÃO JOÃO DEL REI - COMARCA; SAO JOAO DEL REI-PJ-04PJ 7.663,37 3.831,69 0,00 0,00 0,00 0,00 0,00 1.717,00 13.212,06 1.632,42 1.790,73 0,00 0,00 3.423,15 9.788,91 28/02/2022
730 241900 DIANA CARDOSO MARTINS OFICIAL DO MP BELO HORIZONTE - COMARCA; CAO-CRIMINAL 10.069,62 3.020,89 0,00 0,00 0,00 0,00 0,00 1.717,00 14.807,51 1.887,70 2.211,41 0,00 0,00 4.099,11 10.708,40 28/02/2022
731 410100 DIANA GORDILHO SILVEIRA SENA ANALISTA DO MP BELO HORIZONTE - COMARCA; BH-06PJ JUIZO CIVEL-SECRETARIA 14.324,23 2.864,85 0,00 0,00 0,00 0,00 504,21 7.217,51 24.910,80 2.543,47 3.158,18 0,00 0,00 5.701,65 19.209,15 28/02/2022
732 553000 DIANA MARIA MARQUES ANALISTA DO MP BETIM - COMARCA; BETIM-PJ-13PJ 9.444,70 944,47 0,00 0,00 0,00 0,00 419,03 6.288,23 17.096,43 1.455,48 1.535,27 0,00 0,00 2.990,75 14.105,68 28/02/2022
733 520000 DIARLE TOSTE DOS SANTOS ANALISTA DO MP RIO POMBA - COMARCA; RIO POMBA-PJ-UNPJ 10.069,62 2.013,92 0,00 0,00 0,00 0,00 531,68 7.517,10 20.132,32 1.726,58 1.260,07 0,00 0,00 2.986,65 17.145,67 28/02/2022
734 539800 DIEGO CAMARGOS RODRIGUES OFICIAL DO MP CONTAGEM - COMARCA; CONTAGEM-PJ-05PJ 6.123,79 612,38 0,00 0,00 0,00 0,00 0,00 1.717,00 8.453,17 872,76 743,08 0,00 0,00 1.615,84 6.837,33 28/02/2022
735 607300 DIEGO CERVEIRA DE SOUZA ANALISTA DO MP PATOS DE MINAS - COMARCA; COORD REG BACIAS PARACATU,URUCUIA E ABAETE 10.069,62 1.006,96 0,00 0,00 0,00 0,00 527,98 7.476,82 19.081,38 927,17 1.839,45 0,00 0,00 2.766,62 16.314,76 28/02/2022
736 446900 DIEGO DE FREITAS OFICIAL DO MP UBERABA - COMARCA; UBERABA-PJ-06PJ 8.436,53 1.687,31 0,00 0,00 0,00 0,00 408,33 6.171,49 16.703,66 1.413,03 1.526,11 0,00 0,00 2.939,14 13.764,52 28/02/2022
737 288800 DILENE NEPOMUCENO ALVES OFICIAL DO MP BELO HORIZONTE - COMARCA; DIRETORIA DE PESSOAL ADMINISTRATIVO - DPAD 10.069,62 3.020,89 0,00 0,00 0,00 0,00 191,99 3.811,48 17.093,98 1.887,70 2.211,41 0,00 0,00 4.099,11 12.994,87 28/02/2022
738 681200 DILLIANY PAULA LOPES SERRANO ASSESSOR PROMOTOR JUSTICA RESPLENDOR - COMARCA; RESPLENDOR-PJ-UNPJ 0,00 0,00 7.187,72 0,00 0,00 0,00 131,77 3.154,54 10.474,03 828,38 1.208,91 0,00 0,00 2.037,29 8.436,74 28/02/2022
739 270101 DILSON DO AMARAL ANALISTA DO MP RIO CASCA - COMARCA; RIO CASCA-PJ-UNPJ 9.444,70 944,47 0,00 0,00 0,00 0,00 0,00 1.717,00 12.106,17 1.455,48 1.587,40 0,00 0,00 3.042,88 9.063,29 28/02/2022
740 466000 DIMITRI GUDE MARCIAL ANALISTA DO MP NANUQUE - COMARCA; NANUQUE-PJ-02PJ 10.069,62 2.013,92 0,00 0,00 0,00 0,00 531,68 8.402,40 21.017,62 1.726,58 1.874,53 0,00 0,00 3.601,11 17.416,51 28/02/2022
741 516300 DINORA APARECIDA MACEDO BRANDAO ANALISTA DO MP BELO HORIZONTE - COMARCA; BH-19PJ SAUDE-SECRETARIA 150PJ 9.752,14 1.950,43 0,00 0,00 0,00 0,00 514,91 7.334,23 19.551,71 1.665,62 1.890,80 0,00 0,00 3.556,42 15.995,29 28/02/2022
742 511700 DIOGENES HENRIQUES PEREIRA LOURENCO ANALISTA DO MP BELO HORIZONTE - COMARCA; BH-03PJ EMPRESARIAL-SECRETARIA 10.069,62 2.013,92 0,00 0,00 0,00 0,00 531,68 8.402,40 21.017,62 927,17 2.095,59 0,00 0,00 3.022,76 17.994,86 28/02/2022
743 604100 DIOGO CESAR DE OLIVEIRA HONORIO ASSESSOR PIUMHI - COMARCA; PIUMHI-PJ-02PJ 0,00 0,00 8.170,49 0,00 0,00 0,00 0,00 1.717,00 9.887,49 828,38 1.479,17 0,00 0,00 2.307,55 7.579,94 28/02/2022
744 259600 DIOGO MESQUITA MAIA ANALISTA DO MP BELO HORIZONTE - COMARCA; DIRET DE APOIO AS PROCURADORIAS DE JUSTICA 17.413,92 13.931,14 0,00 0,00 0,00 4.808,42 459,73 6.732,21 43.345,42 4.808,42 7.698,39 0,00 0,00 12.506,81 30.838,61 28/02/2022
745 386700 DIRCIMAR FERNANDES CARNEIRO OFICIAL DO MP VISCONDE DO RIO BRANCO - COMARCA; VISCONDE DO RIO BRANCO-PJ-03PJ 9.146,93 6.402,85 0,00 0,00 0,00 0,00 513,14 7.330,04 23.392,96 2.281,18 2.779,51 0,00 0,00 5.060,69 18.332,27 28/02/2022
746 113800 DIRSON APARECIDO GUIMARAES ASSESSOR BELO HORIZONTE - COMARCA; DIVISAO DE MANUTENCAO PREDIAL 0,00 4.622,69 5.136,32 0,00 0,00 0,00 0,00 1.717,00 11.476,01 828,38 1.916,01 0,00 0,00 2.744,39 8.731,62 28/02/2022
747 216700 DOMICIO VALDETE PEREIRA OFICIAL DO MP TEÓFILO OTONI - COMARCA; COORD REG PJ DEF EDU DIR CRIAN ADOL JEQUI MUC 15.272,02 6.108,81 0,00 0,00 0,00 0,00 548,77 7.703,63 29.633,23 3.214,15 4.022,20 0,00 0,00 7.236,35 22.396,88 28/02/2022
748 192701 DONIZETTI APARECIDO AMORIM ANALISTA DO MP PRATÁPOLIS - COMARCA; PRATAPOLIS-PJ-UNPJ 10.069,62 4.027,85 0,00 0,00 0,00 0,00 0,00 1.717,00 15.814,47 2.048,81 2.391,88 0,00 0,00 4.440,69 11.373,78 28/02/2022
749 558700 DORCILIA FATIMA DE OLIVEIRA OFICIAL DO MP DIVINÓPOLIS - COMARCA; DIVINOPOLIS-PJ-02PJ 6.123,79 612,38 0,00 0,00 0,00 872,76 74,10 2.525,34 10.208,37 872,76 930,95 0,00 0,00 1.803,71 8.404,66 28/02/2022
750 555300 DOUGLAS CUNHA DE SOUZA ANALISTA DO MP VARZEA DA PALMA - COMARCA; VARZEA DA PALMA-PJ-01PJ 9.444,70 944,47 0,00 0,00 0,00 0,00 533,31 7.534,94 18.457,42 398,86 1.809,87 0,00 0,00 2.208,73 16.248,69 28/02/2022
751 265900 DOUGLAS GOMES MOREIRA ANALISTA DO MP BELO HORIZONTE - COMARCA; CENTRAL DE APOIO TECNICO-SETOR DE ENGENHARIA 18.820,14 5.646,04 0,00 0,00 0,00 0,00 0,00 1.717,00 26.183,18 3.707,80 4.839,19 0,00 0,00 8.546,99 17.636,19 28/02/2022
752 241000 DOUGLAS MEIRELLES DE CASTRO OFICIAL DO MP CONCEIÇÃO DO RIO VERDE - COMARCA; CONCEICAO DO RIO VERDE-PJ-UNPJ 13.011,52 5.204,61 0,00 0,00 0,00 0,00 534,34 7.546,16 26.296,63 2.707,79 3.291,16 0,00 0,00 5.998,95 20.297,68 28/02/2022
753 534900 DOUGLAS SILVA E SOUZA ANALISTA DO MP CAMPOS GERAIS - COMARCA; CAMPOS GERAIS-PJ-01PJ 9.444,70 944,47 0,00 0,00 0,00 0,00 419,03 6.288,23 17.096,43 927,17 1.612,45 0,00 0,00 2.539,62 14.556,81 28/02/2022
754 638900 DOUGLAS WALLAS CONCEICAO NEVES OFICIAL DO MP RIBEIRÃO DAS NEVES - COMARCA; RIBEIRAO DAS NEVES-PJ-SEC CIVEL 4.974,42 497,44 0,00 0,00 0,00 0,00 0,00 1.717,00 7.188,86 681,38 448,02 0,00 0,00 1.129,40 6.059,46 28/02/2022
755 146800 DUCINALVA AMARAL LOPES REIS OFICIAL DO MP PARAISÓPOLIS - COMARCA; PARAISOPOLIS-PJ-UNPJ 18.820,14 13.174,10 0,00 0,00 0,00 4.912,29 469,25 6.836,08 44.211,86 4.912,29 7.824,78 0,00 0,00 12.737,07 31.474,79 28/02/2022
756 122500 DUILIO CARLOS FERREIRA UTSCH OFICIAL DO MP CONCEIÇÃO DO MATO DENTRO - COMARCA; CONCEICAO DO MATO DENTRO-PJ-UNPJ 15.272,02 12.217,62 0,00 0,00 0,00 4.191,56 0,00 1.717,00 33.398,20 4.191,56 6.690,29 0,00 0,00 10.881,85 22.516,35 28/02/2022
757 201800 DULCINEIA ANDRE DE SOUZA OFICIAL DO MP JEQUITINHONHA - COMARCA; JEQUITINHONHA-PJ-SECRETARIA 15.272,02 6.108,81 0,00 0,00 0,00 0,00 235,19 4.282,70 25.898,72 3.214,15 3.970,07 0,00 0,00 7.184,22 18.714,50 28/02/2022
758 395800 DUVIDIER MEDIRCIO JUNIOR ANALISTA DO MP BELO HORIZONTE - COMARCA; CENTRAL DE APOIO TECNICO-SETOR DE ENGENHARIA 15.499,20 3.099,84 0,00 0,00 0,00 0,00 0,00 1.717,00 20.316,04 2.769,06 3.483,88 0,00 0,00 6.252,94 14.063,10 28/02/2022
759 604800 ECIA RAMILIS ISSA DE ABREU ANALISTA DO MP BRASÍLIA DE MINAS - COMARCA; BRASILIA DE MINAS-PJ-01PJ 9.444,70 944,47 0,00 0,00 0,00 0,00 419,03 7.114,51 17.922,71 1.455,48 1.587,40 0,00 0,00 3.042,88 14.879,83 28/02/2022
760 273000 EDELFINA APARECIDA GUIMARAES OFICIAL DO MP CACHOEIRA DE MINAS - COMARCA; CACHOEIRA DE MINAS-PJ-UNPJ 10.736,08 7.515,26 0,00 0,00 0,00 0,00 0,00 1.717,00 19.968,34 2.713,43 3.351,43 0,00 0,00 6.064,86 13.903,48 28/02/2022
761 523300 EDER DOS SANTOS PATRICIO ANALISTA DO MP NOVA SERRANA - COMARCA; NOVA SERRANA-PJ-03PJ 10.069,62 2.013,92 0,00 0,00 0,00 0,00 1.538,64 8.926,02 22.548,20 927,17 2.299,60 0,00 0,00 3.226,77 19.321,43 28/02/2022
762 356700 EDER JOSE PACHECO OFICIAL DO MP CAMPO BELO - COMARCA; CAMPO BELO-PJ-SECRETARIA 10.069,62 3.020,89 0,00 0,00 0,00 0,00 1.978,25 8.416,61 23.485,37 1.887,70 2.504,59 0,00 0,00 4.392,29 19.093,08 28/02/2022
763 507900 EDERSON SILVA LOPES OFICIAL DO MP BELO HORIZONTE - COMARCA; LABORATORIO TECNOLOGIA INTELIGENCIA 7.187,72 1.437,54 0,00 0,00 2.875,09 0,00 253,01 4.477,08 16.230,44 1.173,26 1.866,32 0,00 0,00 3.039,58 13.190,86 28/02/2022
764 296200 EDGARD GOULART MATOSINHO DE LAET JR ANALISTA DO MP GOVERNADOR VALADARES - COMARCA; GOVERNADOR VALADARES-PJ-12PJ 17.413,92 5.224,18 0,00 0,00 0,00 0,00 498,04 7.150,14 30.286,28 3.415,31 4.312,63 0,00 0,00 7.727,94 22.558,34 28/02/2022
765 295000 EDILA MARIA DA SILVEIRA OFICIAL DO MP FORMIGA - COMARCA; FORMIGA-PJ-01PJ 9.146,93 2.744,08 0,00 0,00 0,00 0,00 0,00 1.717,00 13.608,01 1.695,78 1.934,33 0,00 0,00 3.630,11 9.977,90 28/02/2022
766 332300 EDILA MARILAC MIRANDA PRADO OFICIAL DO MP DIAMANTINA - COMARCA; DIAMANTINA-PJ-01PJ 10.069,62 5.034,81 0,00 0,00 0,00 0,00 0,00 3.487,60 18.592,03 2.209,92 2.572,36 0,00 0,00 4.782,28 13.809,75 28/02/2022
767 376600 EDILANE CONSOLACAO ROSA NAZARETH ANALISTA DO MP BETIM - COMARCA; BETIM-PJ-10PJ 14.790,66 2.958,13 0,00 0,00 0,00 0,00 0,00 1.717,00 19.465,79 927,17 3.536,69 0,00 0,00 4.463,86 15.001,93 28/02/2022
768 309800 EDILZA DOS REIS OFICIAL DO MP UBERLÂNDIA - COMARCA; UBERLANDIA-PJ-03PJ 10.069,62 3.020,89 0,00 0,00 0,00 0,00 527,98 7.476,82 21.095,31 1.887,70 2.159,28 0,00 0,00 4.046,98 17.048,33 28/02/2022
769 200500 EDINEIA MARIA DE OLIVEIRA ANTUNES OFICIAL DO MP MONTES CLAROS - COMARCA; MONTES CLAROS-PJ-10PJ 15.272,02 6.108,81 0,00 0,00 0,00 0,00 548,77 7.703,63 29.633,23 3.214,15 4.126,48 0,00 0,00 7.340,63 22.292,60 28/02/2022
770 427700 EDISANGELA SOARES LOPES OFICIAL DO MP PIRAPORA - COMARCA; PIRAPORA-PJ-02PJ 6.123,79 1.224,76 0,00 0,00 0,00 0,00 0,00 1.717,00 9.065,55 968,98 885,02 0,00 0,00 1.854,00 7.211,55 28/02/2022
771 555400 EDISON MONTEIRO SAMPAIO NETO ANALISTA DO MP BELO HORIZONTE - COMARCA; BH-12PJ JUIZO CRIMINAL-GAB 094PJ 9.444,70 944,47 0,00 0,00 0,00 0,00 0,00 1.717,00 12.106,17 1.455,48 1.587,40 0,00 0,00 3.042,88 9.063,29 28/02/2022
772 517700 EDMILSON TADEU FERNANDES OFICIAL DO MP POUSO ALEGRE - COMARCA; GAECO REGIONAL DE POUSO ALEGRE 7.421,79 1.484,36 0,00 0,00 0,00 0,00 293,90 4.923,21 14.123,26 1.218,20 1.244,83 0,00 0,00 2.463,03 11.660,23 28/02/2022
773 358400 EDNA APARECIDA SILVA FERREIRA OFICIAL DO MP CORONEL FABRICIANO - COMARCA; CORONEL FABRICIANO-PJ-02PJ 10.736,08 3.220,82 0,00 0,00 0,00 0,00 511,75 7.299,76 21.768,41 2.026,32 2.307,28 0,00 0,00 4.333,60 17.434,81 28/02/2022
774 331800 EDNA MARCIA CAMILO DA SILVA OFICIAL DO MP SETE LAGOAS - COMARCA; SETE LAGOAS-PJ-SEC CRIMINAIS 10.069,62 3.020,89 0,00 0,00 0,00 0,00 0,00 1.717,00 14.807,51 1.887,70 2.159,28 0,00 0,00 4.046,98 10.760,53 28/02/2022
775 327900 EDRIEL SANTANA PEREIRA OFICIAL DO MP TUPACIGUARA - COMARCA; TUPACIGUARA-PJ-01PJ 10.069,62 3.020,89 0,00 0,00 0,00 0,00 527,98 8.422,20 22.040,69 1.887,70 2.211,41 0,00 0,00 4.099,11 17.941,58 28/02/2022
776 482400 EDSON GARCIA OFICIAL DO MP MACHADO - COMARCA; MACHADO-PJ-02PJ 5.743,70 1.148,74 0,00 0,00 0,00 0,00 574,37 2.602,30 10.069,11 987,90 808,06 0,00 0,00 1.795,96 8.273,15 28/02/2022
777 225601 EDSON LABRE FILHO ANALISTA DO MP VARGINHA - COMARCA; VARGINHA-PJ-01PJ 17.413,92 5.224,18 0,00 0,00 0,00 0,00 498,04 7.150,14 30.286,28 3.415,31 4.364,77 0,00 0,00 7.780,08 22.506,20 28/02/2022
778 602700 EDSON NOGUEIRA BUENO OFICIAL DO MP PITANGUI - COMARCA; PITANGUI-PJ-02PJ 5.562,64 556,26 0,00 0,00 2.039,63 0,00 0,00 1.717,00 9.875,53 778,43 1.160,17 0,00 0,00 1.938,60 7.936,93 28/02/2022
779 716500 EDUARDA CORREA MOREIRA ASSESSOR BELO HORIZONTE - COMARCA; DIRET DE FORMACAO, APERFEIC. E POS-GRADUACAO 0,00 0,00 3.076,28 0,00 0,00 0,00 307,63 3.196,13 6.580,04 500,51 318,94 0,00 0,00 819,45 5.760,59 28/02/2022
780 414400 EDUARDO ABRANTES CAMPOS ANALISTA DO MP SÃO JOÃO DEL REI - COMARCA; SAO JOAO DEL REI-PJ-02PJ 14.324,23 2.864,85 0,00 0,00 0,00 0,00 504,21 7.217,51 24.910,80 2.543,47 3.158,18 0,00 0,00 5.701,65 19.209,15 28/02/2022
781 476800 EDUARDO ALVES DE MOURA ANALISTA DO MP UBERLÂNDIA - COMARCA; UBERLANDIA-PJ-02PJ 10.069,62 2.013,92 0,00 0,00 0,00 0,00 132,92 4.052,32 16.268,78 927,17 1.939,18 0,00 0,00 2.866,35 13.402,43 28/02/2022
782 390800 EDUARDO AMORIM PETTERSEN OFICIAL DO MP CARANGOLA - COMARCA; CARANGOLA-PJ-SECRETARIA 8.858,43 1.771,69 0,00 0,00 0,00 0,00 428,75 6.394,25 17.453,12 1.494,03 1.643,06 0,00 0,00 3.137,09 14.316,03 28/02/2022
783 461600 EDUARDO ANTONIO DE ASSIS FARIA ASSESSOR BELO HORIZONTE - COMARCA; ASSESS EXECUTIVA DO CONSELHO SUPERIOR DO MP 0,00 0,00 8.170,49 0,00 0,00 0,00 209,71 4.004,74 12.384,94 828,38 1.374,90 0,00 0,00 2.203,28 10.181,66 28/02/2022
784 248800 EDUARDO DE CASTRO AMORIM ANALISTA DO MP BELO HORIZONTE - COMARCA; SUPER DE GESTAO DE PESSOAS-LOTACAO TEMPORARIA 18.820,14 5.646,04 0,00 0,00 8.155,39 0,00 538,26 7.588,88 40.748,71 3.707,80 7.081,93 0,00 0,00 10.789,73 29.958,98 28/02/2022
785 209100 EDUARDO DE SOUZA MAIA ANALISTA DO MP BELO HORIZONTE - COMARCA; SUPER DE GESTAO DE PESSOAS-LOTACAO TEMPORARIA 18.820,14 7.528,06 0,00 0,00 0,00 0,00 0,00 1.717,00 28.065,20 4.008,93 5.117,53 0,00 0,00 9.126,46 18.938,74 28/02/2022
786 633900 EDUARDO GONCALVES PIRES OFICIAL DO MP BELO HORIZONTE - COMARCA; DIRETORIA DE PAGAMENTO DE PESSOAL-DPAG 6.529,10 1.958,73 0,00 0,00 0,00 0,00 248,98 4.433,11 13.169,92 1.151,27 1.148,19 0,00 0,00 2.299,46 10.870,46 28/02/2022
787 350500 EDUARDO GONCALVES RIBEIRO OFICIAL DO MP VESPASIANO - COMARCA; VESPASIANO-PJ-04PJ 9.146,93 2.744,08 0,00 0,00 0,00 0,00 523,20 7.424,68 19.838,89 1.695,78 1.934,33 0,00 0,00 3.630,11 16.208,78 28/02/2022
788 115800 EDUARDO HENRIQUE DE CAMPOS MAIA OFICIAL DO MP BELO HORIZONTE - COMARCA; DIV FISCAL ADM CONT TERCEIRIZACAO 17.413,92 8.706,96 0,00 0,00 0,00 0,00 478,88 6.941,18 33.540,94 3.972,55 5.065,02 0,00 0,00 9.037,57 24.503,37 28/02/2022
789 392600 EDUARDO HENRIQUE DOS SANTOS COSTA ELIAZAR OFICIAL DO MP MATOZINHOS - COMARCA; MATOZINHOS-PJ-01PJ 8.579,10 1.715,82 0,00 0,00 0,00 0,00 415,23 6.246,76 16.956,91 1.440,40 1.409,22 0,00 0,00 2.849,62 14.107,29 28/02/2022
790 99101 EDUARDO JOSE DE FREITAS NUNES ASSESSOR BELO HORIZONTE - COMARCA; PROC JUST ATUACAO TRIBUNAIS SUPERIORES-GAB007 0,00 2.054,53 5.136,32 0,00 221,73 0,00 4.532,11 2.382,19 14.326,88 828,38 1.270,75 0,00 0,00 2.099,13 12.227,75 28/02/2022
791 407500 EDUARDO MASCARENHAS CURI AZEVEDO COORDENADOR/ANALISTA BELO HORIZONTE - COMARCA; DIR CONTEUDO JORNALISTICO 0,00 2.687,03 13.435,16 0,00 0,00 0,00 0,00 2.602,30 18.724,49 1.726,58 3.089,43 0,00 0,00 4.816,01 13.908,48 28/02/2022
792 601300 EDUARDO TRAD VIEIRA OFICIAL DO MP SILVIANÓPOLIS - COMARCA; SILVIANOPOLIS-PJ-UNPJ 5.562,64 556,26 0,00 0,00 0,00 0,00 0,00 1.717,00 7.835,90 778,43 599,27 0,00 0,00 1.377,70 6.458,20 28/02/2022
793 257600 EDUARDO VALADARES CABRAL ANALISTA DO MP BELO HORIZONTE - COMARCA; COORD DE INCLUSAO E MOBILIZACAO SOCIAIS 16.112,82 4.833,85 0,00 0,00 0,00 0,00 0,00 1.717,00 22.663,67 3.144,68 4.026,19 0,00 0,00 7.170,87 15.492,80 28/02/2022
794 545700 EDVAIR FERREIRA DE CARVALHO OFICIAL DO MP ARAGUARI - COMARCA; ARAGUARI-PJ-06PJ 5.562,64 556,26 0,00 0,00 2.039,63 0,00 22,44 1.961,76 10.142,73 778,43 1.108,03 0,00 0,00 1.886,46 8.256,27 28/02/2022
795 401700 EDWANIA AMORIM DO CARMO OFICIAL DO MP RIBEIRÃO DAS NEVES - COMARCA; RIBEIRAO DAS NEVES-PJ-03PJ 9.146,93 1.829,39 0,00 0,00 0,00 0,00 0,00 1.717,00 12.693,32 1.549,42 1.723,04 0,00 0,00 3.272,46 9.420,86 28/02/2022
796 303600 EFIGENIO SARAIVA LOPES ANALISTA DO MP BELO HORIZONTE - COMARCA; DIRETORIA DE PAGAMENTO DE PESSOAL-DPAG 18.820,14 5.646,04 0,00 0,00 0,00 0,00 538,26 7.588,88 32.593,32 3.707,80 4.734,92 0,00 0,00 8.442,72 24.150,60 28/02/2022
797 286000 ELAINE APARECIDA SILVA BERZOINI OFICIAL DO MP JUIZ DE FORA - COMARCA; JUIZ DE FORA-PJ-14PJ 10.069,62 3.020,89 0,00 0,00 0,00 0,00 527,98 7.476,82 21.095,31 1.887,70 2.211,41 0,00 0,00 4.099,11 16.996,20 28/02/2022
798 509000 ELAINE CANDIDA PONTES OFICIAL DO MP BELO HORIZONTE - COMARCA; BH-02PJ FAMILIA-SECRETARIA 8.170,49 1.634,10 0,00 0,00 0,00 0,00 359,50 5.638,84 15.802,93 1.361,95 1.452,37 0,00 0,00 2.814,32 12.988,61 28/02/2022
799 283601 ELAINE CRISTINA MEQUELINO DUARTE ANALISTA DO MP ALFENAS - COMARCA; ALFENAS-PJ-02PJ 14.790,66 2.958,13 0,00 0,00 0,00 0,00 520,63 7.396,61 25.666,03 2.633,02 3.183,20 0,00 0,00 5.816,22 19.849,81 28/02/2022
800 535500 ELAINE DE OLIVEIRA CAMPOS REIS OFICIAL DO MP RIBEIRÃO DAS NEVES - COMARCA; RIBEIRAO NEVES-SEC PJ EXECUCAO PENAL 6.123,79 612,38 0,00 0,00 0,00 0,00 74,10 2.525,34 9.335,61 872,76 743,08 0,00 0,00 1.615,84 7.719,77 28/02/2022
801 455700 ELAINE DE OLIVEIRA CASTRO ANALISTA DO MP POMPÉU - COMARCA; POMPEU-PJ-UNPJ 10.069,62 2.013,92 0,00 0,00 0,00 0,00 0,00 1.717,00 13.800,54 1.726,58 1.926,67 0,00 0,00 3.653,25 10.147,29 28/02/2022
802 367200 ELAINE MUNIZ BARBOSA ANALISTA DO MP BELO HORIZONTE - COMARCA; DIRETORIA DE SISTEMAS DE INFORMACAO 15.272,02 4.581,61 0,00 0,00 0,00 0,00 0,00 2.602,30 22.455,93 2.969,79 3.721,56 0,00 0,00 6.691,35 15.764,58 28/02/2022
803 679200 ELAINE RIBEIRO CHAVES ASSESSOR PROCURADOR JUSTICA BELO HORIZONTE - COMARCA; GABINETE DE PROCURADOR DE JUSTIÇA - SALA 614 0,00 0,00 7.187,72 0,00 2.395,91 0,00 0,00 1.717,00 11.300,63 828,38 1.815,65 0,00 0,00 2.644,03 8.656,60 28/02/2022
804 176900 ELAINE RIBEIRO TAVEIRA OFICIAL DO MP BELO HORIZONTE - COMARCA; DIVISAO FROTA 13.435,16 5.374,06 0,00 0,00 0,00 0,00 482,77 6.983,58 26.275,57 2.802,69 3.532,44 0,00 0,00 6.335,13 19.940,44 28/02/2022
805 496200 ELAINE SABRINA MOREIRA SCHUWARTEN ANALISTA DO MP IPATINGA - COMARCA; GAECO REGIONAL DE IPATINGA 10.736,08 2.147,22 0,00 0,00 4.294,43 0,00 0,00 1.717,00 18.894,73 1.854,54 3.344,52 0,00 0,00 5.199,06 13.695,67 28/02/2022
806 489200 ELAINE VICENTINO GARCIA ANALISTA DO MP BELO HORIZONTE - COMARCA; CENTRAL DE APOIO TECNICO-SETOR CONTABIL 10.069,62 3.020,89 0,00 0,00 0,00 0,00 527,98 7.476,82 21.095,31 1.887,70 2.107,14 0,00 0,00 3.994,84 17.100,47 28/02/2022
807 244500 ELCI ALVES DE SOUZA ASSESSOR BELO HORIZONTE - COMARCA; CAO-CONFLITOS AGRARIOS-SECRETARIA 0,00 1.540,90 5.136,32 0,00 0,00 0,00 73,45 2.518,27 9.268,94 828,38 1.016,38 0,00 0,00 1.844,76 7.424,18 28/02/2022
808 472500 ELCI VAZ DE OLIVEIRA FILHO ANALISTA DO MP PIUMHI - COMARCA; PIUMHI-PJ-02PJ 10.069,62 5.034,81 0,00 0,00 0,00 0,00 0,00 1.717,00 16.821,43 2.209,92 2.676,63 0,00 0,00 4.886,55 11.934,88 28/02/2022
809 385200 ELCI VIANA REIS OFICIAL DO MP RIO PARDO DE MINAS - COMARCA; RIO PARDO DE MINAS-PJ-SECRETARIA 9.146,93 3.658,77 0,00 0,00 0,00 0,00 516,50 7.351,51 20.673,71 1.842,13 2.145,62 0,00 0,00 3.987,75 16.685,96 28/02/2022
810 289801 ELCIO JOSE DOS SANTOS ASSESSOR/ANALISTA BELO HORIZONTE - COMARCA; DIVISAO DE SERVICOS 0,00 2.520,26 12.601,30 0,00 0,00 0,00 499,01 7.160,76 22.781,33 1.726,58 2.814,26 0,00 0,00 4.540,84 18.240,49 28/02/2022
811 319600 ELEN TULER DE ALBERGARIA ANALISTA DO MP BELO HORIZONTE - COMARCA; BH-19PJ SAUDE-SECRETARIA 130PJ 18.820,14 7.528,06 0,00 0,00 0,00 0,00 0,00 1.717,00 28.065,20 4.008,93 5.273,94 0,00 0,00 9.282,87 18.782,33 28/02/2022
812 205500 ELIANA ALVES DE SOUSA OFICIAL DO MP GOVERNADOR VALADARES - COMARCA; GOVERNADOR VALADARES-PJ-07PJ 10.069,62 4.027,85 0,00 0,00 0,00 0,00 0,00 1.717,00 15.814,47 2.048,81 2.444,02 0,00 0,00 4.492,83 11.321,64 28/02/2022
813 628800 ELIANA APARECIDA PEREIRA ANALISTA DO MP CAMBUÍ - COMARCA; CAMBUI-PJ-02PJ 8.436,53 843,65 0,00 0,00 0,00 0,00 0,00 1.717,00 10.997,18 1.278,04 1.279,09 0,00 0,00 2.557,13 8.440,05 28/02/2022
814 301700 ELIANA DA SILVEIRA ANALISTA DO MP BELO HORIZONTE - COMARCA; BH-11PJ COMB CRIME ORGANIZ-GAB 081PJ 16.750,82 5.025,25 0,00 0,00 0,00 0,00 0,00 1.717,00 23.493,07 3.277,38 4.217,78 0,00 0,00 7.495,16 15.997,91 28/02/2022
815 251500 ELIANA DE LIMA MILAGRES FONSECA ANALISTA DO MP CONTAGEM - COMARCA; CONTAGEM-PJ-16PJ 18.820,14 5.646,04 0,00 0,00 0,00 0,00 538,26 7.588,88 32.593,32 3.707,80 4.734,92 0,00 0,00 8.442,72 24.150,60 28/02/2022
816 503900 ELIANA DIAS DUTRA FERREIRA OFICIAL DO MP BELO HORIZONTE - COMARCA; DIRETORIA GESTAO COMPRAS LICITACOES 7.912,85 1.582,57 0,00 0,00 0,00 0,00 0,00 3.434,00 12.929,42 1.312,48 1.276,67 0,00 0,00 2.589,15 10.340,27 28/02/2022
817 413900 ELIANA PINTO DE OLIVEIRA NEVES ANALISTA DO MP CAMPO BELO - COMARCA; CAMPO BELO-PJ-04PJ 13.011,52 2.602,30 0,00 0,00 0,00 0,00 515,26 7.337,98 23.467,06 2.291,42 2.794,30 0,00 0,00 5.085,72 18.381,34 28/02/2022
818 228200 ELIANA RODRIGUES DA CUNHA PINHEIRO OFICIAL DO MP BELO HORIZONTE - COMARCA; DIRETORIA DE PROJETOS DE EDIFICACOES 13.011,52 3.903,46 0,00 0,00 0,00 2.499,61 0,00 1.717,00 21.131,59 2.499,61 3.782,26 0,00 0,00 6.281,87 14.849,72 28/02/2022
819 386600 ELIANA SABINO CHAVES PESSOA ANALISTA DO MP CARATINGA - COMARCA; CARATINGA-PJ-06PJ 14.324,23 10.026,96 0,00 0,00 0,00 3.689,40 535,73 7.561,29 36.137,61 3.689,40 5.775,08 0,00 0,00 9.464,48 26.673,13 28/02/2022
820 677500 ELIANA SILVA ANDRADE ASSESSOR PROMOTOR JUSTICA TRÊS CORACOES - COMARCA; TRES CORACOES-PJ-06PJ 0,00 0,00 7.187,72 0,00 0,00 0,00 0,00 1.717,00 8.904,72 828,38 1.208,91 0,00 0,00 2.037,29 6.867,43 28/02/2022
821 297400 ELIANE AUGUSTA RIBEIRO COSTA ANALISTA DO MP CONSELHEIRO LAFAIETE - COMARCA; CONSELHEIRO LAFAIETE-PJ-05PJ 18.103,37 5.431,01 0,00 0,00 0,00 0,00 517,76 7.365,25 31.417,39 3.558,71 4.519,67 0,00 0,00 8.078,38 23.339,01 28/02/2022
822 510600 ELIANE CAROLINA MAIA ANALISTA DO MP IGARAPÉ - COMARCA; IGARAPE-PJ-03PJ 10.069,62 1.006,96 0,00 0,00 0,00 0,00 527,98 7.476,82 19.081,38 1.565,47 1.589,78 0,00 0,00 3.155,25 15.926,13 28/02/2022
823 262600 ELIANE FERREIRA SOARES ASSESSOR BELO HORIZONTE - COMARCA; BH-18PJ DIREITOS HUMANOS-SECRETARIA 0,00 2.054,53 5.136,32 0,00 0,00 0,00 0,00 1.717,00 8.907,85 828,38 1.157,63 0,00 0,00 1.986,01 6.921,84 28/02/2022
824 204400 ELIANE GLAUCE DE QUEIROS MAIA OFICIAL DO MP GUANHÃES - COMARCA; GUANHAES-PJ-02PJ 15.272,02 6.108,81 0,00 0,00 0,00 0,00 548,77 7.703,63 29.633,23 3.214,15 4.126,48 0,00 0,00 7.340,63 22.292,60 28/02/2022
825 91800 ELIANE KAPLER ALVES OFICIAL DO MP BELO HORIZONTE - COMARCA; DIVISAO DE CONTROLE IMOBILIARIO 18.820,14 9.410,07 0,00 0,00 9.410,07 0,00 517,55 7.363,04 45.520,87 4.310,05 8.192,18 0,00 0,00 12.502,23 33.018,64 28/02/2022
826 334200 ELIANE MARCIA DE OLIVEIRA BRITO OFICIAL DO MP BELO HORIZONTE - COMARCA; BH-08PJ JUIZADO ESPECIAL-SECRETARIA 6.123,79 1.837,14 0,00 0,00 0,00 0,00 0,00 1.717,00 9.677,93 1.066,96 1.026,48 0,00 0,00 2.093,44 7.584,49 28/02/2022
827 365900 ELIANE MARIA DE OLIVEIRA FERREIRA OFICIAL DO MP SETE LAGOAS - COMARCA; SETE LAGOAS-PJ-SEC CRIMINAIS 10.069,62 5.034,81 0,00 0,00 0,00 0,00 0,00 1.717,00 16.821,43 2.209,92 2.676,63 0,00 0,00 4.886,55 11.934,88 28/02/2022
828 320600 ELIANE STADLER DE SOUZA OFICIAL DO MP FRANCISCO SÁ - COMARCA; FRANCISCO SA-PJ-SECRETARIA 9.146,93 2.744,08 0,00 0,00 0,00 0,00 0,00 1.717,00 13.608,01 1.695,78 1.882,19 0,00 0,00 3.577,97 10.030,04 28/02/2022
829 448900 ELIAS PEREIRA OTONI ASSESSOR BELO HORIZONTE - COMARCA; BH-18PJ DIREITOS HUMANOS-SECRETARIA 0,00 0,00 5.136,32 0,00 0,00 0,00 0,00 1.717,00 6.853,32 722,98 569,48 0,00 0,00 1.292,46 5.560,86 28/02/2022
830 495400 ELICA SOUZA GASPARONI MATTOS OFICIAL DO MP UBÁ - COMARCA; UBA-PJ-06PJ 7.912,85 1.582,57 0,00 0,00 0,00 0,00 348,17 5.515,17 15.358,76 1.312,48 1.380,95 0,00 0,00 2.693,43 12.665,33 28/02/2022
831 86600 ELIENE FERREIRA DA SILVA OFICIAL DO MP BELO HORIZONTE - COMARCA; BH-22PJ PES COM DEF E IDOSOS-SECRETARIA 21.145,12 14.801,58 0,00 0,00 0,00 5.467,17 0,00 1.717,00 43.130,87 5.467,17 8.726,34 484,48 0,00 14.677,99 28.452,88 28/02/2022
832 183800 ELIENE MARIA CUNHA OFICIAL DO MP BELO HORIZONTE - COMARCA; DIRETORIA DE PESSOAL ADMINISTRATIVO - DPAD 16.750,82 6.700,33 0,00 0,00 0,00 0,00 515,93 7.345,28 31.312,36 3.545,40 4.552,58 0,00 0,00 8.097,98 23.214,38 28/02/2022
833 172300 ELINA APARECIDA SILVA ASSESSOR BELO HORIZONTE - COMARCA; BH-19PJ SAUDE-SECRETARIA 130PJ 0,00 1.230,51 3.076,28 0,00 0,00 0,00 0,00 1.717,00 6.023,79 606,85 425,44 0,00 0,00 1.032,29 4.991,50 28/02/2022
834 492501 ELINE CAMPOS DA FONSECA CUNHA ANALISTA DO MP PONTE NOVA - COMARCA; PONTE NOVA-PJ-02PJ 10.069,62 2.013,92 0,00 0,00 0,00 0,00 531,68 7.517,10 20.132,32 1.726,58 1.978,80 0,00 0,00 3.705,38 16.426,94 28/02/2022
835 618900 ELISA MOURA VIEIRA MARCATTI OFICIAL DO MP BELO HORIZONTE - COMARCA; GRUPO ESP PROM JUST DEF PROB ADM PAT PUB 5.930,75 593,08 0,00 0,00 0,00 0,00 0,00 2.602,30 9.126,13 839,85 693,74 0,00 0,00 1.533,59 7.592,54 28/02/2022
836 256500 ELISABETE NOGUEIRA ANALISTA DO MP RIBEIRÃO DAS NEVES - COMARCA; RIBEIRAO NEVES-SEC PJ EXECUCAO PENAL 15.272,02 7.636,01 0,00 0,00 0,00 0,00 0,00 1.717,00 24.625,03 3.458,50 4.322,85 0,00 0,00 7.781,35 16.843,68 28/02/2022
837 355000 ELISANGELA DARLANTONI RIBEIRO OFICIAL DO MP ARAXÁ - COMARCA; ARAXA-PJ-05PJ 9.444,70 2.833,41 0,00 0,00 0,00 0,00 540,24 7.610,49 20.428,84 1.757,71 1.971,61 0,00 0,00 3.729,32 16.699,52 28/02/2022
838 604400 ELISANGELA DEMASI FERREIRA MOREIRA ANALISTA DO MP CABO VERDE - COMARCA; CABO VERDE-PJ-UNPJ 9.444,70 944,47 0,00 0,00 0,00 0,00 533,31 7.534,94 18.457,42 927,17 1.664,59 0,00 0,00 2.591,76 15.865,66 28/02/2022
839 323800 ELISANGELA GONCALVES DE JESUS OFICIAL DO MP BELO HORIZONTE - COMARCA; DIVISAO FROTA 10.069,62 3.020,89 0,00 0,00 0,00 0,00 527,98 7.476,82 21.095,31 1.887,70 2.159,28 0,00 0,00 4.046,98 17.048,33 28/02/2022
840 507400 ELISANGELA MIGUEL DA ROCHA SILVA ASSESSOR BELO HORIZONTE - COMARCA; EXTINTA-CGMP-DIV APOIO FISC ORIENT FUNCIONAL 0,00 0,00 5.136,32 0,00 0,00 0,00 0,00 2.602,30 7.738,62 722,98 621,62 0,00 0,00 1.344,60 6.394,02 28/02/2022
841 261400 ELISANGELA REZENDE MENDES OFICIAL DO MP POUSO ALEGRE - COMARCA; POUSO ALEGRE-PJ-05PJ 10.069,62 3.020,89 0,00 0,00 0,00 0,00 0,00 1.717,00 14.807,51 1.887,70 2.211,41 0,00 0,00 4.099,11 10.708,40 28/02/2022
842 534100 ELISANGELA ROSINE SILVA OFICIAL DO MP UBERABA - COMARCA; UBERABA-PJ-06PJ 5.562,64 556,26 0,00 0,00 0,00 0,00 538,46 7.591,14 14.248,50 778,43 599,27 0,00 0,00 1.377,70 12.870,80 28/02/2022
843 634300 ELIUDE GRACA DAMASIO ROSARIO FRANCELINO OFICIAL DO MP BELO HORIZONTE - COMARCA; BH-18PJ VIOLENCIA DOMESTICA-SECRETARIA 4.974,42 497,44 0,00 0,00 1.823,95 0,00 0,00 2.602,30 9.898,11 681,38 949,61 0,00 0,00 1.630,99 8.267,12 28/02/2022
844 461700 ELIZABETH ALEIXO DA PAZ ANALISTA DO MP JUIZ DE FORA - COMARCA; JUIZ DE FORA-PJ-18PJ 10.069,62 2.013,92 0,00 0,00 0,00 0,00 531,68 7.517,10 20.132,32 1.726,58 1.978,80 0,00 0,00 3.705,38 16.426,94 28/02/2022
845 227300 ELIZABETH COIMBRA FELIX OFICIAL DO MP BELO HORIZONTE - COMARCA; DIRETORIA DE PAGAMENTO DE PESSOAL-DPAG 14.324,23 5.729,69 0,00 0,00 0,00 0,00 514,72 7.332,10 27.900,74 3.001,84 3.715,69 0,00 0,00 6.717,53 21.183,21 28/02/2022
846 354800 ELIZABETH DOS REIS OFICIAL DO MP BELO HORIZONTE - COMARCA; DIVISAO DE MATERIAIS 10.069,62 3.020,89 0,00 0,00 0,00 0,00 0,00 1.717,00 14.807,51 1.887,70 2.159,28 0,00 0,00 4.046,98 10.760,53 28/02/2022
847 612000 ELIZABETH MARIA DE QUEIROZ TANIGUCHI OFICIAL DO MP BELO HORIZONTE - COMARCA; SUPERINTENDENCIA GESTÃO DE PESSOAS 5.387,19 538,72 0,00 0,00 0,00 0,00 0,00 1.717,00 7.642,91 749,48 554,16 0,00 0,00 1.303,64 6.339,27 28/02/2022
848 452800 ELIZANGELA MARIA DAVI OFICIAL DO MP ARCOS - COMARCA; ARCOS-PJ-01PJ 6.123,79 1.224,76 0,00 0,00 0,00 0,00 0,00 1.717,00 9.065,55 968,98 832,88 0,00 0,00 1.801,86 7.263,69 28/02/2022
849 496300 ELIZANGELA MARQUES PINTO COELHO OFICIAL DO MP BELO HORIZONTE - COMARCA; DIRETORIA DE PESSOAL ADMINISTRATIVO - DPAD 7.912,85 1.582,57 0,00 0,00 0,00 0,00 348,17 5.515,17 15.358,76 1.312,48 1.380,95 0,00 0,00 2.693,43 12.665,33 28/02/2022
850 422500 ELIZETE FORTES DA CUNHA ANALISTA DO MP RIBEIRÃO DAS NEVES - COMARCA; RIBEIRAO DAS NEVES-PJ-07PJ 14.324,23 2.864,85 0,00 0,00 0,00 0,00 504,21 7.217,51 24.910,80 2.543,47 3.106,05 0,00 0,00 5.649,52 19.261,28 28/02/2022
851 506100 ELLEM CRISTINA ROCHA FONSECA BOWEN ANALISTA DO MP GOVERNADOR VALADARES - COMARCA; COORD REG PJ DEF EDU DIR CRIANCA ADOL RIODOCE 10.069,62 2.013,92 0,00 0,00 0,00 0,00 0,00 1.717,00 13.800,54 1.726,58 1.978,80 0,00 0,00 3.705,38 10.095,16 28/02/2022
852 468200 ELLEN CRISTINA BERNARDES DARE ANALISTA DO MP TRÊS PONTAS - COMARCA; TRES PONTAS-PJ-02PJ 10.069,62 2.013,92 0,00 0,00 0,00 0,00 531,68 8.402,40 21.017,62 1.726,58 1.926,67 0,00 0,00 3.653,25 17.364,37 28/02/2022
853 418800 ELLEN CRISTINA DE QUEIROZ FERREIRA ANALISTA DO MP BELO HORIZONTE - COMARCA; CENTRAL DE APOIO TECNICO-SETOR CONTABIL 13.011,52 2.602,30 0,00 0,00 0,00 0,00 515,26 8.665,93 24.795,01 927,17 2.993,61 0,00 0,00 3.920,78 20.874,23 28/02/2022
854 328401 ELLEN CRISTINA FERREIRA MORAIS MONTEIRO ANALISTA DO MP CAMANDUCAIA - COMARCA; CAMANDUCAIA-PJ-UNPJ 13.011,52 2.602,30 0,00 0,00 0,00 0,00 0,00 1.717,00 17.330,82 2.291,42 2.690,02 0,00 0,00 4.981,44 12.349,38 28/02/2022
855 556100 ELLEN CRISTINE BIANCHIN DA SILVA OFICIAL DO MP SÃO GONÇALO DO SAPUCAÍ - COMARCA; SAO GONCALO DO SAPUCAI-PJ-02PJ 5.562,64 556,26 0,00 0,00 0,00 0,00 336,54 5.388,34 11.843,78 778,43 547,13 0,00 0,00 1.325,56 10.518,22 28/02/2022
856 714500 ELLEN PROENCA CARVALHO DE ARAUJO ASSESSOR PROMOTOR JUSTICA MARIANA - COMARCA; MARIANA-PJ-02PJ 0,00 0,00 7.187,72 0,00 0,00 0,00 0,00 1.717,00 8.904,72 828,38 1.208,91 0,00 0,00 2.037,29 6.867,43 28/02/2022
857 447100 ELLEN ROSANA DE MACEDO BORGES OFICIAL DO MP UBERLÂNDIA - COMARCA; UBERLANDIA-PJ-17PJ 8.579,10 1.715,82 0,00 0,00 0,00 0,00 415,23 6.246,76 16.956,91 1.440,40 1.565,63 0,00 0,00 3.006,03 13.950,88 28/02/2022
858 477700 ELMA JACOB OFICIAL DO MP BELO HORIZONTE - COMARCA; COORD DE GABINETE DO PGJ 7.912,85 5.539,00 0,00 0,00 0,00 1.945,51 542,56 7.635,81 23.575,73 1.945,51 2.829,90 0,00 0,00 4.775,41 18.800,32 28/02/2022
859 123300 ELMA PAULA DOS SANTOS COELHO OFICIAL DO MP BELO HORIZONTE - COMARCA; BH-19PJ SAUDE-SECRETARIA 130PJ 18.820,14 16.938,13 0,00 0,00 0,00 5.467,17 0,00 1.717,00 42.942,44 5.467,17 8.882,75 296,05 0,00 14.645,97 28.296,47 28/02/2022
860 356500 ELOISA CARDOSO SILVA FRANCA OFICIAL DO MP PEÇANHA - COMARCA; PECANHA-PJ-SECRETARIA 6.123,79 1.837,14 0,00 0,00 0,00 0,00 0,00 1.717,00 9.677,93 1.066,96 922,21 0,00 0,00 1.989,17 7.688,76 28/02/2022
861 251901 ELOISA COSTA E SILVA ANALISTA DO MP SANTOS DUMONT - COMARCA; SANTOS DUMONT-PJ-02PJ 10.069,62 3.020,89 0,00 0,00 0,00 0,00 527,98 8.362,12 21.980,61 1.887,70 2.159,28 0,00 0,00 4.046,98 17.933,63 28/02/2022
862 400400 ELOIZA MARIA FERRI PIRES DA SILVA OFICIAL DO MP BELO HORIZONTE - COMARCA; ASSESSORIA TECNICA DO PROCON-MG 8.579,10 1.715,82 0,00 0,00 0,00 0,00 0,00 1.717,00 12.011,92 1.440,40 1.513,50 0,00 0,00 2.953,90 9.058,02 28/02/2022
863 258000 ELSO CECIANO PALMEIRA ASSESSOR/OFICIAL BELO HORIZONTE - COMARCA; DIRET DE PESSOAL DO MINISTERIO PUBLICO - DPMP 12.601,30 8.820,91 3.024,31 0,00 0,00 0,00 537,82 7.584,16 32.568,50 3.220,77 4.967,72 0,00 0,00 8.188,49 24.380,01 28/02/2022
864 206900 ELVIRA RITA DOS SANTOS ANALISTA DO MP BELO HORIZONTE - COMARCA; CENTRAL DE APOIO TECNICO-SETOR CONTABIL 18.820,14 7.528,06 0,00 0,00 0,00 4.008,93 0,00 1.717,00 32.074,13 4.008,93 6.376,40 0,00 0,00 10.385,33 21.688,80 28/02/2022
865 506800 ELVIS FERREIRA DA SILVA ANALISTA DO MP BELO HORIZONTE - COMARCA; DIRETORIA DE SISTEMAS DE INFORMACAO 10.069,62 2.013,92 0,00 0,00 0,00 0,00 531,68 8.402,40 21.017,62 1.726,58 1.822,39 0,00 0,00 3.548,97 17.468,65 28/02/2022
866 602400 ELZA MARIA MOREIRA MUNIZ ANALISTA DO MP RIO PARANAÍBA - COMARCA; RIO PARANAIBA-PJ-UNPJ 9.444,70 944,47 0,00 0,00 0,00 0,00 419,03 6.288,23 17.096,43 1.455,48 1.535,27 0,00 0,00 2.990,75 14.105,68 28/02/2022
867 368401 ELZIRA SIMOES DOS SANTOS ASSESSOR BELO HORIZONTE - COMARCA; ASSESSORIA DE COMUNICACAO INTEGRADA 0,00 3.433,94 11.446,46 0,00 0,00 0,00 272,81 4.693,08 19.846,29 828,38 3.324,40 0,00 0,00 4.152,78 15.693,51 28/02/2022
868 437400 EMANOELLE DA SILVA RODRIGUES OFICIAL DO MP UNAÍ - COMARCA; UNAI-PJ-03PJ 7.912,85 1.582,57 0,00 0,00 0,00 0,00 348,17 6.952,37 16.795,96 1.312,48 1.328,81 0,00 0,00 2.641,29 14.154,67 28/02/2022
869 458900 EMANUELLE CONRAD SILVA FREDERICO NAVES ANALISTA DO MP ALFENAS - COMARCA; ALFENAS-PJ-05PJ 13.011,52 2.602,30 0,00 0,00 0,00 0,00 0,00 2.602,30 18.216,12 2.291,42 2.742,16 0,00 0,00 5.033,58 13.182,54 28/02/2022
870 284100 EMERSON MAGNO ALMEIDA PEDROSA DA FONSECA ANALISTA DO MP BELO HORIZONTE - COMARCA; CENTRAL DE APOIO TECNICO-SETOR CONTABIL 18.103,37 5.431,01 0,00 0,00 0,00 0,00 517,76 7.365,25 31.417,39 3.558,71 3.357,43 0,00 0,00 6.916,14 24.501,25 28/02/2022
871 179900 EMERSON MORAIS DIAS OFICIAL DO MP BELO HORIZONTE - COMARCA; SUPERINTENDÊNCIA DE ENGENHARIA E ARQUITETURA 16.750,82 6.700,33 0,00 0,00 0,00 0,00 515,93 7.345,28 31.312,36 3.545,40 4.604,72 0,00 0,00 8.150,12 23.162,24 28/02/2022
872 488700 EMERSON SIQUEIRA DE SOUSA TEIXEIRA ANALISTA DO MP ITANHOMI - COMARCA; ITANHOMI-PJ-UNPJ 10.069,62 2.013,92 0,00 0,00 0,00 0,00 531,68 7.517,10 20.132,32 1.726,58 1.822,39 0,00 0,00 3.548,97 16.583,35 28/02/2022
873 194200 EMILIA ALVES FERREIRA RAMOS OFICIAL DO MP UBERLÂNDIA - COMARCA; UBERLANDIA-PJ-SEC CIVEIS CRIMINAIS 11.085,56 4.434,22 0,00 0,00 0,00 0,00 0,00 1.717,00 17.236,78 2.276,38 2.772,58 0,00 0,00 5.048,96 12.187,82 28/02/2022
874 679500 EMILY DIAS LEMOS E SILVA ASSESSOR PROCURADOR JUSTICA BELO HORIZONTE - COMARCA; GABINETE DE PROCURADOR DE JUSTIÇA - SALA 515 0,00 0,00 7.187,72 0,00 0,00 0,00 131,77 4.039,84 11.359,33 828,38 1.104,63 0,00 0,00 1.933,01 9.426,32 28/02/2022
875 620700 EMILY FONTANA DE SIQUEIRA ANALISTA DO MP BELO HORIZONTE - COMARCA; BH-18PJ VIOLENCIA DOMESTICA-SECRETARIA 9.146,93 914,69 0,00 0,00 0,00 0,00 0,00 2.602,30 12.663,92 1.403,07 1.459,60 0,00 0,00 2.862,67 9.801,25 28/02/2022
876 297000 ENEIDA SOARES COSTA MELO ANALISTA DO MP PIUMHI - COMARCA; PIUMHI-PJ-01PJ 18.103,37 5.431,01 0,00 0,00 0,00 0,00 517,76 7.365,25 31.417,39 3.558,71 4.623,95 0,00 0,00 8.182,66 23.234,73 28/02/2022
877 276000 ENEZIO RODRIGUES DE SOUZA FILHO OFICIAL DO MP UBERLÂNDIA - COMARCA; UBERLANDIA-PJ-10PJ 10.069,62 3.020,89 0,00 0,00 0,00 0,00 144,00 3.287,86 16.522,37 1.887,70 2.211,41 0,00 0,00 4.099,11 12.423,26 28/02/2022
878 387700 ENI MARIA DOS REIS OFICIAL DO MP POUSO ALEGRE - COMARCA; POUSO ALEGRE-PJ-07PJ 9.146,93 1.829,39 0,00 0,00 0,00 0,00 482,96 6.985,63 18.444,91 1.549,42 1.723,04 0,00 0,00 3.272,46 15.172,45 28/02/2022
879 605100 ENIA MAIA ASSESSOR/OFICIAL BELO HORIZONTE - COMARCA; DIRETORIA DE ORCAMENTO-DIOR/SPC 0,00 1.039,75 10.397,52 0,00 0,00 0,00 1.060,14 7.206,89 19.704,30 872,76 2.035,88 0,00 0,00 2.908,64 16.795,66 28/02/2022
880 612200 ENILDO GOMES MEIRA FILHO ANALISTA DO MP BELO HORIZONTE - COMARCA; BH-23PJ INFRACIONAL-ASS JURIDICA 9.146,93 914,69 0,00 0,00 0,00 0,00 2.587,20 2.602,30 15.251,12 1.817,02 1.952,97 0,00 0,00 3.769,99 11.481,13 28/02/2022
881 553700 ENIVALDO NOVATO PUBLIO ANALISTA DO MP DIVINÓPOLIS - COMARCA; DIVINOPOLIS-PJ-09PJ 9.444,70 944,47 0,00 0,00 0,00 0,00 0,00 1.717,00 12.106,17 1.455,48 1.535,27 0,00 0,00 2.990,75 9.115,42 28/02/2022
882 680600 ENZO JOSE FERES SOUZA JABER ASSESSOR PROMOTOR JUSTICA NOVO CRUZEIRO - COMARCA; NOVO CRUZEIRO-PJ-SECRETARIA 0,00 0,00 7.187,72 0,00 0,00 0,00 0,00 1.717,00 8.904,72 828,38 1.208,91 0,00 0,00 2.037,29 6.867,43 28/02/2022
883 417300 ERIC BARATTI DA SILVA ANALISTA DO MP FRUTAL - COMARCA; FRUTAL-PJ-05PJ 10.736,08 2.147,22 0,00 0,00 0,00 0,00 0,00 1.717,00 14.600,30 1.854,54 2.163,55 0,00 0,00 4.018,09 10.582,21 28/02/2022
884 637600 ERIC DA ROCHA CHEHUEN ANALISTA DO MP LIMA DUARTE - COMARCA; LIMA DUARTE-PJ-UNPJ 8.436,53 843,65 0,00 0,00 0,00 0,00 0,00 1.717,00 10.997,18 927,17 1.427,72 0,00 0,00 2.354,89 8.642,29 28/02/2022
885 398900 ERIC TEIXEIRA SILVA OFICIAL DO MP UBERLÂNDIA - COMARCA; UBERLANDIA-PJ-SEC CIVEIS CRIMINAIS 9.444,70 1.888,94 0,00 0,00 0,00 0,00 0,00 1.717,00 13.050,64 1.606,60 1.805,58 0,00 0,00 3.412,18 9.638,46 28/02/2022
886 703600 ERICA CORDEIRO SANTOS ASSESSOR PROMOTOR JUSTICA MINAS NOVAS - COMARCA; MINAS NOVAS-PJ-UNPJ 0,00 0,00 7.187,72 0,00 0,00 0,00 0,00 1.717,00 8.904,72 828,38 1.208,91 0,00 0,00 2.037,29 6.867,43 28/02/2022
887 274200 ERICA DE SOUZA ANDRADE OFICIAL DO MP CURVELO - COMARCA; CURVELO-PJ-03PJ 11.085,56 3.325,67 0,00 0,00 4.803,74 0,00 528,41 7.481,49 27.224,87 2.099,01 3.785,39 0,00 0,00 5.884,40 21.340,47 28/02/2022
888 225700 ERICA GOMES DO COUTO OFICIAL DO MP BELO HORIZONTE - COMARCA; BH-21PJ TUTELA FUNDACOES-SECRETARIA 14.790,66 4.437,20 0,00 0,00 6.409,29 0,00 0,00 2.602,30 28.239,45 2.869,67 5.391,70 0,00 0,00 8.261,37 19.978,08 28/02/2022
889 632600 ERICA LEONOR MARTINS OFICIAL DO MP RESENDE COSTA - COMARCA; RESENDE COSTA-PJ-UNPJ 5.387,19 538,72 0,00 0,00 0,00 0,00 0,00 1.717,00 7.642,91 749,48 554,16 0,00 0,00 1.303,64 6.339,27 28/02/2022
890 524800 ERICA MACHADO DA COSTA E SOUZA ANALISTA DO MP BELO HORIZONTE - COMARCA; ASSESS TECNICO-JUR JUNTO AS PROC. DE JUST 10.736,08 2.147,22 0,00 0,00 357,87 0,00 1.593,24 7.900,98 22.735,39 2.026,32 2.509,97 0,00 0,00 4.536,29 18.199,10 28/02/2022
891 249500 ERICA RODRIGUES ANDRADE OFICIAL DO MP SÃO FRANCISCO - COMARCA; SAO FRANCISCO-PJ-02PJ 9.444,70 2.833,41 0,00 0,00 0,00 0,00 540,24 7.610,49 20.428,84 1.757,71 1.971,61 0,00 0,00 3.729,32 16.699,52 28/02/2022
892 260800 ERICA VIANA GIARDINI DE OLIVEIRA OFICIAL DO MP BELO HORIZONTE - COMARCA; DIRETORIA GESTAO COMPRAS LICITACOES 10.069,62 3.020,89 0,00 0,00 0,00 0,00 0,00 1.717,00 14.807,51 1.887,70 2.211,41 0,00 0,00 4.099,11 10.708,40 28/02/2022
893 299800 ERICH DOUGLAS RIBEIRO GARCIA ANALISTA DO MP BELO HORIZONTE - COMARCA; CENTRAL DE APOIO TECNICO-SETOR CONTABIL 17.413,92 5.224,18 0,00 0,00 0,00 0,00 498,04 7.150,14 30.286,28 3.415,31 4.416,91 0,00 0,00 7.832,22 22.454,06 28/02/2022
894 365000 ERICK EDUARDO JOSE DA SILVA OFICIAL DO MP SANTOS DUMONT - COMARCA; SANTOS DUMONT-PJ-02PJ 6.123,79 1.837,14 0,00 0,00 2.653,64 0,00 291,90 4.901,37 15.807,84 1.066,96 1.756,23 0,00 0,00 2.823,19 12.984,65 28/02/2022
895 688900 ERICK FERDINANN SANTOS GOMES ASSESSOR PROMOTOR JUSTICA OURO PRETO - COMARCA; OURO PRETO-PJ-04PJ 0,00 0,00 7.187,72 0,00 0,00 0,00 0,00 1.717,00 8.904,72 828,38 1.208,91 0,00 0,00 2.037,29 6.867,43 28/02/2022
896 227400 ERIKA DE LAET GOULART BOECHAT OFICIAL DO MP BELO HORIZONTE - COMARCA; BH-17PJ PATRIMONIO PUBLICO-SECRETARIA 14.790,66 4.437,20 0,00 0,00 0,00 0,00 0,00 1.717,00 20.944,86 2.869,67 3.577,00 0,00 0,00 6.446,67 14.498,19 28/02/2022
897 681301 ERIKA FERNANDA ELISEU FERREIRA ASSESSOR PROCURADOR JUSTICA BELO HORIZONTE - COMARCA; GABINETE DE PROCURADOR DE JUSTIÇA - SALA 411 0,00 0,00 7.187,72 0,00 0,00 0,00 0,00 1.717,00 8.904,72 828,38 1.208,91 0,00 0,00 2.037,29 6.867,43 28/02/2022
898 285100 ERIKA FERREIRA DA SILVA OFICIAL DO MP JUIZ DE FORA - COMARCA; JUIZ DE FORA-PJ-11PJ 10.069,62 3.020,89 0,00 0,00 0,00 0,00 527,98 7.476,82 21.095,31 1.887,70 2.211,41 0,00 0,00 4.099,11 16.996,20 28/02/2022
899 420100 ERIKA JEANINE VERSIANI DE CASTRO ANALISTA DO MP BELO HORIZONTE - COMARCA; COORD ESTADUAL DE DEFESA DA EDUCACAO 14.324,23 2.864,85 0,00 0,00 0,00 0,00 504,21 7.217,51 24.910,80 2.543,47 3.158,18 0,00 0,00 5.701,65 19.209,15 28/02/2022
900 677100 ERIKA LAYS CARDOSO FERNANDES ASSESSOR PROMOTOR JUSTICA GRAO MOGOL - COMARCA; GRAO MOGOL-PJ-UNPJ 0,00 0,00 7.187,72 0,00 0,00 0,00 0,00 1.717,00 8.904,72 828,38 1.208,91 0,00 0,00 2.037,29 6.867,43 28/02/2022
901 606900 ERIKA MARIA BARBOSA ANALISTA DO MP BELO HORIZONTE - COMARCA; CAO-SAUDE 8.579,10 857,91 0,00 0,00 0,00 0,00 0,00 1.717,00 11.154,01 1.303,14 1.315,32 0,00 0,00 2.618,46 8.535,55 28/02/2022
902 491000 ERIKA ROCHA PEREIRA E SILVA COORDENADOR/ANALISTA BELO HORIZONTE - COMARCA; DIR GOVERNANCA TECNOLOGIA INFORMACAO 0,00 2.687,03 13.435,16 0,00 0,00 0,00 532,03 7.520,99 24.175,21 1.726,58 3.089,43 0,00 0,00 4.816,01 19.359,20 28/02/2022
903 283201 ERIKA STEHLING COORDENADOR/ANALISTA BELO HORIZONTE - COMARCA; CENTRAL DE APOIO TECNICO-SETOR DE ENGENHARIA 10.069,62 2.013,92 2.363,83 0,00 0,00 0,00 0,00 1.717,00 16.164,37 1.726,58 2.628,86 0,00 0,00 4.355,44 11.808,93 28/02/2022
904 254000 ERLANDIA DA SILVA MENDES OFICIAL DO MP IPATINGA - COMARCA; IPATINGA-PJ-03PJ 13.011,52 5.204,61 0,00 0,00 0,00 0,00 534,34 7.546,16 26.296,63 2.707,79 3.239,02 0,00 0,00 5.946,81 20.349,82 28/02/2022
905 208600 ERNANE JOSE DA COSTA ANALISTA DO MP BELO HORIZONTE - COMARCA; CENTRAL DE APOIO TECNICO-SETOR MEDICO 18.820,14 15.056,11 0,00 0,00 0,00 0,00 0,00 1.717,00 35.593,25 5.213,41 7.012,92 0,00 0,00 12.226,33 23.366,92 28/02/2022
906 260600 ERNANI CALDEIRA DE ANDRADE ANALISTA DO MP BELO HORIZONTE - COMARCA; CENTRAL DE APOIO TECNICO-SETOR CONTABIL 18.820,14 5.646,04 0,00 0,00 0,00 0,00 89,71 2.695,65 27.251,54 3.707,80 4.839,19 0,00 0,00 8.546,99 18.704,55 28/02/2022
907 348500 ERNILANDIA DE OLIVEIRA DIAS OFICIAL DO MP MONTES CLAROS - COMARCA; MONTES CLAROS-PJ-16PJ 9.146,93 2.744,08 0,00 0,00 0,00 0,00 523,20 7.424,68 19.838,89 1.695,78 1.934,33 0,00 0,00 3.630,11 16.208,78 28/02/2022
908 199300 ERTON PORTINARI DE ANDRADE OFICIAL DO MP SETE LAGOAS - COMARCA; SETE LAGOAS-PJ-05PJ 15.272,02 6.108,81 0,00 0,00 0,00 0,00 548,77 7.703,63 29.633,23 3.214,15 4.022,20 0,00 0,00 7.236,35 22.396,88 28/02/2022
909 618800 ESLY DE CARLA AYALLA BARBOSA MENDES OFICIAL DO MP NOVA LIMA - COMARCA; NOVA LIMA-PJ-SECRETARIA 5.387,19 538,72 0,00 0,00 1.975,30 0,00 0,00 1.717,00 9.618,21 749,48 1.097,36 0,00 0,00 1.846,84 7.771,37 28/02/2022
910 537000 ESTANISLAU CORREIA ALMEIDA JUNIOR OFICIAL DO MP UBERLÂNDIA - COMARCA; UBERLANDIA-PJ-25PJ 6.123,79 612,38 0,00 0,00 2.245,39 0,00 0,00 1.717,00 10.698,56 872,76 1.360,56 0,00 0,00 2.233,32 8.465,24 28/02/2022
911 692100 ESTEFANIA FARIA FERREIRA ASSESSOR PROCURADOR JUSTICA BELO HORIZONTE - COMARCA; GABINETE DE PROCURADOR DE JUSTIÇA - SALA 814 0,00 0,00 7.187,72 0,00 2.395,91 0,00 0,00 1.717,00 11.300,63 828,38 1.867,78 0,00 0,00 2.696,16 8.604,47 28/02/2022
912 326900 ESTER ALICE PIMENTA OFICIAL DO MP BELO HORIZONTE - COMARCA; COORD DE INCLUSAO E MOBILIZACAO SOCIAIS 10.069,62 3.020,89 0,00 0,00 0,00 0,00 527,98 7.476,82 21.095,31 1.887,70 2.211,41 0,00 0,00 4.099,11 16.996,20 28/02/2022
913 503700 ESTHER GONCALVES FONSECA ANALISTA DO MP BELO HORIZONTE - COMARCA; DIR CRIACAO E MIDIAS 9.752,14 1.950,43 0,00 0,00 0,00 0,00 0,00 1.717,00 13.419,57 1.665,62 1.890,80 0,00 0,00 3.556,42 9.863,15 28/02/2022
914 475600 ETIENE DE FATIMA OLIVEIRA PEREIRA ANALISTA DO MP PATROCÍNIO - COMARCA; PATROCINIO-PJ-04PJ 10.069,62 2.013,92 0,00 0,00 0,00 0,00 0,00 1.717,00 13.800,54 927,17 1.991,32 0,00 0,00 2.918,49 10.882,05 28/02/2022
915 428800 EUGENIA RODRIGUES TRAJANO BORGES ANALISTA DO MP UBERABA - COMARCA; UBERABA-PJ-10PJ 13.011,52 2.602,30 0,00 0,00 0,00 0,00 0,00 2.602,30 18.216,12 2.291,42 2.794,30 0,00 0,00 5.085,72 13.130,40 28/02/2022
916 272700 EUGENIO DE BARCELOS FILHO OFICIAL DO MP FRUTAL - COMARCA; FRUTAL-PJ-03PJ 9.146,93 2.744,08 0,00 0,00 0,00 0,00 0,00 1.717,00 13.608,01 1.695,78 1.882,19 0,00 0,00 3.577,97 10.030,04 28/02/2022
917 254100 EULALIA ALVES MIRANDA LUCAS OFICIAL DO MP ALMENARA - COMARCA; ALMENARA-PJ-02PJ 12.601,30 3.780,39 0,00 0,00 0,00 0,00 540,60 7.614,41 24.536,70 2.414,28 2.867,40 0,00 0,00 5.281,68 19.255,02 28/02/2022
918 641200 EUNICE ELVIRA DA SILVA MATOS OFICIAL DO MP BELO HORIZONTE - COMARCA; BH-14PJ DEFESA CONSUMIDOR-SECRETARIA 4.974,42 497,44 0,00 0,00 0,00 0,00 0,00 1.717,00 7.188,86 681,38 448,02 0,00 0,00 1.129,40 6.059,46 28/02/2022
919 557900 EURIPEDES JOSUE PERES OFICIAL DO MP IBIÁ - COMARCA; IBIA-PJ-UNPJ 5.562,64 556,26 0,00 0,00 0,00 0,00 22,44 1.961,76 8.103,10 778,43 599,27 0,00 0,00 1.377,70 6.725,40 28/02/2022
920 225800 EURO CESAR VIEIRA BARBOSA ANALISTA DO MP BELO HORIZONTE - COMARCA; BH-17PJ PATRIMONIO PUBLICO-SECRETARIA 18.820,14 7.528,06 0,00 0,00 0,00 0,00 483,05 6.986,64 33.817,89 4.008,93 5.169,67 0,00 0,00 9.178,60 24.639,29 28/02/2022
921 199400 EUSTAQUIO ADAILTON LIMA E SILVA OFICIAL DO MP MANGA - COMARCA; MANGA-PJ-01PJ 15.272,02 10.690,41 0,00 0,00 0,00 0,00 475,98 6.909,49 33.347,90 3.947,20 5.028,42 0,00 0,00 8.975,62 24.372,28 28/02/2022
922 548000 EVA VILMA LEAO REIS JULIO OFICIAL DO MP BELO HORIZONTE - COMARCA; BH-07PJ 01 TRIBUNAL JURI-SECRETARIA 6.123,79 1.837,14 0,00 0,00 0,00 0,00 0,00 1.717,00 9.677,93 1.066,96 1.026,48 0,00 0,00 2.093,44 7.584,49 28/02/2022
923 517000 EVALDO SENA COSTA FILHO ANALISTA DO MP CONTAGEM - COMARCA; CONTAGEM-PJ-15PJ 10.069,62 3.020,89 0,00 0,00 0,00 0,00 527,98 7.476,82 21.095,31 1.887,70 2.055,00 0,00 0,00 3.942,70 17.152,61 28/02/2022
924 217500 EVELANGE LEAO RABELO ASSESSOR BELO HORIZONTE - COMARCA; CAO-PESSOAS IDOSAS E PESSOAS COM DEFICIENCIA 0,00 2.054,53 5.136,32 0,00 2.396,95 0,00 0,00 1.717,00 11.304,80 828,38 1.868,93 0,00 0,00 2.697,31 8.607,49 28/02/2022
925 679600 EVERTON BARBOSA DA SILVA ASSESSOR PROCURADOR JUSTICA BELO HORIZONTE - COMARCA; GABINETE DE PROCURADOR DE JUSTIÇA - SALA 510 0,00 0,00 7.187,72 0,00 2.395,91 0,00 527,10 7.467,18 17.577,91 741,83 1.891,58 0,00 0,00 2.633,41 14.944,50 28/02/2022
926 540400 EVIE SARAMELLA DE RESENDE OFICIAL DO MP BARBACENA - COMARCA; BARBACENA-PJ-05PJ 6.123,79 612,38 0,00 0,00 0,00 0,00 74,10 2.525,34 9.335,61 872,76 743,08 0,00 0,00 1.615,84 7.719,77 28/02/2022
927 469000 EWERTON CARDOSO DE SA RODRIGUES ANALISTA DO MP CAMPO BELO - COMARCA; CAMPO BELO-PJ-02PJ 10.069,62 2.013,92 0,00 0,00 0,00 0,00 531,68 8.402,40 21.017,62 1.726,58 1.874,53 0,00 0,00 3.601,11 17.416,51 28/02/2022
928 368900 FABIANA BARBOSA SIQUEIRA OFICIAL DO MP BELO HORIZONTE - COMARCA; CAO-ORDEM ECONOMICA E TRIBUTARIA-SECRETARIA 10.736,08 2.147,22 0,00 0,00 0,00 0,00 519,63 7.385,65 20.788,58 1.854,54 2.111,41 0,00 0,00 3.965,95 16.822,63 28/02/2022
929 273800 FABIANA CARNEIRO AMORIM COORDENADOR/OFICIAL BELO HORIZONTE - COMARCA; BH-23PJ CIVEL-COORD ADM CIVEL 12.204,02 3.661,21 2.363,83 0,00 0,00 0,00 534,72 7.550,30 26.314,08 2.331,65 3.398,15 0,00 0,00 5.729,80 20.584,28 28/02/2022
930 519300 FABIANA DE OLIVEIRA LOUREIRO ANALISTA DO MP BELO HORIZONTE - COMARCA; BH-09PJ AUDITORIA MILITAR-SECRETARIA 10.069,62 2.013,92 0,00 0,00 0,00 0,00 531,68 7.517,10 20.132,32 1.726,58 1.978,80 0,00 0,00 3.705,38 16.426,94 28/02/2022
931 363400 FABIANA DOURADO DUPIN VIEGAS ANALISTA DO MP BELO HORIZONTE - COMARCA; GABINETE DE PROCURADOR DE JUSTIÇA - SALA 705 16.750,82 5.025,25 0,00 0,00 0,00 0,00 0,00 1.717,00 23.493,07 3.277,38 4.165,64 0,00 0,00 7.443,02 16.050,05 28/02/2022
932 410800 FABIANA DUARTE QUITITE ANALISTA DO MP BELO HORIZONTE - COMARCA; BH-15PJ M AMB PAT HIST CULT-GAB 116PJ 14.324,23 2.864,85 0,00 0,00 0,00 0,00 504,21 7.217,51 24.910,80 2.543,47 3.158,18 0,00 0,00 5.701,65 19.209,15 28/02/2022
933 419500 FABIANA EULALIA DOS SANTOS ANALISTA DO MP SÃO JOÃO DEL REI - COMARCA; SAO JOAO DEL REI-PJ-01PJ 14.324,23 2.864,85 0,00 0,00 0,00 0,00 504,21 7.217,51 24.910,80 2.543,47 3.158,18 0,00 0,00 5.701,65 19.209,15 28/02/2022
934 700300 FABIANA MARCIA DE SOUZA ASSESSOR BELO HORIZONTE - COMARCA; DIRET DE CONTROLE E DE MANUTENCAO DE IMOVEIS 0,00 0,00 3.076,28 0,00 0,00 0,00 0,00 1.717,00 4.793,28 434,57 227,80 0,00 0,00 662,37 4.130,91 28/02/2022
935 376300 FABIANA MATTOSO LEMOS ANALISTA DO MP BELO HORIZONTE - COMARCA; BH-21PJ TUTELA FUNDACOES-SECRETARIA 14.790,66 2.958,13 0,00 0,00 0,00 0,00 0,00 1.717,00 19.465,79 927,17 3.756,59 0,00 0,00 4.683,76 14.782,03 28/02/2022
936 331500 FABIANA PACHECO OFICIAL DO MP GUAXUPÉ - COMARCA; GUAXUPE-PJ-01PJ 10.069,62 3.020,89 0,00 0,00 0,00 0,00 0,00 2.602,30 15.692,81 1.887,70 2.107,14 0,00 0,00 3.994,84 11.697,97 28/02/2022
937 510700 FABIANA PEREIRA SANTOS BORGES ANALISTA DO MP BELO HORIZONTE - COMARCA; DIRETORIA DE SISTEMAS DE INFORMACAO 10.069,62 2.013,92 0,00 0,00 0,00 0,00 0,00 1.717,00 13.800,54 1.726,58 1.926,67 0,00 0,00 3.653,25 10.147,29 28/02/2022
938 181700 FABIANA SOUZA FERREIRA OFICIAL DO MP BELO HORIZONTE - COMARCA; BH-19PJ SAUDE-SECRETARIA 150PJ 6.123,79 2.449,52 0,00 0,00 0,00 0,00 0,00 1.717,00 10.290,31 1.164,94 1.063,67 0,00 0,00 2.228,61 8.061,70 28/02/2022
939 272900 FABIANA STOCKLER LEITE OFICIAL DO MP LAJINHA - COMARCA; LAJINHA-PJ-SECRETARIA 10.069,62 5.034,81 0,00 0,00 5.034,81 0,00 498,45 7.154,59 27.792,28 2.209,92 4.009,07 0,00 0,00 6.218,99 21.573,29 28/02/2022
940 225500 FABIANE DE FATIMA PORTELLA ANALISTA DO MP BELO HORIZONTE - COMARCA; BH-18PJ DIREITOS HUMANOS-SECRETARIA 18.820,14 5.646,04 0,00 0,00 0,00 0,00 0,00 1.717,00 26.183,18 3.707,80 4.839,19 0,00 0,00 8.546,99 17.636,19 28/02/2022
941 433800 FABIANE DINIZ MATTOS ANALISTA DO MP BELO HORIZONTE - COMARCA; BH-23PJ INFRACIONAL-ASS JURIDICA 14.324,23 2.864,85 0,00 0,00 0,00 0,00 2.651,94 3.487,60 23.328,62 2.967,78 3.770,78 0,00 0,00 6.738,56 16.590,06 28/02/2022
942 455000 FABIANO CARVALHO DA SILVA ANALISTA DO MP LAVRAS - COMARCA; LAVRAS-PJ-05PJ 10.069,62 2.013,92 0,00 0,00 0,00 0,00 531,68 7.517,10 20.132,32 1.726,58 1.978,80 0,00 0,00 3.705,38 16.426,94 28/02/2022
943 498800 FABIANO FURTADO PESSOA COELHO ANALISTA DO MP BELO HORIZONTE - COMARCA; DIRETORIA DE REDES E BANCOS DE DADOS 10.069,62 2.013,92 0,00 0,00 0,00 0,00 0,00 1.717,00 13.800,54 1.726,58 1.926,67 0,00 0,00 3.653,25 10.147,29 28/02/2022
944 663000 FABIANO MARQUES CORREA ASSESSOR BELO HORIZONTE - COMARCA; DIRETORIA DE SUPORTE E MANUTENCAO 0,00 0,00 5.136,32 0,00 0,00 0,00 0,00 1.717,00 6.853,32 722,98 673,76 0,00 0,00 1.396,74 5.456,58 28/02/2022
945 394600 FABIANO PALHARES SILVA ANALISTA DO MP BELO HORIZONTE - COMARCA; CENTRAL DE APOIO TECN-SETOR DE MEIO AMBIENTE 14.790,66 2.958,13 0,00 0,00 0,00 0,00 0,00 1.717,00 19.465,79 2.633,02 3.235,34 0,00 0,00 5.868,36 13.597,43 28/02/2022
946 676600 FABIANO RESENDE VELOSO ASSESSOR PROCURADOR JUSTICA BELO HORIZONTE - COMARCA; GABINETE DE PROCURADOR DE JUSTIÇA - SALA 1002 0,00 0,00 7.187,72 0,00 0,00 0,00 0,00 1.717,00 8.904,72 828,38 1.208,91 0,00 0,00 2.037,29 6.867,43 28/02/2022
947 444400 FABIANO SARAIVA MEDEIROS ANALISTA DO MP BETIM - COMARCA; BETIM-PJ-11PJ 13.011,52 2.602,30 0,00 0,00 0,00 0,00 0,00 1.717,00 17.330,82 2.291,42 2.690,02 0,00 0,00 4.981,44 12.349,38 28/02/2022
948 408700 FABIANO SOARES PORTILHO ANALISTA DO MP JUIZ DE FORA - COMARCA; GAECO REGIONAL DA ZONA DA MATA-JUIZ DE FORA 14.324,23 2.864,85 0,00 0,00 0,00 0,00 0,00 1.717,00 18.906,08 2.543,47 3.158,18 0,00 0,00 5.701,65 13.204,43 28/02/2022
949 442600 FABIO CARVALHO VIEIRA ANALISTA DO MP MONTES CLAROS - COMARCA; MONTES CLAROS-PJ-06PJ 10.069,62 2.013,92 0,00 0,00 0,00 0,00 531,68 7.517,10 20.132,32 1.726,58 1.978,80 0,00 0,00 3.705,38 16.426,94 28/02/2022
950 716600 FABIO DAMASCENA MONTEIRO DE CARVALHO ASSESSOR PROMOTOR JUSTICA JACINTO - COMARCA; JACINTO-PJ-UNPJ 0,00 0,00 7.187,72 0,00 0,00 0,00 718,77 2.399,36 10.305,85 828,38 1.451,49 0,00 0,00 2.279,87 8.025,98 28/02/2022
951 702700 FABIO JUNIOR COSTA BARREIROS ASSESSOR BELO HORIZONTE - COMARCA; DIVISAO DE MANUTENCAO PREDIAL 0,00 0,00 3.076,28 0,00 0,00 0,00 0,00 2.602,30 5.678,58 434,57 164,28 0,00 0,00 598,85 5.079,73 28/02/2022
952 240101 FABIO JUNQUEIRA DE ASSIS FONSECA OFICIAL DO MP BELO HORIZONTE - COMARCA; BH-17PJ PATRIMONIO PUBLICO-SECRETARIA 8.436,53 2.530,96 0,00 0,00 0,00 0,00 0,00 1.717,00 12.684,49 1.548,01 1.721,00 0,00 0,00 3.269,01 9.415,48 28/02/2022
953 271500 FABIO LUIZ VIEIRA OFICIAL DO MP SANTA VITÓRIA - COMARCA; SANTA VITORIA-PJ-UNPJ 10.069,62 3.020,89 0,00 0,00 0,00 0,00 527,98 7.508,38 21.126,87 1.887,70 2.107,14 0,00 0,00 3.994,84 17.132,03 28/02/2022
954 213100 FABIO PRATES GONCALVES ASSESSOR BELO HORIZONTE - COMARCA; DIR RELACOES INSTITUCIONAIS 0,00 4.159,01 10.397,52 0,00 0,00 0,00 0,00 1.717,00 16.273,53 828,38 3.078,92 0,00 0,00 3.907,30 12.366,23 28/02/2022
955 436700 FABIO SANTIAGO DE CARVALHO OFICIAL DO MP POÇO FUNDO - COMARCA; POCO FUNDO-PJ-UNPJ 8.858,43 1.771,69 0,00 0,00 0,00 0,00 428,75 6.394,25 17.453,12 1.494,03 1.643,06 0,00 0,00 3.137,09 14.316,03 28/02/2022
956 208400 FABIOLA DE SOUSA CARDOSO ASSESSOR/ANALISTA BELO HORIZONTE - COMARCA; CGMP-ASSESSORIA JURIDICA 18.820,14 7.528,06 2.520,26 0,00 0,00 0,00 529,25 7.490,69 36.888,40 4.008,93 5.967,01 0,00 0,00 9.975,94 26.912,46 28/02/2022
957 392200 FABIOLA LEROY COSTA ANALISTA DO MP ESMERALDAS - COMARCA; ESMERALDAS-PJ-01PJ 10.069,62 2.013,92 0,00 0,00 0,00 0,00 0,00 3.487,60 15.571,14 1.726,58 1.978,80 0,00 0,00 3.705,38 11.865,76 28/02/2022
958 409000 FABIOLA MONTEIRO DE CARVALHO CASTRO ANALISTA DO MP BOM SUCESSO - COMARCA; BOM SUCESSO-PJ-UNPJ 12.204,02 2.440,80 0,00 0,00 0,00 0,00 268,49 4.645,96 19.559,27 2.136,38 2.570,46 0,00 0,00 4.706,84 14.852,43 28/02/2022
959 525800 FABRICIA ALVES DANTAS OFICIAL DO MP MONTES CLAROS - COMARCA; MONTES CLAROS-PJ-01PJ 7.663,37 766,34 0,00 0,00 0,00 0,00 247,27 4.414,51 13.091,49 1.141,97 1.082,63 0,00 0,00 2.224,60 10.866,89 28/02/2022
960 263400 FABRICIA PINTO TEIXEIRA SANTIAGO OFICIAL DO MP BELO HORIZONTE - COMARCA; CAO-FUNDACOES-SECRETARIA 13.011,52 3.903,46 0,00 0,00 0,00 0,00 496,17 7.129,79 24.540,94 2.499,61 2.990,59 0,00 0,00 5.490,20 19.050,74 28/02/2022
961 420800 FABRICIO BERNARDES DE OLIVEIRA OFICIAL DO MP ITURAMA - COMARCA; ITURAMA-PJ-02PJ 8.858,43 1.771,69 0,00 0,00 0,00 0,00 428,75 6.394,25 17.453,12 1.494,03 1.590,93 0,00 0,00 3.084,96 14.368,16 28/02/2022
962 474000 FABRICIO DE FREITAS SALES ANALISTA DO MP MONTES CLAROS - COMARCA; COORD REG PATRI PUB ORD TRIB-NORTE MINAS 10.069,62 2.013,92 0,00 0,00 0,00 0,00 531,68 7.517,10 20.132,32 1.726,58 1.978,80 0,00 0,00 3.705,38 16.426,94 28/02/2022
963 510100 FABRICIO FURTADO ASSIS DO CARMO ANALISTA DO MP BELO HORIZONTE - COMARCA; SERVICO MEDICO-DEPTO PERIC MEDICA SAUDE OCUP 10.069,62 2.013,92 0,00 0,00 0,00 0,00 1.154,87 5.575,13 18.813,54 1.726,58 2.243,77 0,00 0,00 3.970,35 14.843,19 28/02/2022
964 519600 FABRICIO GONTIJO SALVATI ANALISTA DO MP JUIZ DE FORA - COMARCA; JUIZ DE FORA-CAO ESPECIALIZADO-SECRETARIA 10.069,62 2.013,92 0,00 0,00 0,00 0,00 0,00 1.717,00 13.800,54 1.726,58 1.978,80 0,00 0,00 3.705,38 10.095,16 28/02/2022
965 637400 FABRICIO HENRIQUE DA SILVA PASSOS ASSESSOR/ANALISTA BELO HORIZONTE - COMARCA; DIR CRIACAO E MIDIAS 0,00 1.039,75 10.397,52 0,00 3.812,42 0,00 0,00 1.717,00 16.966,69 1.403,07 2.938,46 0,00 0,00 4.341,53 12.625,16 28/02/2022
966 428200 FABRICIO ORZIL VIANA ANALISTA DO MP SANTA LUZIA - COMARCA; SANTA LUZIA-PJ-04PJ 10.069,62 2.013,92 0,00 0,00 0,00 0,00 531,68 7.517,10 20.132,32 1.726,58 1.978,80 0,00 0,00 3.705,38 16.426,94 28/02/2022
967 455600 FABRICIO PAIVA DA ROCHA ANALISTA DO MP SÃO JOÃO DEL REI - COMARCA; SAO JOAO DEL REI-PJ-06PJ 10.069,62 2.013,92 0,00 0,00 0,00 0,00 531,68 8.402,40 21.017,62 1.726,58 1.926,67 0,00 0,00 3.653,25 17.364,37 28/02/2022
968 511500 FABRICIO RENE CARDOSO DE PADUA ANALISTA DO MP SÃO SEBASTIÃO DO PARAÍSO - COMARCA; SAO SEBASTIAO DO PARAISO-PJ-03PJ 10.069,62 2.013,92 0,00 0,00 4.027,85 0,00 0,00 1.717,00 17.828,39 1.726,58 3.086,46 0,00 0,00 4.813,04 13.015,35 28/02/2022
969 496100 FABRICIO RESENDE GONCALVES OFICIAL DO MP ENTRE-RIOS DE MINAS - COMARCA; ENTRE RIOS DE MINAS-PJ-UNPJ 7.663,37 1.532,67 0,00 0,00 0,00 0,00 0,00 2.602,30 11.798,34 1.264,58 1.311,79 0,00 0,00 2.576,37 9.221,97 28/02/2022
970 650300 FABRICIO ROBERTO AZEVEDO OFICIAL DO MP NOVA SERRANA - COMARCA; NOVA SERRANA-PJ-04PJ 4.817,57 481,76 0,00 0,00 0,00 0,00 0,00 1.717,00 7.016,33 655,50 408,73 0,00 0,00 1.064,23 5.952,10 28/02/2022
971 514900 FADUA MARIA DRUMOND CHEQUER ANALISTA DO MP BETIM - COMARCA; BETIM-PJ-12PJ 10.069,62 2.013,92 0,00 0,00 0,00 0,00 531,68 7.517,10 20.132,32 1.726,58 1.874,53 0,00 0,00 3.601,11 16.531,21 28/02/2022
972 282500 FANNY FERREIRA MELO OFICIAL DO MP ARAXÁ - COMARCA; ARAXA-PJ-03PJ 10.069,62 3.020,89 0,00 0,00 0,00 0,00 0,00 1.717,00 14.807,51 1.887,70 2.211,41 0,00 0,00 4.099,11 10.708,40 28/02/2022
973 692500 FARID JUNIOR NUNES DA SILVA ASSESSOR PROCURADOR JUSTICA BELO HORIZONTE - COMARCA; GABINETE DE PROCURADOR DE JUSTIÇA - SALA 902 0,00 0,00 7.187,72 0,00 0,00 0,00 131,77 3.154,54 10.474,03 828,38 1.104,63 0,00 0,00 1.933,01 8.541,02 28/02/2022
974 540100 FATIMA CRISTINA POVOA DA COSTA COORDENADOR/OFICIAL BELO HORIZONTE - COMARCA; BH-18PJ VIOLENCIA DOMESTICA-SECRETARIA 0,00 3.545,75 11.819,15 0,00 0,00 1.151,27 507,04 7.248,36 24.271,57 1.151,27 3.355,99 0,00 0,00 4.507,26 19.764,31 28/02/2022
975 382800 FATIMA DE OLIVEIRA COELHO E SILVA ASSESSOR/OFICIAL BELO HORIZONTE - COMARCA; DIRETORIA DE ADMINISTRACAO FINANCEIRA 0,00 3.119,26 10.397,52 0,00 0,00 0,00 545,18 7.664,38 21.726,34 1.635,77 2.345,78 0,00 0,00 3.981,55 17.744,79 28/02/2022
976 398601 FELIPE ANTONIO HORTA DE PAULA ANALISTA DO MP BELO HORIZONTE - COMARCA; PROC. JUSTICA DIR. DIFUSOS E COLETIVOS-SEC 9.444,70 944,47 0,00 0,00 0,00 0,00 495,22 7.119,37 18.003,76 1.455,48 1.587,40 0,00 0,00 3.042,88 14.960,88 28/02/2022
977 430900 FELIPE BOY VIEIRA ANALISTA DO MP BELO HORIZONTE - COMARCA; DIRETORIA DE SEGURANCA 12.601,30 2.520,26 0,00 0,00 0,00 0,00 499,01 7.160,76 22.781,33 927,17 2.868,39 0,00 0,00 3.795,56 18.985,77 28/02/2022
978 631700 FELIPE DE MORAIS SIMOES COELHO ANALISTA DO MP BELO HORIZONTE - COMARCA; BH-18PJ VIOLENCIA DOMESTICA-SECRETARIA 8.436,53 843,65 0,00 0,00 0,00 0,00 0,00 1.717,00 10.997,18 1.278,04 1.331,23 0,00 0,00 2.609,27 8.387,91 28/02/2022
979 549100 FELIPE FERNANDES ALVIM ANALISTA DO MP LAJINHA - COMARCA; LAJINHA-PJ-UNPJ 9.444,70 944,47 0,00 0,00 0,00 0,00 419,03 7.173,53 17.981,73 1.455,48 1.587,40 0,00 0,00 3.042,88 14.938,85 28/02/2022
980 693100 FELIPE FROIS DO AMARAL ASSESSOR PROMOTOR JUSTICA RIBEIRÃO DAS NEVES - COMARCA; RIBEIRAO NEVES-SEC PJ EXECUCAO PENAL 0,00 0,00 7.187,72 0,00 0,00 0,00 0,00 1.717,00 8.904,72 828,38 1.104,63 0,00 0,00 1.933,01 6.971,71 28/02/2022
981 620100 FELIPE GOMES DE AZEVEDO ASSESSOR/OFICIAL BELO HORIZONTE - COMARCA; DIVISAO DE SERVICOS 0,00 817,05 8.170,49 0,00 0,00 0,00 0,00 1.717,00 10.704,54 749,48 1.396,11 0,00 0,00 2.145,59 8.558,95 28/02/2022
982 601600 FELIPE RODRIGUES DE SIQUEIRA ANALISTA DO MP BELO HORIZONTE - COMARCA; BH-02PJ FAMILIA-SECRETARIA 9.444,70 944,47 0,00 0,00 0,00 0,00 419,03 6.288,23 17.096,43 927,17 1.264,63 0,00 0,00 2.191,80 14.904,63 28/02/2022
983 628900 FELIX FERNANDO JUNIO VIEIRA ANALISTA DO MP CAETÉ - COMARCA; CAETE-PJ-02PJ 9.146,93 914,69 0,00 0,00 0,00 0,00 405,82 6.144,11 16.611,55 1.403,07 1.407,47 0,00 0,00 2.810,54 13.801,01 28/02/2022
984 544500 FELLIPE LEMOS MARCONDES BUENO ANALISTA DO MP SÃO SEBASTIÃO DO PARAÍSO - COMARCA; SAO SEBASTIAO DO PARAISO-PJ-04PJ 9.444,70 944,47 0,00 0,00 0,00 0,00 533,31 7.534,94 18.457,42 1.455,48 1.587,40 0,00 0,00 3.042,88 15.414,54 28/02/2022
985 688500 FELLIPE TADEU DE ANDRADE RAMOS ASSESSOR PROCURADOR JUSTICA BELO HORIZONTE - COMARCA; GABINETE DE PROCURADOR DE JUSTIÇA - SALA 907 0,00 0,00 7.187,72 0,00 0,00 0,00 527,10 7.467,18 15.182,00 828,38 1.208,91 0,00 0,00 2.037,29 13.144,71 28/02/2022
986 612600 FERNANDA ADRIANA DE PAULA GUIDO ANALISTA DO MP PARACATU - COMARCA; PARACATU-PJ-02PJ 9.146,93 914,69 0,00 0,00 0,00 0,00 36,89 3.004,76 13.103,27 1.403,07 1.511,74 0,00 0,00 2.914,81 10.188,46 28/02/2022
987 508400 FERNANDA AGANETTI MATTOS DE OLIVEIRA ANALISTA DO MP BELO HORIZONTE - COMARCA; JUNTA RECURSAL DO PROCON ESTADUAL 10.069,62 2.013,92 0,00 0,00 0,00 0,00 0,00 3.487,60 15.571,14 927,17 2.198,64 0,00 0,00 3.125,81 12.445,33 28/02/2022
988 453600 FERNANDA ALBERNAZ RABELO ANALISTA DO MP BELO HORIZONTE - COMARCA; GABINETE DE PROCURADOR DE JUSTIÇA - SALA 616 10.069,62 2.013,92 0,00 0,00 0,00 0,00 0,00 1.717,00 13.800,54 1.726,58 1.978,80 0,00 0,00 3.705,38 10.095,16 28/02/2022
989 255600 FERNANDA ALINA DE ALMEIDA ANDRADE OFICIAL DO MP BELO HORIZONTE - COMARCA; DIRETORIA DE INTELIGENCIA 10.069,62 3.020,89 0,00 0,00 0,00 0,00 144,00 3.287,86 16.522,37 1.887,70 2.211,41 0,00 0,00 4.099,11 12.423,26 28/02/2022
990 443200 FERNANDA ALMEIDA LOPES ANALISTA DO MP CONTAGEM - COMARCA; CONTAGEM-PJ-10PJ 13.011,52 2.602,30 0,00 0,00 0,00 0,00 0,00 3.487,60 19.101,42 2.291,42 2.690,02 0,00 0,00 4.981,44 14.119,98 28/02/2022
991 281100 FERNANDA ANANIAS MEIRA ANALISTA DO MP BELO HORIZONTE - COMARCA; BH-23PJ INFRACIONAL-ASS JURIDICA 17.413,92 5.224,18 0,00 0,00 0,00 0,00 2.826,52 7.150,14 32.614,76 3.787,87 4.954,79 0,00 0,00 8.742,66 23.872,10 28/02/2022
992 539000 FERNANDA BARBOSA ALVES ANALISTA DO MP UBERABA - COMARCA; UBERABA-PJ-04PJ 9.444,70 944,47 0,00 0,00 0,00 0,00 0,00 2.602,30 12.991,47 1.455,48 1.587,40 0,00 0,00 3.042,88 9.948,59 28/02/2022
993 451200 FERNANDA BLOISE PRADO OFICIAL DO MP BELO HORIZONTE - COMARCA; BH-12PJ JUIZO CRIMINAL-SECRETARIA 8.436,53 1.687,31 0,00 0,00 0,00 0,00 0,00 1.717,00 11.840,84 1.413,03 1.526,11 0,00 0,00 2.939,14 8.901,70 28/02/2022
994 427900 FERNANDA BRAGA CARNEIRO BICALHO ANALISTA DO MP PEÇANHA - COMARCA; PECANHA-PJ-SECRETARIA 10.069,62 2.013,92 0,00 0,00 0,00 0,00 0,00 2.602,30 14.685,84 1.726,58 1.926,67 0,00 0,00 3.653,25 11.032,59 28/02/2022
995 507100 FERNANDA CABRINI VAZ MOTA ANALISTA DO MP BELO HORIZONTE - COMARCA; DIVISAO DE MATERIAIS 10.069,62 2.013,92 0,00 0,00 0,00 0,00 728,67 9.287,70 22.099,91 927,17 2.095,59 0,00 0,00 3.022,76 19.077,15 28/02/2022
996 259800 FERNANDA CALZAVARA DE SOUSA COORDENADOR/OFICIAL BELO HORIZONTE - COMARCA; DIRET DE FORMACAO, APERFEIC. E POS-GRADUACAO 13.011,52 3.903,46 2.687,03 0,00 0,00 0,00 0,00 2.602,30 22.204,31 2.499,61 3.781,66 0,00 0,00 6.281,27 15.923,04 28/02/2022
997 494400 FERNANDA CAMPOS BARATA OFICIAL DO MP JUIZ DE FORA - COMARCA; JUIZ DE FORA-PJ-08PJ 6.123,79 1.224,76 0,00 0,00 0,00 0,00 538,89 7.595,84 15.483,28 968,98 885,02 0,00 0,00 1.854,00 13.629,28 28/02/2022
998 555600 FERNANDA CAROLINE RIBEIRO ANALISTA DO MP BELO HORIZONTE - COMARCA; DIRETORIA GESTAO CONTRATOS CONVENIOS 9.444,70 944,47 0,00 0,00 0,00 0,00 38,09 2.132,57 12.559,83 1.455,48 1.587,40 0,00 0,00 3.042,88 9.516,95 28/02/2022
999 692000 FERNANDA CESAR SILVA ASSESSOR PROCURADOR JUSTICA BELO HORIZONTE - COMARCA; GABINETE DE PROCURADOR DE JUSTIÇA - SALA 809 0,00 0,00 7.187,72 0,00 0,00 0,00 0,00 1.717,00 8.904,72 828,38 1.208,91 0,00 0,00 2.037,29 6.867,43 28/02/2022
1000 294500 FERNANDA COSTA FLORES OFICIAL DO MP PARÁ DE MINAS - COMARCA; PARA DE MINAS-PJ-04PJ 10.069,62 3.020,89 0,00 0,00 0,00 0,00 527,98 7.476,82 21.095,31 1.887,70 2.211,41 0,00 0,00 4.099,11 16.996,20 28/02/2022
1001 344500 FERNANDA CRISTINA DE SOUZA PAZ ASSESSOR BELO HORIZONTE - COMARCA; CENTRAL DE APOIO TECN-SETOR DE MEIO AMBIENTE 0,00 0,00 5.136,32 0,00 0,00 0,00 0,00 1.717,00 6.853,32 722,98 569,48 0,00 0,00 1.292,46 5.560,86 28/02/2022
1002 538100 FERNANDA CRISTINA DOS SANTOS ROSA OFICIAL DO MP RIBEIRÃO DAS NEVES - COMARCA; RIBEIRAO DAS NEVES-PJ-09PJ 6.123,79 1.837,14 0,00 0,00 0,00 0,00 0,00 1.717,00 9.677,93 1.066,96 1.026,48 0,00 0,00 2.093,44 7.584,49 28/02/2022
1003 337800 FERNANDA CRISTINA ROLAND CLIMACO MENDES COORDENADOR/OFICIAL BELO HORIZONTE - COMARCA; DIRETORIA DE PAGAMENTO DE PESSOAL-DPAG 10.972,88 3.291,57 2.687,03 0,00 362,18 0,00 3.231,23 7.653,72 28.198,61 2.075,53 3.960,46 0,00 0,00 6.035,99 22.162,62 28/02/2022
1004 545400 FERNANDA CUNHA GUIMARAES ANALISTA DO MP BELO HORIZONTE - COMARCA; EXTINTA-COORD EST DEF DIR FAM PES DEFIC IDOSO 9.444,70 944,47 0,00 0,00 0,00 0,00 0,00 1.717,00 12.106,17 1.455,48 1.587,40 0,00 0,00 3.042,88 9.063,29 28/02/2022
1005 429801 FERNANDA CUNHA PINHEIRO DA SILVA ANALISTA DO MP BELO HORIZONTE - COMARCA; ASSESSORIA DE COMUNICACAO INTEGRADA 10.069,62 2.013,92 0,00 0,00 0,00 0,00 0,00 1.717,00 13.800,54 1.726,58 1.874,53 0,00 0,00 3.601,11 10.199,43 28/02/2022
1006 408000 FERNANDA DAS NEVES RAMOS ANALISTA DO MP BELO HORIZONTE - COMARCA; FEPDC-SECRETARIA EXECUTIVA 14.324,23 2.864,85 0,00 0,00 0,00 0,00 504,21 8.102,81 25.796,10 2.543,47 3.158,18 0,00 0,00 5.701,65 20.094,45 28/02/2022
1007 496000 FERNANDA DE ALMEIDA VIANA ANALISTA DO MP BELO HORIZONTE - COMARCA; PROC JUST ATUACAO TRIBUNAIS SUPERIORES-GAB002 10.069,62 2.013,92 0,00 0,00 0,00 0,00 531,68 9.287,70 21.902,92 1.726,58 1.874,53 0,00 0,00 3.601,11 18.301,81 28/02/2022
1008 266700 FERNANDA DE CASTRO LUCAS COORDENADOR/OFICIAL BELO HORIZONTE - COMARCA; DIRET DE DESENV DE RECURSOS HUMANOS-DDRH 13.011,52 3.903,46 2.687,03 0,00 0,00 0,00 503,12 8.090,86 28.195,99 2.499,61 3.781,66 0,00 0,00 6.281,27 21.914,72 28/02/2022
1009 433200 FERNANDA DE FIGUEIREDO NORTE ANALISTA DO MP BELO HORIZONTE - COMARCA; ASSESS JUR DO CONS SUPERIOR DO MINISTERIO PUB 14.324,23 2.864,85 0,00 0,00 0,00 0,00 0,00 1.717,00 18.906,08 2.543,47 3.053,91 0,00 0,00 5.597,38 13.308,70 28/02/2022
1010 419200 FERNANDA DE MIRANDA MARTINS SIMOES ANALISTA DO MP UBERLÂNDIA - COMARCA; UBERLANDIA-PJ-17PJ 14.324,23 2.864,85 0,00 0,00 0,00 0,00 504,21 8.102,81 25.796,10 2.543,47 3.158,18 0,00 0,00 5.701,65 20.094,45 28/02/2022
1011 441400 FERNANDA DE MORAIS PINTO ANALISTA DO MP BELO HORIZONTE - COMARCA; PROC. JUSTICA DIR. DIFUSOS E COLETIVOS-SEC 13.011,52 2.602,30 0,00 0,00 0,00 0,00 0,00 1.717,00 17.330,82 2.291,42 2.794,30 0,00 0,00 5.085,72 12.245,10 28/02/2022
1012 432200 FERNANDA DE MOURA GUIMARAES ANALISTA DO MP BELO HORIZONTE - COMARCA; BH-26 CRIME CONT CRIAN ADOL-SECRETARIA 13.011,52 2.602,30 0,00 0,00 0,00 0,00 0,00 1.717,00 17.330,82 2.291,42 2.794,30 0,00 0,00 5.085,72 12.245,10 28/02/2022
1013 461800 FERNANDA DE OLIVEIRA SANTOS ANALISTA DO MP JUIZ DE FORA - COMARCA; JUIZ DE FORA-PJ-21PJ 11.085,56 2.217,11 0,00 0,00 0,00 0,00 536,54 8.455,47 22.294,68 1.921,64 2.260,42 0,00 0,00 4.182,06 18.112,62 28/02/2022
1014 432500 FERNANDA DE PAULA PINTO ANALISTA DO MP BELO HORIZONTE - COMARCA; PROC JUST ATUACAO TRIBUNAIS SUPERIORES-GAB003 13.011,52 2.602,30 0,00 0,00 0,00 0,00 0,00 2.602,30 18.216,12 2.291,42 2.794,30 0,00 0,00 5.085,72 13.130,40 28/02/2022
1015 431600 FERNANDA DIAS BARBOSA PEREIRA ANALISTA DO MP BELO HORIZONTE - COMARCA; BH-02PJ FAMILIA-SECRETARIA 13.011,52 2.602,30 0,00 0,00 0,00 0,00 515,26 8.223,28 24.352,36 2.291,42 2.690,02 0,00 0,00 4.981,44 19.370,92 28/02/2022
1016 162200 FERNANDA FERNANDES MONTEIRO ASSESSOR BELO HORIZONTE - COMARCA; BH-12PJ JUIZO CRIMINAL-SECRETARIA 0,00 2.054,53 5.136,32 0,00 0,00 0,00 131,83 3.155,17 10.477,85 828,38 1.157,63 0,00 0,00 1.986,01 8.491,84 28/02/2022
1017 512800 FERNANDA FERREIRA BARBOSA MOREIRA ANALISTA DO MP IPATINGA - COMARCA; IPATINGA-PJ-05PJ 10.069,62 2.013,92 0,00 0,00 0,00 0,00 0,00 2.602,30 14.685,84 927,17 2.095,59 0,00 0,00 3.022,76 11.663,08 28/02/2022
1018 329200 FERNANDA GABRIEL GUZELLA OFICIAL DO MP BELO HORIZONTE - COMARCA; DIRET DE PLANOS PROJETOS E PROGRAMAS INST 10.069,62 3.020,89 0,00 0,00 0,00 0,00 0,00 1.717,00 14.807,51 1.887,70 2.211,41 0,00 0,00 4.099,11 10.708,40 28/02/2022
1019 324200 FERNANDA GEORGIA NEVES ZAHAN OFICIAL DO MP IPANEMA - COMARCA; IPANEMA-PJ-01PJ 8.436,53 5.905,57 0,00 0,00 0,00 0,00 0,00 1.717,00 16.059,10 2.087,95 2.500,53 0,00 0,00 4.588,48 11.470,62 28/02/2022
1020 548200 FERNANDA GONCALVES DE CARVALHO ZUZA OFICIAL DO MP TUPACIGUARA - COMARCA; TUPACIGUARA-PJ-01PJ 6.123,79 612,38 0,00 0,00 0,00 0,00 74,10 2.525,34 9.335,61 872,76 743,08 0,00 0,00 1.615,84 7.719,77 28/02/2022
1021 355400 FERNANDA HELENA BASQUES OFICIAL DO MP SABARÁ - COMARCA; SABARA-PJ-01PJ 10.069,62 3.020,89 0,00 0,00 0,00 0,00 0,00 1.717,00 14.807,51 1.887,70 2.211,41 0,00 0,00 4.099,11 10.708,40 28/02/2022
1022 454800 FERNANDA IATAROLA BARBOSA DIAS ANALISTA DO MP BARBACENA - COMARCA; BARBACENA-PJ-05PJ 11.085,56 2.217,11 0,00 0,00 0,00 0,00 536,54 7.570,17 21.409,38 1.921,64 2.208,29 0,00 0,00 4.129,93 17.279,45 28/02/2022
1023 515500 FERNANDA LILIANE MARUGEIRO ANALISTA DO MP LAGOA SANTA - COMARCA; LAGOA SANTA-PJ-01PJ 10.069,62 2.013,92 0,00 0,00 0,00 0,00 354,45 7.354,33 19.792,32 1.726,58 1.926,67 0,00 0,00 3.653,25 16.139,07 28/02/2022
1024 392900 FERNANDA MAGALHAES SILVA ANALISTA DO MP BELO HORIZONTE - COMARCA; DIR CONTEUDO JORNALISTICO 14.790,66 2.958,13 0,00 0,00 0,00 0,00 520,63 7.396,61 25.666,03 2.633,02 3.287,48 0,00 0,00 5.920,50 19.745,53 28/02/2022
1025 409200 FERNANDA MAIA SANTIAGO CARDOSO ANALISTA DO MP PIRAPORA - COMARCA; PIRAPORA-PJ-02PJ 10.069,62 2.013,92 0,00 0,00 0,00 0,00 0,00 2.602,30 14.685,84 1.726,58 1.978,80 0,00 0,00 3.705,38 10.980,46 28/02/2022
1026 714100 FERNANDA MELO FIORENZANO REIS ASSESSOR BELO HORIZONTE - COMARCA; DIR CONTEUDO JORNALISTICO 0,00 0,00 10.397,52 0,00 0,00 0,00 0,00 1.717,00 12.114,52 828,38 2.091,60 0,00 0,00 2.919,98 9.194,54 28/02/2022
1027 556500 FERNANDA OTERO COSTA ANALISTA DO MP BELO HORIZONTE - COMARCA; ASSESS TECNICO-JUR JUNTO AS PROC. DE JUST 10.069,62 1.006,96 0,00 0,00 0,00 0,00 684,36 7.033,76 18.794,70 927,17 1.839,45 0,00 0,00 2.766,62 16.028,08 28/02/2022
1028 615300 FERNANDA PATRICIA RIBEIRO MOTA OFICIAL DO MP UBERABA - COMARCA; UBERABA-PJ-05PJ 5.930,75 593,08 0,00 0,00 0,00 0,00 0,00 1.717,00 8.240,83 839,85 693,74 0,00 0,00 1.533,59 6.707,24 28/02/2022
1029 619800 FERNANDA PINTO PEREIRA ANALISTA DO MP UBERLÂNDIA - COMARCA; UBERLANDIA-PJ-20PJ 9.146,93 914,69 0,00 0,00 0,00 0,00 0,00 3.487,60 13.549,22 1.403,07 1.459,60 0,00 0,00 2.862,67 10.686,55 28/02/2022
1030 412900 FERNANDA PORTELA ROSA ANALISTA DO MP BELO HORIZONTE - COMARCA; BH-08PJ JUIZADO ESPECIAL-SECRETARIA 14.324,23 2.864,85 0,00 0,00 0,00 0,00 504,21 8.102,81 25.796,10 2.543,47 3.158,18 0,00 0,00 5.701,65 20.094,45 28/02/2022
1031 274301 FERNANDA QUEIROZ PARREIRA ANALISTA DO MP PATOS DE MINAS - COMARCA; GAECO REGIONAL DE PATOS DE MINAS 10.069,62 2.013,92 0,00 0,00 0,00 0,00 0,00 1.717,00 13.800,54 1.726,58 1.978,80 0,00 0,00 3.705,38 10.095,16 28/02/2022
1032 467900 FERNANDA QUEIROZ SIMOES GANNAM ANALISTA DO MP SÃO LOURENÇO - COMARCA; SAO LOURENCO-PJ-02PJ 11.085,56 2.217,11 0,00 0,00 0,00 0,00 0,00 1.717,00 15.019,67 1.921,64 2.208,29 0,00 0,00 4.129,93 10.889,74 28/02/2022
1033 681001 FERNANDA ROCHA DE MATOS TEIXEIRA ASSESSOR PROMOTOR JUSTICA BELO VALE - COMARCA; BELO VALE-PJ-UNPJ 0,00 0,00 7.187,72 0,00 0,00 0,00 0,00 2.602,30 9.790,02 828,38 1.156,77 0,00 0,00 1.985,15 7.804,87 28/02/2022
1034 255500 FERNANDA SIMOES LOPES MENDES ANALISTA DO MP BELO HORIZONTE - COMARCA; BH-17PJ PATRIMONIO PUBLICO-SECRETARIA 18.820,14 5.646,04 0,00 0,00 0,00 0,00 538,26 7.588,88 32.593,32 3.707,80 4.734,92 0,00 0,00 8.442,72 24.150,60 28/02/2022
1035 708700 FERNANDA TIAGO BOLINA ASSESSOR PROMOTOR JUSTICA IGUATAMA - COMARCA; IGUATAMA-PJ-UNPJ 0,00 0,00 7.187,72 0,00 0,00 0,00 0,00 1.717,00 8.904,72 828,38 1.208,91 0,00 0,00 2.037,29 6.867,43 28/02/2022
1036 481700 FERNANDA VIANA FROES DA SILVA OFICIAL DO MP GOVERNADOR VALADARES - COMARCA; GOVERNADOR VALADARES-PJ-09PJ 7.912,85 1.582,57 0,00 0,00 0,00 0,00 0,00 1.717,00 11.212,42 1.312,48 1.380,95 0,00 0,00 2.693,43 8.518,99 28/02/2022
1037 123900 FERNANDO ANTONIO FARIA DE ABREU ANALISTA DO MP BELO HORIZONTE - COMARCA; SUPERINTENDÊNCIA DE ENGENHARIA E ARQUITETURA 26.471,31 23.824,17 0,00 0,00 0,00 5.467,17 520,12 7.390,96 63.673,73 5.467,17 8.882,75 14.833,26 0,00 29.183,18 34.490,55 28/02/2022
1038 416900 FERNANDO APARECIDO DA SILVA ANALISTA DO MP BOM DESPACHO - COMARCA; BOM DESPACHO-PJ-02PJ 13.011,52 9.108,06 0,00 0,00 0,00 0,00 486,63 7.025,70 29.631,91 3.332,35 4.192,85 0,00 0,00 7.525,20 22.106,71 28/02/2022
1039 500100 FERNANDO CEZAR PINTO OFICIAL DO MP SANTA LUZIA - COMARCA; SANTA LUZIA-PJ-04PJ 7.912,85 1.582,57 0,00 0,00 3.165,14 0,00 348,17 5.515,17 18.523,90 1.312,48 2.199,22 0,00 0,00 3.511,70 15.012,20 28/02/2022
1040 346100 FERNANDO EUSTAQUIO CAMPOS UTSCH MOREIRA ANALISTA DO MP BELO HORIZONTE - COMARCA; DIRETORIA DE SISTEMAS DE INFORMACAO 16.750,82 5.025,25 0,00 0,00 0,00 0,00 479,07 6.943,26 29.198,40 3.277,38 4.113,50 0,00 0,00 7.390,88 21.807,52 28/02/2022
1041 103500 FERNANDO LUIZ DA SILVA JUNIOR OFICIAL DO MP BELO HORIZONTE - COMARCA; DIVISAO DE ATENDIMENTO E CONSULTA JURIDICA 18.820,14 9.410,07 0,00 0,00 0,00 0,00 0,00 1.717,00 29.947,21 4.310,05 5.708,68 0,00 0,00 10.018,73 19.928,48 28/02/2022
1042 287300 FERNANDO MARCIO ALVES MARTINS OFICIAL DO MP LEOPOLDINA - COMARCA; LEOPOLDINA-PJ-01PJ 8.858,43 2.657,53 0,00 0,00 0,00 0,00 506,70 7.244,66 19.267,32 1.635,77 1.743,42 0,00 0,00 3.379,19 15.888,13 28/02/2022
1043 472900 FERNANDO RODRIGUES DE FREITAS ANALISTA DO MP BELO HORIZONTE - COMARCA; BH-15PJ M AMB PAT HIST CULT-ASS TECNICA 10.069,62 2.013,92 0,00 0,00 0,00 0,00 0,00 1.717,00 13.800,54 1.726,58 1.978,80 0,00 0,00 3.705,38 10.095,16 28/02/2022
1044 421400 FERNANDO TEODORO MACIEL ANALISTA DO MP SANTA VITÓRIA - COMARCA; SANTA VITORIA-PJ-UNPJ 12.204,02 2.440,80 0,00 0,00 0,00 0,00 536,98 8.460,23 23.642,03 2.136,38 2.466,19 0,00 0,00 4.602,57 19.039,46 28/02/2022
1045 446300 FERNANDO VITOR DE OLIVEIRA ANALISTA DO MP MONTES CLAROS - COMARCA; COORD REG BACIA RIOS VERDE GRANDE E PARDO 13.011,52 2.602,30